[[{"header":{"parameterUnit":"m.s-1","parameterCategory":1,"la1":30.6,"la2":28.766,"lo1":-90.7593,"lo2":-88.6598,"dy":0.0162,"dx":0.0183,"nx":116,"ny":114,"refTime":"2024-04-28T18:00:00:Z","depth":0,"parameterNumber":2,"parameterNumberName":"U-component_of_WINDS"},"data":[0.0,0.0,0.0,0.0,0.0,0.0,0.0,0.0,0.0,0.0,0.0,0.0,0.0,0.0,0.0,0.0,0.0,0.0,0.0,0.0,0.0,0.0,0.0,0.0,0.0,0.0,0.0,0.0,0.0,0.0,0.0,0.0,0.0,0.0,0.0,0.0,0.0,0.0,0.0,0.0,0.0,0.0,0.0,0.0,0.0,0.0,0.0,0.0,0.0,0.0,0.0,0.0,0.0,0.0,0.0,0.0,0.0,0.0,0.0,0.0,0.0,0.0,0.0,0.0,0.0,0.0,0.0,0.0,0.0,0.0,0.0,0.0,0.0,0.0,0.0,0.0,0.0,0.0,0.0,0.0,0.0,0.0,0.0,0.0,0.0,0.0,0.0,0.0,0.0,0.0,0.0,0.0,0.0,0.0,0.0,0.0,0.0,0.0,0.0,0.0,0.0,0.0,0.0,0.0,0.0,0.0,0.0,0.0,0.0,0.0,0.0,0.0,0.0,0.0,0.0,0.0,0.0,0.0,0.0,0.0,0.0,0.0,0.0,0.0,0.0,0.0,0.0,0.0,0.0,0.0,0.0,0.0,0.0,0.0,0.0,0.0,0.0,0.0,0.0,0.0,0.0,0.0,0.0,0.0,0.0,0.0,0.0,0.0,0.0,0.0,0.0,0.0,0.0,0.0,0.0,0.0,0.0,0.0,0.0,0.0,0.0,0.0,0.0,0.0,0.0,0.0,0.0,0.0,0.0,0.0,0.0,0.0,0.0,0.0,0.0,0.0,0.0,0.0,0.0,0.0,0.0,0.0,0.0,0.0,0.0,0.0,0.0,0.0,0.0,0.0,0.0,0.0,0.0,0.0,0.0,0.0,0.0,0.0,0.0,0.0,0.0,0.0,0.0,0.0,0.0,0.0,0.0,0.0,0.0,0.0,0.0,0.0,0.0,0.0,0.0,0.0,0.0,0.0,0.0,0.0,0.0,0.0,0.0,0.0,0.0,0.0,0.0,0.0,0.0,0.0,0.0,0.0,0.0,0.0,0.0,0.0,0.0,0.0,0.0,0.0,0.0,0.0,0.0,0.0,0.0,0.0,0.0,0.0,0.0,0.0,0.0,0.0,0.0,0.0,0.0,0.0,0.0,0.0,0.0,0.0,0.0,0.0,0.0,0.0,0.0,0.0,0.0,0.0,0.0,0.0,0.0,0.0,0.0,0.0,0.0,0.0,0.0,0.0,0.0,0.0,0.0,0.0,0.0,0.0,0.0,0.0,0.0,0.0,0.0,0.0,0.0,0.0,0.0,0.0,0.0,0.0,0.0,0.0,0.0,0.0,0.0,0.0,0.0,0.0,0.0,0.0,0.0,0.0,0.0,0.0,0.0,0.0,0.0,0.0,0.0,0.0,0.0,0.0,0.0,0.0,0.0,0.0,0.0,0.0,0.0,0.0,0.0,0.0,0.0,0.0,0.0,0.0,0.0,0.0,0.0,0.0,0.0,0.0,0.0,0.0,0.0,0.0,0.0,0.0,0.0,0.0,0.0,0.0,0.0,0.0,0.0,0.0,0.0,0.0,0.0,0.0,0.0,0.0,0.0,0.0,0.0,0.0,0.0,0.0,0.0,0.0,0.0,0.0,0.0,0.0,0.0,0.0,0.0,0.0,0.0,0.0,0.0,0.0,0.0,0.0,0.0,0.0,0.0,0.0,0.0,0.0,0.0,0.0,0.0,0.0,0.0,0.0,0.0,0.0,0.0,0.0,0.0,0.0,0.0,0.0,0.0,0.0,0.0,0.0,0.0,0.0,0.0,0.0,0.0,0.0,0.0,0.0,0.0,0.0,0.0,0.0,0.0,0.0,0.0,0.0,0.0,0.0,0.0,0.0,0.0,0.0,0.0,0.0,0.0,0.0,0.0,0.0,0.0,0.0,0.0,0.0,0.0,0.0,0.0,0.0,0.0,0.0,0.0,0.0,0.0,0.0,0.0,0.0,0.0,0.0,0.0,0.0,0.0,0.0,0.0,0.0,0.0,0.0,0.0,0.0,0.0,0.0,0.0,0.0,0.0,0.0,0.0,0.0,0.0,0.0,0.0,0.0,0.0,0.0,0.0,0.0,0.0,0.0,0.0,0.0,0.0,0.0,0.0,0.0,0.0,0.0,0.0,0.0,0.0,0.0,0.0,0.0,0.0,0.0,0.0,0.0,0.0,0.0,0.0,0.0,0.0,0.0,0.0,0.0,0.0,0.0,0.0,0.0,0.0,0.0,0.0,0.0,0.0,0.0,0.0,0.0,0.0,0.0,0.0,0.0,0.0,0.0,0.0,0.0,0.0,0.0,0.0,0.0,0.0,0.0,0.0,0.0,0.0,0.0,0.0,0.0,0.0,0.0,0.0,0.0,0.0,0.0,0.0,0.0,0.0,0.0,0.0,0.0,0.0,0.0,0.0,0.0,0.0,0.0,0.0,0.0,0.0,0.0,0.0,0.0,0.0,0.0,0.0,0.0,0.0,0.0,0.0,0.0,0.0,0.0,0.0,0.0,0.0,0.0,0.0,0.0,0.0,0.0,0.0,0.0,0.0,0.0,0.0,0.0,0.0,0.0,0.0,0.0,0.0,0.0,0.0,0.0,0.0,0.0,0.0,0.0,0.0,0.0,0.0,0.0,0.0,0.0,0.0,0.0,0.0,0.0,0.0,0.0,0.0,0.0,0.0,0.0,0.0,0.0,0.0,0.0,0.0,0.0,0.0,0.0,0.0,0.0,0.0,0.0,0.0,0.0,0.0,0.0,0.0,0.0,0.0,0.0,0.0,0.0,0.0,0.0,0.0,0.0,0.0,0.0,0.0,0.0,0.0,0.0,0.0,0.0,0.0,0.0,0.0,0.0,0.0,0.0,0.0,0.0,0.0,0.0,0.0,0.0,0.0,0.0,0.0,0.0,0.0,0.0,0.0,0.0,0.0,0.0,0.0,0.0,0.0,0.0,0.0,0.0,0.0,0.0,0.0,0.0,0.0,0.0,0.0,0.0,0.0,0.0,0.0,0.0,0.0,0.0,0.0,0.0,0.0,0.0,0.0,0.0,0.0,0.0,0.0,0.0,0.0,0.0,0.0,0.0,0.0,0.0,0.0,0.0,0.0,0.0,0.0,0.0,0.0,0.0,0.0,0.0,0.0,0.0,0.0,0.0,0.0,0.0,0.0,0.0,0.0,0.0,0.0,0.0,0.0,0.0,0.0,0.0,0.0,0.0,0.0,0.0,0.0,0.0,0.0,0.0,0.0,0.0,0.0,0.0,0.0,0.0,0.0,0.0,0.0,0.0,0.0,0.0,0.0,0.0,0.0,0.0,0.0,0.0,0.0,0.0,0.0,0.0,0.0,0.0,0.0,0.0,0.0,0.0,0.0,0.0,0.0,0.0,0.0,0.0,0.0,0.0,0.0,0.0,0.0,0.0,0.0,0.0,0.0,0.0,0.0,0.0,0.0,0.0,0.0,0.0,0.0,0.0,0.0,0.0,0.0,0.0,0.0,0.0,0.0,0.0,0.0,0.0,0.0,0.0,0.0,0.0,0.0,0.0,0.0,0.0,0.0,0.0,0.0,0.0,0.0,0.0,0.0,0.0,0.0,0.0,0.0,0.0,0.0,0.0,0.0,0.0,0.0,0.0,0.0,0.0,0.0,0.0,0.0,0.0,0.0,0.0,0.0,0.0,0.0,0.0,0.0,0.0,0.0,0.0,0.0,0.0,0.0,0.0,0.0,0.0,0.0,0.0,0.0,0.0,0.0,0.0,0.0,0.0,0.0,0.0,0.0,0.0,0.0,0.0,0.0,0.0,0.0,0.0,0.0,0.0,0.0,0.0,0.0,0.0,0.0,0.0,0.0,0.0,0.0,0.0,0.0,0.0,0.0,0.0,0.0,0.0,0.0,0.0,0.0,0.0,0.0,0.0,0.0,0.0,0.0,0.0,0.0,0.0,0.0,0.0,0.0,0.0,0.0,0.0,0.0,0.0,0.0,0.0,0.0,0.0,0.0,0.0,0.0,0.0,0.0,0.0,0.0,0.0,0.0,0.0,0.0,0.0,0.0,0.0,0.0,0.0,0.0,0.0,0.0,0.0,0.0,0.0,0.0,0.0,0.0,0.0,0.0,0.0,0.0,0.0,0.0,0.0,0.0,0.0,0.0,0.0,0.0,0.0,0.0,0.0,0.0,0.0,0.0,0.0,0.0,0.0,0.0,0.0,0.0,0.0,0.0,0.0,0.0,0.0,0.0,0.0,0.0,0.0,0.0,0.0,0.0,0.0,0.0,0.0,0.0,0.0,0.0,0.0,0.0,0.0,0.0,0.0,0.0,0.0,0.0,0.0,0.0,0.0,0.0,0.0,0.0,0.0,0.0,0.0,0.0,0.0,0.0,0.0,0.0,0.0,0.0,0.0,0.0,0.0,0.0,0.0,0.0,0.0,0.0,0.0,0.0,0.0,0.0,0.0,0.0,0.0,0.0,0.0,0.0,0.0,0.0,0.0,0.0,0.0,0.0,0.0,0.0,0.0,0.0,0.0,0.0,0.0,0.0,0.0,0.0,0.0,0.0,0.0,0.0,0.0,0.0,0.0,0.0,0.0,0.0,0.0,0.0,0.0,0.0,0.0,0.0,0.0,0.0,0.0,0.0,0.0,0.0,0.0,0.0,0.0,0.0,0.0,0.0,0.0,0.0,0.0,0.0,0.0,0.0,0.0,0.0,0.0,0.0,0.0,0.0,0.0,0.0,0.0,0.0,0.0,0.0,0.0,0.0,0.0,0.0,0.0,0.0,0.0,0.0,0.0,0.0,0.0,0.0,0.0,0.0,0.0,0.0,0.0,0.0,0.0,0.0,0.0,0.0,0.0,0.0,0.0,0.0,0.0,0.0,0.0,0.0,0.0,0.0,0.0,0.0,0.0,0.0,0.0,0.0,0.0,0.0,0.0,0.0,0.0,0.0,0.0,0.0,0.0,0.0,0.0,0.0,0.0,0.0,0.0,0.0,0.0,0.0,0.0,0.0,0.0,0.0,0.0,0.0,0.0,0.0,0.0,0.0,0.0,0.0,0.0,0.0,0.0,0.0,0.0,0.0,0.0,0.0,0.0,0.0,0.0,0.0,0.0,0.0,0.0,0.0,0.0,0.0,0.0,0.0,0.0,0.0,0.0,0.0,0.0,0.0,0.0,0.0,0.0,0.0,0.0,0.0,0.0,0.0,0.0,0.0,0.0,0.0,0.0,0.0,0.0,0.0,0.0,0.0,0.0,0.0,0.0,0.0,0.0,0.0,0.0,0.0,0.0,0.0,0.0,0.0,0.0,0.0,0.0,0.0,0.0,0.0,0.0,0.0,0.0,0.0,0.0,0.0,0.0,0.0,0.0,0.0,0.0,0.0,0.0,0.0,0.0,0.0,0.0,0.0,0.0,0.0,0.0,0.0,0.0,0.0,0.0,0.0,0.0,0.0,0.0,0.0,0.0,0.0,0.0,0.0,0.0,0.0,0.0,0.0,0.0,0.0,0.0,0.0,0.0,0.0,0.0,0.0,0.0,0.0,0.0,0.0,0.0,0.0,0.0,0.0,0.0,0.0,0.0,0.0,0.0,0.0,0.0,0.0,0.0,0.0,0.0,0.0,0.0,0.0,0.0,0.0,0.0,0.0,0.0,0.0,0.0,0.0,0.0,0.0,0.0,0.0,0.0,0.0,0.0,0.0,0.0,0.0,0.0,0.0,0.0,0.0,0.0,0.0,0.0,0.0,0.0,0.0,0.0,0.0,0.0,0.0,0.0,0.0,0.0,0.0,0.0,0.0,0.0,0.0,0.0,0.0,0.0,0.0,0.0,0.0,0.0,0.0,0.0,0.0,0.0,0.0,0.0,0.0,0.0,0.0,0.0,0.0,0.0,0.0,0.0,0.0,0.0,0.0,0.0,0.0,0.0,0.0,0.0,0.0,0.0,0.0,0.0,0.0,0.0,0.0,0.0,0.0,0.0,0.0,0.0,0.0,0.0,0.0,0.0,0.0,0.0,0.0,0.0,0.0,0.0,0.0,0.0,0.0,0.0,0.0,0.0,0.0,0.0,0.0,0.0,0.0,0.0,-4.0574,-4.0313,0.0,0.0,0.0,0.0,0.0,0.0,0.0,0.0,0.0,0.0,0.0,0.0,0.0,0.0,0.0,0.0,0.0,0.0,0.0,0.0,0.0,0.0,0.0,-4.0096,-3.9927,-3.9516,-3.9489,-3.8995,-3.7863,-3.7427,0.0,0.0,0.0,0.0,-3.6023,-3.6342,-3.6347,-3.5968,-3.7439,-3.8773,-3.9979,-4.0788,-4.079,-4.013,0.0,0.0,0.0,0.0,0.0,0.0,0.0,0.0,0.0,0.0,0.0,0.0,0.0,0.0,0.0,0.0,0.0,0.0,0.0,0.0,0.0,0.0,0.0,0.0,0.0,0.0,0.0,0.0,0.0,0.0,0.0,0.0,0.0,0.0,0.0,0.0,0.0,0.0,0.0,0.0,0.0,0.0,0.0,0.0,0.0,0.0,0.0,0.0,0.0,0.0,0.0,0.0,0.0,0.0,0.0,0.0,0.0,0.0,0.0,0.0,0.0,0.0,0.0,0.0,0.0,0.0,0.0,0.0,0.0,0.0,-4.1151,-4.0748,0.0,0.0,0.0,0.0,0.0,0.0,0.0,0.0,0.0,0.0,0.0,0.0,0.0,0.0,0.0,0.0,0.0,0.0,0.0,0.0,0.0,-4.0096,-4.0096,-3.9978,-3.9901,-3.9901,-3.9756,-3.9172,-3.7863,-3.7661,-3.7293,-3.663,-3.6585,-3.6584,-3.6584,-3.7215,-3.7327,-3.6893,-3.9061,-4.086,-4.2284,-4.2436,-4.1762,-4.0502,-4.0984,0.0,0.0,0.0,0.0,0.0,0.0,0.0,0.0,0.0,0.0,0.0,0.0,0.0,0.0,0.0,0.0,0.0,0.0,0.0,0.0,0.0,0.0,0.0,0.0,0.0,0.0,0.0,0.0,0.0,0.0,0.0,0.0,0.0,0.0,0.0,0.0,0.0,0.0,0.0,0.0,0.0,0.0,0.0,0.0,0.0,0.0,0.0,0.0,0.0,0.0,0.0,0.0,0.0,0.0,0.0,0.0,0.0,0.0,0.0,0.0,0.0,0.0,0.0,-4.2818,-4.2557,-4.2568,-4.1924,-4.1733,-4.1986,-4.2114,-4.1577,-4.0644,-4.0712,0.0,0.0,0.0,0.0,0.0,0.0,0.0,0.0,0.0,0.0,0.0,0.0,0.0,0.0,0.0,0.0,0.0,0.0,0.0,-4.0096,-4.0096,-3.9489,-3.9059,-3.9059,-3.8486,-3.8007,-3.7806,-3.716,-3.6691,-3.66,-3.6554,-3.6493,-3.6493,-3.7109,-3.7746,-3.8407,-4.0156,-4.1445,-4.2216,-4.2948,-4.2811,-4.1982,-4.1441,-4.1153,-4.1018,0.0,0.0,0.0,0.0,0.0,0.0,0.0,0.0,0.0,0.0,0.0,0.0,0.0,0.0,0.0,0.0,0.0,0.0,0.0,0.0,0.0,0.0,0.0,0.0,0.0,0.0,0.0,0.0,0.0,0.0,0.0,0.0,0.0,0.0,0.0,0.0,0.0,0.0,0.0,0.0,0.0,-4.0311,-4.085,0.0,0.0,0.0,0.0,0.0,0.0,0.0,0.0,0.0,0.0,0.0,0.0,0.0,-4.3515,-4.3515,-4.3515,-4.3515,-4.3515,-4.3404,-4.348,-4.3757,-4.3664,-4.3591,-4.3509,-4.3522,0.0,-4.1217,-4.1513,0.0,0.0,0.0,0.0,0.0,0.0,0.0,0.0,0.0,0.0,0.0,0.0,0.0,0.0,0.0,0.0,0.0,0.0,0.0,0.0,0.0,-3.9782,-3.9568,-3.9568,-3.9279,-3.8914,-3.8442,-3.7703,-3.7227,-3.7157,-3.6728,-3.6656,-3.7,-3.8095,-3.9536,-4.1273,-4.2037,-4.2767,-4.355,-4.3906,-4.3893,-4.3565,-4.2777,-4.2219,-4.1762,-4.1018,0.0,0.0,0.0,0.0,0.0,0.0,0.0,0.0,0.0,0.0,0.0,0.0,0.0,0.0,0.0,0.0,0.0,0.0,0.0,0.0,0.0,0.0,0.0,0.0,0.0,0.0,0.0,0.0,0.0,0.0,0.0,0.0,0.0,0.0,0.0,0.0,0.0,0.0,0.0,-4.0096,-4.0179,-4.0424,-4.0449,-4.0577,0.0,0.0,0.0,0.0,0.0,0.0,0.0,0.0,0.0,-4.3515,-4.3515,-4.3515,-4.3515,-4.3515,-4.3515,-4.3515,-4.3515,-4.358,-4.3726,-4.3726,-4.3695,-4.3633,-4.3823,-4.3347,-4.2435,-4.2506,-4.2027,-4.1239,0.0,0.0,0.0,0.0,-4.0496,-4.0496,0.0,0.0,0.0,0.0,0.0,0.0,0.0,0.0,0.0,0.0,0.0,0.0,-4.0096,-3.9927,-3.9782,-3.9782,-3.961,-3.9156,-3.8353,-3.779,-3.7444,-3.7305,-3.7162,-3.7355,-3.7956,-3.9707,-4.1501,-4.3306,-4.3532,-4.3977,-4.4615,-4.4615,-4.4615,-4.4581,-4.3978,-4.3301,-4.2523,-4.1796,-4.1474,-4.1424,0.0,0.0,0.0,0.0,0.0,0.0,0.0,0.0,0.0,0.0,0.0,0.0,0.0,0.0,0.0,0.0,0.0,0.0,0.0,0.0,0.0,0.0,0.0,0.0,0.0,0.0,0.0,0.0,0.0,0.0,0.0,0.0,0.0,0.0,0.0,0.0,0.0,-4.0637,-4.0722,-4.0865,-4.0756,-4.0815,0.0,0.0,0.0,0.0,0.0,0.0,-4.3632,-4.378,-4.3889,-4.3889,-4.4032,-4.4011,-4.3809,-4.3809,-4.3699,-4.3515,-4.3515,-4.3515,-4.3515,-4.3515,-4.3548,-4.3646,-4.3896,-4.3849,-4.3605,-4.3377,-4.2834,-4.2143,-4.2143,-4.1604,-4.0835,-4.0835,-4.0689,-4.0496,0.0,0.0,0.0,0.0,0.0,0.0,0.0,0.0,0.0,0.0,0.0,-4.0096,-4.0096,-3.9411,-3.8962,-3.8962,-3.8302,-3.7573,-3.6783,-3.6661,-3.6644,-3.658,-3.7851,-3.8891,-3.9572,-4.1913,-4.3166,-4.3306,-4.4138,-4.4542,-4.4615,-4.4615,-4.4615,-4.4615,-4.4564,-4.4079,-4.3318,-4.2557,-4.2236,-4.2236,-4.2185,0.0,0.0,0.0,0.0,0.0,0.0,0.0,0.0,0.0,0.0,0.0,0.0,0.0,0.0,0.0,0.0,0.0,0.0,0.0,0.0,0.0,0.0,0.0,0.0,0.0,0.0,0.0,0.0,0.0,0.0,0.0,0.0,0.0,0.0,0.0,0.0,0.0,0.0,-4.299,-4.2544,0.0,0.0,0.0,0.0,-4.3169,-4.3664,-4.3965,-4.3965,-4.4588,-4.4915,-4.4915,-4.5477,-4.5406,-4.4636,-4.4654,-4.4268,-4.3515,-4.3515,-4.3515,-4.3515,-4.3515,-4.366,-4.3986,-4.4001,-4.42,-4.4486,-4.3984,-4.3484,-4.3028,-4.3028,-4.2508,-4.1731,-4.1731,-4.12,-4.0496,0.0,0.0,0.0,0.0,0.0,-4.0096,-4.0096,-4.0096,-4.0096,-4.0096,-4.0096,-4.0096,-4.0096,-3.9833,-3.9662,-3.9662,-3.9428,-3.9156,-3.8854,-3.8837,-3.9017,-3.9395,-3.9911,-4.0737,-4.1991,-4.2855,-4.3562,-4.4138,-4.4457,-4.4615,-4.4615,-4.4615,-4.4615,-4.4615,-4.4615,-4.4445,-4.4113,-4.3335,-4.3014,-4.298,-4.2489,-4.2134,0.0,0.0,0.0,0.0,0.0,0.0,0.0,0.0,0.0,0.0,0.0,0.0,0.0,0.0,0.0,0.0,0.0,0.0,0.0,0.0,0.0,0.0,0.0,0.0,0.0,0.0,0.0,0.0,0.0,0.0,0.0,0.0,0.0,0.0,0.0,0.0,0.0,-4.2611,-4.2428,0.0,-4.2286,-4.2851,-4.3192,-4.3192,-4.3693,-4.3999,-4.3999,-4.4632,-4.5001,-4.5001,-4.5586,-4.5755,-4.548,-4.548,-4.5333,-4.5039,-4.5039,-4.4764,-4.4268,-4.4268,-4.4043,-4.3695,-4.3695,-4.3865,-4.42,-4.4013,-4.3779,-4.357,-4.3794,-4.3374,-4.2643,-4.2643,-4.2431,-4.2085,0.0,0.0,0.0,-4.0096,-4.0096,-4.0096,-4.0096,-4.0096,-4.0096,-4.0096,-4.0096,-4.0096,-4.0096,-4.0096,-4.0096,-4.0096,-4.0096,-3.9978,-3.9714,-3.9671,-3.9956,-4.06,-4.1367,-4.2388,-4.371,-4.3756,-4.4006,-4.4615,-4.4615,-4.4615,-4.4615,-4.4615,-4.4615,-4.4615,-4.4615,-4.4615,-4.4581,-4.4028,-4.3809,-4.3775,-4.3267,-4.2912,-4.2675,0.0,0.0,0.0,0.0,0.0,0.0,0.0,0.0,0.0,0.0,0.0,0.0,0.0,0.0,0.0,0.0,0.0,0.0,0.0,0.0,0.0,0.0,0.0,0.0,0.0,0.0,0.0,0.0,0.0,0.0,0.0,0.0,0.0,0.0,-4.2895,-4.3091,-4.3091,-4.3091,-4.3091,-4.3091,-4.3431,-4.3675,-4.3675,-4.4004,-4.4192,-4.4192,-4.5022,-4.5462,-4.5462,-4.6292,-4.6581,-4.6305,-4.6305,-4.6177,-4.5902,-4.5902,-4.5626,-4.5112,-4.5112,-4.4672,-4.3901,-4.3901,-4.3889,-4.3833,-4.3955,-4.3952,-4.3917,-4.4382,-4.4131,-4.3508,-4.3508,-4.3335,-4.3028,0.0,-4.0096,-4.0096,-4.0096,-4.0096,-4.0096,-4.0096,-4.0096,-4.0096,-4.0096,-4.0096,-4.0096,-4.0096,-4.0096,-4.0096,-4.0096,-4.0096,-3.9782,-3.8989,-3.8913,-3.9244,-4.0009,-4.2157,-4.371,-4.4542,-4.4587,-4.4587,-4.4542,-4.4587,-4.4615,-4.4615,-4.4615,-4.4615,-4.4615,-4.4615,-4.4615,-4.4615,-4.4615,-4.4615,-4.4615,-4.4615,-4.413,-4.3426,0.0,0.0,0.0,0.0,0.0,0.0,0.0,0.0,0.0,0.0,0.0,0.0,0.0,0.0,0.0,0.0,0.0,0.0,0.0,0.0,0.0,0.0,0.0,0.0,0.0,0.0,0.0,0.0,0.0,0.0,0.0,0.0,0.0,-4.3555,-4.4096,-4.4615,-4.4615,-4.4615,-4.4615,-4.4615,-4.4615,-4.4615,-4.4615,-4.4615,-4.4615,-4.4615,-4.5732,-4.6383,-4.6407,-4.7617,-4.792,-4.7149,-4.7131,-4.6746,-4.5975,-4.5975,-4.5957,-4.5938,-4.5938,-4.5498,-4.4745,-4.4745,-4.4287,-4.3567,-4.3886,-4.402,-4.4073,-4.4818,-4.4786,-4.4327,-4.4335,-4.3835,-4.3143,-4.0096,-4.0096,-4.0096,-4.0096,-4.0096,-4.0096,-4.0096,-4.0096,-4.0096,-4.0096,-4.0096,-4.0096,-4.0096,-4.0096,-4.0096,-4.0096,-4.0096,-4.002,-3.9782,-4.0745,-4.1933,-4.3263,-4.3903,-4.4064,-4.3667,-4.4281,-4.4281,-4.3651,-4.4281,-4.4615,-4.4615,-4.4615,-4.4615,-4.4615,-4.4615,-4.4615,-4.4615,-4.4615,-4.4615,-4.4615,-4.4615,-4.4479,-4.4265,0.0,0.0,0.0,0.0,0.0,0.0,0.0,0.0,0.0,0.0,0.0,0.0,0.0,0.0,0.0,0.0,0.0,0.0,0.0,0.0,0.0,0.0,0.0,0.0,0.0,0.0,0.0,0.0,0.0,0.0,0.0,-4.4615,-4.453,-4.4282,-4.4479,-4.4615,-4.4615,-4.4615,-4.4615,-4.4615,-4.4615,-4.4615,-4.4615,-4.4615,-4.4615,-4.4615,-4.532,-4.594,-4.6383,-4.7216,-4.7747,-4.7957,-4.7957,-4.7865,-4.7645,-4.7645,-4.7333,-4.6764,-4.6764,-4.6342,-4.5571,-4.5571,-4.5112,-4.4378,-4.4464,-4.4309,-4.4073,-4.4818,-4.5006,-4.4908,-4.5139,-4.4701,-4.397,-4.0096,-4.0096,-4.0096,-4.0096,-4.0096,-4.0096,-4.0096,-4.0096,-4.0096,-4.0096,-4.0096,-4.0096,-4.0096,-4.0096,-4.0096,-4.0096,-4.0096,-4.0096,-4.0096,-4.1474,-4.2827,-4.3997,-4.4064,-4.4006,-4.3844,-4.3977,-4.3977,-4.3844,-4.4355,-4.4615,-4.4615,-4.4615,-4.4615,-4.4615,-4.4615,-4.4615,-4.4615,-4.4615,-4.4615,-4.4615,-4.4615,-4.4615,-4.4615,-4.4615,-4.4327,-4.391,-4.391,-4.3623,-4.3278,-4.3278,0.0,0.0,0.0,0.0,0.0,0.0,0.0,0.0,0.0,0.0,0.0,0.0,0.0,0.0,0.0,0.0,0.0,0.0,0.0,0.0,0.0,0.0,0.0,0.0,-4.4615,-4.4615,-4.4615,-4.4615,-4.4615,-4.4615,-4.4615,-4.4615,-4.4615,-4.4615,-4.4615,-4.4615,-4.4615,-4.4615,-4.4615,-4.5152,-4.5673,-4.6014,-4.691,-4.7572,-4.7917,-4.8172,-4.8306,-4.8306,-4.8306,-4.8067,-4.759,-4.759,-4.7149,-4.6416,-4.6416,-4.5957,-4.5204,-4.5204,-4.505,-4.4798,0.0,0.0,0.0,0.0,-4.5287,-4.4836,-4.0096,-4.0096,-4.0096,-4.0096,-4.0096,-4.0096,-4.0096,-4.0096,-4.0096,-4.0096,-4.0096,-4.0096,-4.0096,-4.0096,-4.0096,-4.0096,-4.0096,-4.018,-4.035,-4.1585,-4.2629,-4.3406,-4.3443,-4.3756,-4.4457,-4.3785,-4.3785,-4.444,-4.4542,-4.4615,-4.4615,-4.4615,-4.4615,-4.4615,-4.4615,-4.4615,-4.4615,-4.4615,-4.4615,-4.4615,-4.4615,-4.4615,-4.4615,-4.4615,-4.4615,-4.4615,-4.4615,-4.4615,-4.4615,-4.4615,0.0,0.0,0.0,0.0,0.0,0.0,0.0,0.0,0.0,0.0,0.0,0.0,0.0,0.0,0.0,0.0,0.0,0.0,0.0,0.0,0.0,0.0,0.0,0.0,-4.4615,-4.4615,-4.4615,-4.4615,-4.4615,-4.4615,-4.4615,-4.4615,-4.4615,-4.4615,-4.4615,-4.4615,-4.4615,-4.4615,-4.4615,-4.5115,0.0,0.0,0.0,-4.7237,-4.7406,-4.7937,-4.823,-4.8306,-4.8306,-4.8306,-4.8306,-4.8306,-4.7901,-4.7241,-4.7241,-4.6764,-4.6049,-4.6049,-4.5975,-4.5791,-4.4607,-4.456,-4.5208,-4.541,-4.5513,-4.5531,-4.0096,-4.0096,-4.0096,-4.0096,-4.0096,-4.0096,-4.0096,-4.0096,-4.0096,-4.0096,-4.0096,-4.0096,-4.0096,-4.0096,-4.0096,-4.0096,-4.0096,-4.0603,-4.1805,-4.2134,-4.2909,-4.4288,-4.4355,-4.4093,-4.3562,-4.408,-4.4093,-4.3562,-4.4253,-4.4615,-4.4615,-4.4615,-4.4615,-4.4615,-4.4615,-4.4615,-4.4615,-4.4615,-4.4615,-4.4615,-4.4615,-4.4615,-4.4615,-4.4615,-4.4615,-4.4615,-4.4615,-4.4615,-4.4615,-4.4615,-4.4615,-4.4615,-4.4615,-4.4615,0.0,0.0,0.0,0.0,0.0,0.0,0.0,0.0,0.0,0.0,0.0,0.0,0.0,0.0,0.0,0.0,0.0,0.0,0.0,-4.4615,-4.4615,-4.4615,-4.4615,-4.4615,-4.4615,-4.4615,-4.4615,-4.4615,-4.4615,-4.4615,-4.4615,-4.4615,-4.4615,-4.4615,-4.4615,-4.472,-4.4998,-4.5468,-4.5732,-4.6353,-4.7385,-4.753,-4.7818,-4.8306,-4.8306,0.0,-4.8306,-4.8306,-4.8233,-4.8086,-4.8086,-4.7608,-4.6856,-4.6856,-4.6489,-4.5846,-4.522,-4.5255,-4.5596,-4.5022,-4.4966,-4.5201,-3.8941,-3.9558,-3.9978,-3.9584,-3.9833,-4.0096,-4.0096,-4.0096,-4.0096,-4.0096,-4.0096,-4.0096,-4.0096,-4.0096,-4.0096,-4.0096,-4.0096,-4.057,-4.1677,-4.21,-4.2811,-4.3944,-4.3966,-4.3948,-4.3948,-4.3948,-4.3948,-4.3948,-4.4384,-4.4615,-4.4615,-4.4615,-4.4615,-4.4615,-4.4615,-4.4615,-4.4615,-4.4615,-4.4615,-4.4615,-4.4615,-4.4615,-4.4615,-4.4615,-4.4615,-4.4615,-4.4615,-4.4615,-4.4615,-4.4615,-4.4615,-4.4615,-4.4615,-4.4615,-4.4615,0.0,0.0,0.0,0.0,0.0,0.0,0.0,0.0,0.0,0.0,0.0,0.0,0.0,0.0,-4.4615,-4.4615,0.0,-4.4615,-4.4615,-4.4615,-4.4615,-4.4615,-4.4615,-4.4615,-4.4615,-4.4615,-4.4615,-4.4615,-4.4615,-4.4615,-4.4615,-4.4615,-4.4615,-4.4615,-4.4615,-4.4748,-4.5052,-4.5346,-4.5808,-4.6448,-4.6751,-4.7216,-4.7856,-4.7856,-4.8015,-4.8306,-4.8306,-4.8306,-4.8306,-4.8306,-4.8086,-4.77,-4.77,-4.7462,-4.704,-4.6392,-4.6136,-4.6075,-4.588,-4.5653,-4.5462,-3.7793,-3.8914,-3.9662,-3.9016,-3.9584,-4.0096,-4.0096,-4.0096,-4.0096,-4.0096,-4.0096,-4.0096,-4.0096,-4.0096,-4.0096,-4.0096,-4.0096,-4.0417,-4.1153,-4.188,-4.2625,-4.3358,-4.3501,-4.3873,-4.457,-4.3902,-4.3919,-4.4615,-4.4615,-4.4615,-4.4615,-4.4615,-4.4615,-4.4615,-4.4615,-4.4615,-4.4615,-4.4615,-4.4615,-4.4615,-4.4615,-4.4615,-4.4615,-4.4615,-4.4615,-4.4615,-4.4615,-4.4615,-4.4615,-4.4615,-4.4615,-4.4615,-4.4615,-4.4615,-4.4615,-4.4615,-4.4615,0.0,0.0,0.0,0.0,0.0,0.0,0.0,0.0,-4.4615,-4.4615,-4.4615,-4.4615,-4.4615,-4.4615,-4.4615,-4.4615,-4.4615,-4.4615,-4.4615,-4.4615,-4.4615,-4.4615,-4.4615,-4.4615,-4.4615,-4.4615,-4.4615,-4.4615,-4.4615,-4.4615,-4.4615,-4.4615,-4.4615,-4.4615,-4.4615,-4.5062,-4.5381,-4.5511,-4.5989,-4.6548,-4.7216,-4.7342,-4.7656,-4.8132,-4.8248,-4.8306,-4.8306,-4.8306,-4.8306,-4.8306,-4.8306,-4.8306,-4.8251,-4.759,-4.7094,-4.6773,-4.6772,-4.6425,-4.5919,-3.7793,-3.8486,-3.9005,-3.8908,-3.9584,-4.0096,-4.0096,-4.0096,-4.0096,-4.0096,-4.0096,-4.0096,-4.0096,-4.0096,-4.0096,-4.0096,-4.0096,-4.0417,-4.1153,-4.188,-4.2625,-4.3358,-4.4063,-4.4514,-4.4615,-4.4514,-4.4514,-4.4615,-4.4615,-4.4615,-4.4615,-4.4615,-4.4615,-4.4615,-4.4615,-4.4615,-4.4615,-4.4615,-4.4615,-4.4615,-4.4615,-4.4615,-4.4615,-4.4615,-4.4615,-4.4615,-4.4615,-4.4615,-4.4615,-4.4615,-4.4615,-4.4615,-4.4615,-4.4615,-4.4615,-4.4615,-4.4615,-4.4615,-4.4615,-4.4615,-4.4615,-4.4615,-4.4615,-4.4615,0.0,-4.4615,-4.4615,-4.4615,-4.4615,-4.4615,-4.4615,-4.4615,-4.4615,-4.4615,-4.4615,-4.4615,-4.4615,-4.4615,-4.4615,-4.4615,-4.4615,-4.4615,-4.4615,-4.4615,-4.4615,-4.4615,-4.4615,-4.4615,-4.4615,-4.4615,-4.4615,-4.4615,-4.4682,-4.4944,-4.5494,-4.5571,-4.5908,-4.6524,-4.7128,-4.7446,-4.753,-4.8055,-4.8306,-4.8306,-4.8306,-4.8306,-4.8306,-4.8306,-4.8306,-4.8306,-4.8214,-4.8123,-4.7923,-4.6525,-4.6141,-4.6323,-3.701,-3.7732,-3.8386,-3.8827,-3.9584,-4.0096,-4.0096,-4.0096,-4.0096,-4.0096,-4.0096,-4.0096,-4.0096,-4.0096,-4.0096,-4.0096,-4.0096,-4.0231,-4.0527,-4.1644,-4.2439,-4.2743,-4.3927,-4.4615,-4.4615,-4.4615,-4.4615,-4.4615,-4.4615,-4.4615,-4.4615,-4.4615,-4.4615,-4.4615,-4.4615,-4.4615,-4.4615,-4.4615,-4.4615,-4.4615,-4.4615,-4.4615,-4.4615,-4.4615,-4.4615,-4.4615,-4.4615,-4.4615,0.0,-4.4615,-4.4615,-4.4615,-4.4615,-4.4615,-4.4615,-4.4615,-4.4615,-4.4615,-4.4615,-4.4615,-4.4615,-4.4615,-4.4615,-4.4615,-4.4615,-4.4615,-4.4615,-4.4615,-4.4615,-4.4615,-4.4615,-4.4615,-4.475,-4.5162,-4.5229,-4.5382,-4.5833,-4.5872,-4.5872,-4.5872,-4.5483,-4.506,-4.4649,-4.4615,-4.4615,-4.4615,-4.4615,-4.4615,-4.4615,-4.4615,-4.4615,-4.4615,-4.501,-4.5354,-4.561,-4.6037,-4.6566,-4.7142,-4.7448,-4.7986,-4.8756,-4.8992,-4.9086,-4.9058,-4.9058,-4.8765,-4.8306,-4.8306,-4.8306,-4.8306,-4.8306,-4.8306,-4.8233,-4.7553,-4.7095,-4.6815,-3.6477,-3.7054,-3.7703,-3.8469,-3.9076,-3.9601,-4.0045,-3.9901,-3.985,-4.007,-4.0096,-4.0096,-4.0096,-4.0096,-4.0096,-4.0096,-4.0096,-4.0096,-4.0096,-4.1271,-4.2083,-4.2286,-4.3555,-4.435,-4.4615,-4.4615,-4.4615,-4.4615,-4.4615,-4.4615,-4.4615,-4.4615,-4.4615,-4.4615,-4.4615,-4.4615,-4.4615,-4.4615,-4.4615,-4.4615,-4.4615,-4.4615,-4.4615,-4.4615,-4.4615,-4.4615,-4.4615,-4.4615,-4.4615,-4.4615,-4.4615,-4.4615,-4.4615,-4.4615,-4.4615,-4.4615,-4.4615,-4.4615,-4.4615,-4.4615,-4.4615,-4.4615,-4.4615,-4.4615,-4.4615,-4.4615,-4.4615,-4.4615,-4.4615,-4.4666,-4.4886,-4.4919,-4.5128,-4.5872,-4.6007,-4.6194,-4.6718,-4.6786,-4.6786,-4.6786,-4.6329,-4.5788,-4.5275,-4.4852,-4.4615,-4.4615,-4.4615,-4.4615,-4.4615,-4.4801,-4.4919,-4.4919,-4.5618,-4.6007,-4.6007,-4.6532,-4.7014,-4.744,-4.7617,-4.8311,-4.9457,-4.9834,-4.9989,-4.9941,-4.9941,-4.9572,-4.8967,-4.8746,-4.8655,-4.8636,-4.8398,-4.8306,-4.8306,-4.8306,-4.792,-4.7424,-3.6477,-3.66,-3.6873,-3.769,-3.7835,-3.8374,-3.9876,-3.9437,-3.9236,-3.9995,-4.0096,-4.0096,-4.0096,-4.0096,-4.0096,-4.0096,-4.0096,-4.0096,-4.0096,-4.0798,-4.1542,-4.2252,-4.3031,-4.3809,-4.4581,-4.4615,-4.4615,-4.4615,-4.4615,-4.4615,-4.4615,-4.4615,-4.4615,-4.4615,-4.4615,-4.4615,-4.4615,-4.4615,-4.4615,-4.4615,-4.4615,-4.4615,-4.4615,-4.4615,-4.4615,-4.4615,-4.4615,-4.4615,-4.4615,-4.4615,-4.4615,-4.4615,-4.4615,-4.4615,-4.4615,-4.4615,-4.4615,-4.4615,-4.4615,-4.4615,-4.4615,-4.4615,-4.4615,-4.4615,-4.4615,-4.4615,-4.4615,-4.4615,-4.4615,-4.4835,-4.5534,-4.5669,-4.5906,-4.665,-4.6752,-4.6769,-4.6786,-4.6786,-4.6786,-4.6786,-4.6769,-4.6752,-4.6735,-4.5461,-4.4615,-4.4615,-4.4615,-4.4615,-4.4615,-4.528,-4.5669,-4.5669,-4.638,-4.6752,-4.6752,-4.6786,-4.6815,-4.6844,-4.743,-4.8094,-4.8884,-5.017,-5.0763,-5.0765,-5.0765,-5.0747,-5.0655,-4.9886,-4.9555,-4.9482,-4.8636,-4.8306,-4.8306,-4.8306,-4.8288,-4.8269,-3.6477,-3.6615,-3.6843,-3.7661,-3.7368,-3.7352,-3.8402,-3.8761,-3.9193,-3.9978,-4.0096,0.0,0.0,0.0,0.0,0.0,-4.0096,-4.0096,-4.0096,-4.0781,-4.1322,-4.1559,-4.276,-4.3538,-4.3809,-4.4344,-4.4615,-4.4615,-4.4615,-4.4615,-4.4615,-4.4615,-4.4615,-4.4615,-4.4615,-4.4615,-4.4615,-4.4615,-4.4615,-4.4615,-4.4615,-4.4615,-4.4615,-4.4615,-4.4615,-4.4615,0.0,-4.4615,-4.4615,-4.4615,-4.4615,-4.4615,-4.4615,-4.4615,-4.4615,-4.4615,-4.4615,-4.4615,-4.4615,-4.4615,-4.4615,-4.4615,-4.4615,-4.4615,-4.4615,-4.4615,-4.475,-4.5229,-4.5331,-4.5551,-4.6295,-4.643,-4.6667,-4.7411,-4.753,-4.7716,-4.8189,-4.8257,-4.8257,-4.8257,-4.7834,-4.753,-4.753,-4.621,-4.5331,-4.5331,-4.5331,-4.5331,-4.5331,-4.6024,-4.643,-4.643,-4.7158,-4.753,-4.753,-4.802,-4.8257,-4.8257,-4.8908,-4.9594,-5.0358,-5.1249,-5.1635,-5.1591,-5.1591,-5.1279,-5.0784,-5.0508,-5.0068,-4.9574,-4.928,-4.8802,-4.8306,-4.8306,-4.8306,-4.8306,0.0,-3.6196,-3.6368,-3.689,-3.6554,0.0,0.0,0.0,0.0,0.0,0.0,0.0,0.0,0.0,0.0,0.0,0.0,-4.0096,-4.0096,-4.0527,-4.0916,-4.1187,-4.2117,-4.2851,-4.3375,-4.391,-4.4299,-4.4615,-4.4615,-4.4615,-4.4615,-4.4615,-4.4615,-4.4615,-4.4615,-4.4615,-4.4615,-4.4615,-4.4615,-4.4615,-4.4615,-4.4615,-4.4615,-4.4615,-4.4615,0.0,-4.4615,-4.4615,-4.4615,-4.4615,-4.4615,-4.4615,-4.4615,-4.4615,-4.4615,-4.4615,-4.4615,-4.4615,-4.4615,-4.4615,-4.4615,-4.4615,-4.4615,-4.4615,-4.4615,-4.4615,-4.4818,-4.5551,-4.5703,-4.6007,-4.7005,-4.7192,-4.7445,-4.8189,-4.8308,-4.8477,-4.8934,-4.9001,-4.9001,-4.9001,-4.8595,-4.8308,-4.8308,-4.6972,-4.5974,-4.572,-4.5703,-4.5703,-4.5703,-4.665,-4.7192,-4.7192,-4.7919,-4.8308,-4.8308,-4.8765,-4.9001,-4.9001,-4.9664,-5.0241,-5.0743,-5.1667,-5.2086,-5.2047,-5.2315,-5.2142,-5.1646,-5.1353,-5.0912,-5.0437,-5.0123,-4.9499,-4.8728,-4.8765,-4.8563,-4.8306,0.0,0.0,-3.5504,0.0,0.0,0.0,0.0,0.0,0.0,0.0,0.0,0.0,0.0,0.0,0.0,0.0,0.0,0.0,-4.0096,-4.0096,-4.0417,-4.1119,-4.1187,-4.1863,-4.3257,-4.3358,-4.3775,-4.4547,-4.4581,-4.4615,-4.4615,-4.4615,-4.4615,-4.4615,-4.4615,-4.4615,-4.4615,-4.4615,-4.4615,-4.4615,-4.4615,-4.4615,-4.4615,-4.4615,-4.4615,-4.4615,-4.4615,-4.4615,-4.4615,-4.4615,-4.4615,-4.4615,-4.4615,-4.4615,-4.4615,-4.4615,-4.4615,-4.4615,-4.4615,-4.4615,-4.4615,-4.4615,-4.4615,-4.4615,-4.4615,-4.4632,-4.4886,-4.5602,-4.5788,-4.6261,-4.7669,-4.7939,-4.8176,-4.89,-4.9001,-4.9001,-4.9001,-4.9001,-4.9001,-4.9001,-4.9001,-4.9001,-4.9001,-4.7665,-4.6532,-4.5872,-4.5788,-4.5771,-4.5821,-4.7192,-4.7939,-4.7939,-4.8646,-4.9001,-4.9001,-4.9001,-4.9001,-4.9001,-4.9634,-4.9976,-5.0061,-5.1376,-5.2,-5.2089,-5.2813,-5.3124,-5.3091,-5.2341,-5.2032,-5.1903,-5.1151,-5.0325,-4.9572,-4.9647,-4.9095,-4.8379,0.0,0.0,0.0,0.0,0.0,0.0,0.0,0.0,0.0,0.0,0.0,0.0,0.0,0.0,0.0,0.0,0.0,0.0,-4.0096,-4.0096,-4.018,-4.0383,-4.0899,-4.139,-4.1762,-4.2834,-4.3494,-4.3724,-4.4327,-4.4615,-4.4615,-4.4615,-4.4615,-4.4615,-4.4615,-4.4615,-4.4615,-4.4615,-4.4615,-4.4615,-4.4615,-4.4615,-4.4615,-4.4615,-4.4615,-4.4615,-4.4615,-4.4615,-4.4615,-4.4615,-4.4615,-4.4615,-4.4615,-4.4615,-4.4615,-4.4615,-4.4615,-4.4615,-4.4615,-4.4615,-4.4615,-4.4615,-4.4615,-4.4615,-4.4615,-4.501,-4.5635,-4.6363,-4.6972,-4.7601,-4.8562,-4.8731,-4.8781,-4.8968,-4.9001,-4.9001,-4.9001,-4.9001,-4.9001,-4.9001,-4.9001,-4.9001,-4.9001,-4.7665,-4.6955,-4.7297,-4.6836,-4.6769,-4.7297,-4.8223,-4.8731,-4.8731,-4.89,-4.9001,-4.9001,-4.9001,-4.9001,-4.9001,-4.9182,-4.9521,-5.0004,-5.0362,-5.085,-5.1393,-5.2065,-5.2381,-5.2404,-5.2739,-5.2546,-5.1977,-5.1756,-5.1187,-5.0472,-5.049,-4.9958,-4.928,0.0,0.0,0.0,0.0,0.0,0.0,0.0,0.0,0.0,0.0,0.0,0.0,0.0,0.0,0.0,0.0,0.0,0.0,0.0,-4.0096,-4.0096,-4.0096,-4.0519,-4.0865,-4.1204,-4.2016,-4.2608,-4.2929,-4.369,-4.4062,-4.4079,-4.4418,-4.4615,-4.4615,-4.4615,-4.4615,-4.4615,-4.4615,-4.4615,0.0,0.0,-4.4615,-4.4615,-4.4615,-4.4615,-4.4615,-4.4615,-4.4615,-4.4615,-4.4615,-4.4615,-4.4615,-4.4615,-4.4615,-4.4615,-4.4615,-4.4615,-4.4615,-4.4615,-4.4615,-4.4615,-4.4615,-4.4615,-4.4682,-4.4993,-4.5399,-4.6007,-4.7056,-4.7631,-4.8139,-4.8866,-4.9001,-4.9001,-4.9001,-4.9001,-4.9001,-4.9001,-4.9001,-4.9001,-4.9001,-4.9001,-4.8883,-4.8562,-4.7767,-4.7462,-4.7855,-4.7225,-4.7124,-4.7838,-4.8612,-4.9001,-4.9001,-4.9001,-4.9001,-4.9001,-4.9001,-4.9001,-4.9001,-4.9001,-4.9212,-4.9563,-4.9879,-5.0213,-5.0662,-5.1368,-5.1832,-5.2136,-5.2554,-5.2641,-5.2527,-5.2527,-5.2032,-5.1334,-5.1334,-5.082,-5.0068,0.0,0.0,0.0,0.0,0.0,0.0,0.0,0.0,0.0,0.0,-4.0096,-4.0096,0.0,0.0,0.0,0.0,0.0,0.0,0.0,0.0,-4.0096,-4.0096,-4.0096,-4.0417,-4.1035,-4.1153,-4.1508,-4.2151,-4.2997,-4.3392,-4.3409,-4.4215,-4.4615,-4.4615,-4.4615,-4.4615,-4.4615,-4.4615,-4.4615,-4.4615,-4.4615,-4.4615,-4.4615,0.0,-4.4615,-4.4615,-4.4615,-4.4615,-4.4615,-4.4615,-4.4615,-4.4615,-4.4615,-4.4615,-4.4615,-4.4615,-4.4615,-4.4615,-4.4615,-4.4615,-4.4615,-4.4615,-4.4615,-4.4801,-4.5534,-4.5788,-4.6244,-4.7601,-4.7973,-4.8227,-4.8883,-4.9001,-4.9001,-4.9001,-4.9001,-4.9001,-4.9001,-4.9001,-4.9001,-4.9001,-4.8917,-4.8612,-4.7939,-4.7804,-4.777,-4.7889,-4.731,-4.7276,-4.799,-4.8663,-4.9001,-4.9001,-4.9001,-4.9001,-4.9001,-4.9001,-4.9001,-4.9001,-4.9001,-4.9001,-4.9032,-4.9593,-4.9879,-4.9907,-5.0635,-5.1292,-5.1814,-5.1928,-5.2399,-5.3042,-5.3042,-5.2703,-5.216,-5.216,-5.1646,-5.0857,0.0,0.0,0.0,0.0,0.0,0.0,0.0,0.0,0.0,-3.9901,-4.0096,-4.0096,0.0,0.0,0.0,0.0,0.0,0.0,0.0,0.0,0.0,-4.0096,-4.0096,-4.0163,-4.0299,-4.0882,-4.1271,-4.139,-4.2733,-4.3392,-4.3409,-4.4215,-4.4615,-4.4615,-4.4615,-4.4615,-4.4615,-4.4615,-4.4615,-4.4615,-4.4615,-4.4615,-4.4615,-4.4615,0.0,0.0,-4.4615,-4.4615,-4.4615,-4.4615,-4.4615,-4.4615,-4.4615,-4.4615,-4.4615,-4.4615,-4.4615,-4.4615,-4.4615,-4.4615,-4.4615,-4.4615,-4.4615,-4.4801,-4.5534,-4.6177,-4.6853,-4.7703,-4.8392,-4.8849,-4.8984,-4.9001,-4.9001,-4.9001,-4.9001,-4.9001,-4.9001,-4.9001,-4.9001,-4.9001,-4.8477,-4.8024,-4.7906,-4.7361,-4.7242,-4.7838,-4.78,-4.8037,-4.8781,-4.8934,-4.9001,-4.9001,-4.9001,-4.9001,-4.9001,-4.9001,-4.9001,-4.9001,-4.9001,-4.9001,-4.9001,-4.9107,-4.9182,-4.9212,-4.9907,-5.0269,-5.0417,-5.1034,-5.1685,-5.2294,-5.2294,-5.2571,-5.3004,-5.3004,-5.2491,-5.1756,0.0,0.0,0.0,0.0,0.0,0.0,-3.756,-3.7793,-3.8346,-3.9901,-4.0096,-4.0096,-4.0096,-4.0096,-4.0096,0.0,0.0,0.0,0.0,0.0,0.0,0.0,-4.0096,-4.0096,-4.0096,-4.0468,-4.0629,-4.0629,0.0,-4.2455,-4.2844,-4.3623,-4.4198,-4.4615,-4.4615,-4.4615,-4.4615,-4.4615,-4.4615,-4.4615,-4.4615,-4.4615,-4.4615,0.0,0.0,0.0,-4.4615,-4.4615,-4.4615,-4.4615,-4.4615,-4.4615,-4.4615,-4.4615,-4.4615,-4.4615,-4.4615,-4.4615,-4.4615,-4.4615,-4.4615,-4.4615,-4.4615,-4.4801,-4.5534,-4.6261,-4.7005,-4.7767,-4.8494,-4.9001,-4.9001,-4.9001,-4.9001,-4.9001,-4.9001,-4.9001,-4.9001,-4.868,-4.8443,-4.8443,-4.7784,-4.7192,-4.6802,-4.7141,-4.7361,-4.7344,-4.8054,-4.8646,-4.8984,-4.9001,-4.9001,-4.9001,-4.9001,-4.9001,-4.9001,-4.9001,-4.9001,-4.9001,-4.9001,-4.9001,-4.9001,-4.9001,-4.9001,-4.9032,-4.9329,-4.9664,-5.0033,-5.0362,-5.0955,-5.1618,-5.1952,-5.2335,-5.2662,-5.306,-5.2968,-5.2564,0.0,0.0,0.0,0.0,0.0,0.0,-3.7576,-3.7661,-3.8161,-3.9876,-3.9952,-3.9901,-4.007,-4.0096,-4.002,0.0,0.0,0.0,0.0,0.0,0.0,0.0,0.0,0.0,0.0,0.0,0.0,-4.0096,-4.0832,0.0,0.0,0.0,0.0,0.0,-4.453,-4.4615,-4.4615,-4.4615,-4.4615,0.0,0.0,-4.4615,0.0,0.0,0.0,0.0,0.0,-4.4615,-4.4615,-4.4615,-4.4615,-4.4615,-4.4615,-4.4615,-4.4615,-4.4615,-4.4615,-4.4615,-4.4615,-4.4615,-4.4615,-4.4615,-4.4615,-4.4801,-4.5534,-4.6143,-4.6769,-4.753,-4.8257,-4.8765,-4.8765,-4.89,-4.9001,-4.9001,-4.9001,-4.8951,-4.8798,-4.8291,-4.7821,-4.7699,-4.7005,-4.6346,-4.5771,-4.6904,-4.7428,-4.6836,-4.8173,-4.9001,-4.9001,-4.9001,-4.9001,-4.9001,-4.9001,-4.9001,-4.9001,-4.9001,-4.9001,-4.9001,-4.9001,-4.9001,-4.9001,-4.9001,-4.9001,-4.9001,-4.9001,-4.9316,-4.9809,-4.9809,-5.0213,-5.0929,-5.1426,-5.1741,-5.197,-5.2549,-5.2831,-5.2867,0.0,0.0,0.0,0.0,0.0,0.0,-3.7655,-3.7189,-3.7541,-3.9808,-3.9463,-3.9289,-4.002,-4.0096,-3.9808,0.0,0.0,0.0,0.0,0.0,0.0,0.0,0.0,0.0,0.0,0.0,0.0,-4.0096,-4.0832,0.0,0.0,0.0,0.0,0.0,0.0,-4.4615,-4.4615,-4.4615,0.0,0.0,0.0,0.0,0.0,0.0,0.0,0.0,0.0,-4.4615,-4.4615,-4.4615,-4.4615,-4.4615,-4.4615,-4.4615,-4.4615,-4.4615,-4.4615,-4.4615,-4.4615,-4.4615,-4.4615,-4.4615,-4.4615,-4.4801,-4.5534,-4.5754,-4.6007,-4.6752,-4.7496,-4.799,-4.799,-4.8562,-4.9001,-4.9001,-4.9001,-4.8781,-4.8091,-4.7922,-4.7665,-4.6972,-4.6244,-4.5771,-4.572,-4.643,-4.687,-4.6802,-4.8173,-4.9001,-4.9001,-4.9001,-4.9001,-4.9001,-4.9001,-4.9001,-4.9001,-4.9001,-4.9001,-4.9001,-4.9001,-4.9001,-4.9001,-4.9001,-4.9001,-4.9001,-4.9001,-4.9015,-4.9077,-4.9077,-4.9492,-5.0118,-5.0157,-5.0608,-5.1189,-5.1284,-5.1685,-5.2183,0.0,0.0,0.0,0.0,0.0,0.0,-3.7545,-3.7047,-3.7277,-3.9139,-3.9113,-3.9032,-3.9342,-3.9368,-3.9262,-3.8935,-3.9636,0.0,0.0,0.0,0.0,0.0,0.0,0.0,0.0,0.0,-4.0096,-4.0096,-4.0375,0.0,0.0,0.0,0.0,0.0,0.0,-4.4147,-4.4615,-4.4615,0.0,0.0,0.0,0.0,0.0,0.0,0.0,0.0,0.0,0.0,-4.4615,-4.4615,-4.4615,-4.4615,-4.4615,-4.4615,-4.4615,-4.4615,-4.4615,-4.4615,-4.4615,-4.4615,-4.4615,-4.4615,-4.4615,-4.4682,-4.4959,-4.5382,-4.5788,-4.6075,-4.6718,-4.7242,-4.7242,-4.7479,-4.7682,-4.7682,-4.7682,-4.7564,-4.7276,-4.687,-4.6481,-4.6177,-4.5483,-4.5026,-4.5026,-4.6109,-4.7158,-4.8054,-4.8663,-4.9001,-4.9001,-4.9001,-4.9001,-4.9001,-4.9001,-4.9001,-4.9001,-4.9001,-4.9001,-4.9001,-4.9001,-4.9001,-4.9001,-4.9001,-4.9001,-4.9001,-4.9001,-4.9001,-4.9001,-4.9001,-4.9152,-4.9449,-4.985,-5.0185,-5.05,-5.0929,-5.1266,-5.1494,0.0,0.0,0.0,0.0,0.0,-3.7183,-3.7541,-3.7016,-3.7047,-3.8402,-3.858,-3.858,-3.858,-3.8772,-3.8701,-3.8241,-3.9139,0.0,0.0,0.0,0.0,0.0,0.0,0.0,0.0,0.0,-4.0096,-4.0096,-4.0096,-4.0383,0.0,0.0,-4.188,-4.3098,0.0,0.0,0.0,0.0,0.0,0.0,0.0,0.0,0.0,0.0,0.0,0.0,0.0,0.0,0.0,0.0,0.0,-4.4615,-4.4615,-4.4615,-4.4615,-4.4615,-4.4615,-4.4615,-4.4615,-4.4615,-4.4615,-4.4615,-4.4615,-4.4615,-4.4615,-4.4993,-4.5365,-4.5365,-4.5957,-4.6464,-4.6464,-4.665,-4.6786,-4.6786,-4.6786,-4.6718,-4.6498,-4.6024,-4.5618,-4.5399,-4.4936,-4.4615,-4.4615,-4.5923,-4.731,-4.8595,-4.8883,-4.9001,-4.9001,-4.9001,-4.9001,-4.9001,-4.9001,-4.9001,-4.9001,-4.9001,-4.9001,-4.9001,-4.9001,-4.9001,-4.9001,-4.9001,-4.9001,-4.9001,-4.9001,-4.9001,-4.9001,-4.9001,-4.9001,-4.9063,-4.9521,-4.9693,-4.978,-5.0286,-5.0608,-5.077,0.0,0.0,0.0,0.0,0.0,-3.8209,-3.768,-3.6962,-3.6814,-3.7698,-3.7806,-3.7806,-3.7806,-3.8469,-3.8286,-3.6752,-3.8015,0.0,0.0,0.0,0.0,0.0,0.0,0.0,-4.0096,-4.0096,-4.0096,-4.0096,-4.0096,-4.0096,-4.013,-4.0849,-4.1593,-4.2337,0.0,0.0,0.0,0.0,-4.4093,0.0,0.0,0.0,-4.3396,0.0,0.0,0.0,0.0,0.0,0.0,0.0,0.0,0.0,0.0,-4.4615,-4.4615,-4.4615,-4.4615,-4.4615,-4.4615,-4.4615,-4.4615,-4.4615,-4.4615,-4.4615,-4.4615,-4.4615,-4.4615,-4.4615,-4.5196,-4.572,-4.572,-4.6312,-4.6786,-4.6786,-4.6786,-4.6549,-4.5821,-4.5703,-4.5432,-4.4699,-4.4615,-4.4615,-4.4615,-4.5923,-4.7107,-4.7838,-4.8595,-4.9001,-4.9001,-4.9001,-4.9001,-4.9001,-4.9001,-4.9001,-4.9001,-4.9001,-4.9001,-4.9001,-4.9001,-4.9001,-4.9001,-4.9001,-4.9001,-4.9001,-4.9001,-4.9001,-4.9001,-4.9001,-4.9001,-4.9001,-4.9001,-4.9001,-4.9001,-4.9032,-4.9432,-5.0004,0.0,0.0,0.0,0.0,0.0,0.0,-3.8171,-3.7545,-3.7237,-3.7608,-3.7668,-3.7496,-3.7027,-3.7188,-3.6934,-3.5911,-3.7249,0.0,0.0,0.0,0.0,-3.8161,-3.887,-3.9032,-3.8557,-3.8513,-3.8513,-3.8513,-3.9032,-3.9005,-3.8557,-3.9835,-4.0834,-4.1544,-4.1704,-4.2311,0.0,-4.3591,-4.3562,-4.3336,0.0,-4.3562,-4.3413,0.0,0.0,0.0,0.0,0.0,0.0,0.0,0.0,0.0,0.0,0.0,0.0,-4.4615,-4.4615,-4.4615,-4.4615,-4.4615,-4.4615,-4.4615,-4.4615,-4.4615,-4.4615,-4.4615,-4.4615,-4.4615,-4.4801,-4.4942,-4.4942,-4.5128,-4.5309,-4.5309,-4.5309,-4.5196,-4.4976,-4.4942,-4.484,-4.4632,-4.4615,-4.4818,-4.5297,-4.6227,-4.7107,-4.7821,-4.8595,-4.8719,-4.808,-4.8656,-4.9001,-4.9001,-4.9001,-4.9001,-4.9001,-4.9001,-4.9001,-4.9001,-4.9001,-4.9001,-4.9001,-4.9001,-4.9001,-4.9001,-4.9001,-4.9001,-4.9001,-4.9001,-4.9001,-4.9001,-4.9001,-4.9001,-4.9001,-4.9001,-4.9121,-4.9316,0.0,0.0,0.0,0.0,0.0,0.0,-3.8422,-3.8048,-3.7729,-3.7552,-3.7801,-3.7619,-3.6687,-3.6831,-3.6582,-3.5584,-3.6368,0.0,0.0,0.0,0.0,-3.7397,-3.8076,-3.8274,-3.7806,-3.7793,-3.7793,-3.7793,-3.8246,-3.8246,-3.7822,-3.8778,-3.9743,-4.0723,-4.0619,-4.1221,0.0,-4.2332,-4.2332,-4.2395,-4.3047,-4.2925,-4.2458,0.0,0.0,0.0,0.0,0.0,0.0,0.0,0.0,0.0,0.0,0.0,0.0,0.0,-4.4355,-4.4615,-4.4615,-4.4615,-4.4615,-4.4615,-4.4615,-4.4615,-4.4615,-4.4615,-4.4615,-4.4615,-4.4615,-4.4615,-4.4615,-4.4615,-4.4485,-4.4167,-4.4384,-4.4485,-4.4167,-4.4384,-4.4485,-4.4167,-4.4109,-4.4277,-4.4746,-4.5714,-4.6639,-4.7432,-4.8426,-4.8576,-4.7655,-4.8144,-4.8465,-4.8465,-4.8829,-4.9001,-4.9001,-4.9001,-4.9001,-4.9001,-4.9001,-4.9001,-4.9001,-4.9001,-4.9001,-4.9001,-4.9001,-4.9001,0.0,-4.9001,-4.9001,-4.9001,-4.9001,-4.9001,-4.9001,-4.9001,-4.9001,-4.9001,0.0,0.0,0.0,0.0,0.0,0.0,-3.8556,-3.8467,-3.8227,-3.7569,-3.8111,-3.8065,-3.6712,-3.7185,-3.7071,-3.5749,-3.5609,0.0,0.0,-3.6921,-3.7368,-3.6554,-3.7279,-3.769,-3.7648,-3.7648,-3.7648,-3.7648,-3.769,-3.7706,-3.7648,-3.7764,-3.8528,-3.9825,-3.9825,-4.0134,-4.069,-4.0622,-4.0656,-4.0844,-4.2458,-4.2157,0.0,0.0,0.0,0.0,0.0,0.0,0.0,0.0,0.0,0.0,0.0,0.0,0.0,0.0,0.0,0.0,0.0,-4.4542,-4.4615,-4.4615,-4.4615,-4.4615,-4.4615,-4.4615,0.0,-4.4615,-4.4615,-4.4615,-4.4615,-4.4615,-4.4327,-4.3426,-4.3977,-4.4224,-4.3396,-4.4064,-4.4298,-4.3502,-4.3396,-4.3366,-4.3306,-4.4634,-4.5834,-4.6544,-4.7983,-4.8415,-4.744,-4.744,-4.7523,-4.7523,-4.837,-4.8829,-4.8892,-4.897,-4.897,-4.8892,-4.897,-4.9001,-4.9001,-4.9001,-4.9001,-4.9001,-4.9001,-4.9001,-4.9001,-4.9001,-4.9001,-4.9001,-4.9001,-4.9001,-4.9001,-4.9001,-4.9001,-4.9001,0.0,0.0,0.0,0.0,0.0,0.0,0.0,0.0,0.0,0.0,-3.8327,-3.814,-3.7289,-3.7335,-3.7293,0.0,0.0,0.0,0.0,-3.666,-3.6554,-3.5782,-3.6492,-3.6631,-3.6053,-3.6053,-3.6053,-3.6053,-3.66,-3.66,-3.6053,-3.7235,-3.8231,-3.8998,-3.8918,-3.9584,-4.0656,-3.999,-4.008,-4.0758,-4.1147,-4.108,0.0,0.0,0.0,0.0,-4.1997,-4.1739,0.0,0.0,0.0,0.0,0.0,0.0,0.0,0.0,-4.2909,-4.3621,-4.3621,0.0,-4.4615,-4.4615,-4.4615,-4.4615,0.0,-4.4615,-4.4615,-4.4615,-4.4615,-4.4615,-4.4615,-4.4615,-4.4327,-4.3426,-4.3472,-4.3532,-4.3336,-4.4064,-4.4514,-4.4327,-4.4281,-4.4035,-4.3366,-4.4736,-4.5396,-4.4773,-4.6207,-4.6616,-4.5509,-4.6154,-4.6523,-4.6523,-4.673,-4.7205,-4.7901,-4.8639,-4.8639,-4.795,-4.8656,-4.9001,-4.9001,-4.9001,-4.9001,-4.9001,-4.9001,-4.9001,-4.9001,-4.9001,-4.9001,-4.9001,-4.9001,-4.9001,-4.9001,-4.9001,-4.9001,-4.9001,0.0,0.0,0.0,0.0,0.0,0.0,0.0,0.0,0.0,0.0,-3.8856,-3.8601,-3.7928,-3.7853,-3.7734,0.0,0.0,0.0,-3.6911,-3.6953,-3.6548,-3.5519,-3.5894,-3.5926,-3.5504,-3.5504,-3.5504,-3.5504,-3.5894,-3.5894,-3.5504,-3.6659,-3.7526,-3.8116,-3.8705,-3.9242,-3.9623,-3.9474,-3.9666,-4.015,-4.0535,0.0,0.0,0.0,0.0,0.0,-4.108,-4.086,0.0,-4.2141,-4.2125,-4.1478,0.0,0.0,0.0,0.0,-4.2029,-4.2785,-4.3169,-4.3651,-4.4093,-4.4514,-4.4615,-4.4615,-4.4615,-4.4281,-4.4138,-4.4514,-4.4281,-4.4138,-4.4514,-4.4253,-4.371,-4.2847,-4.3047,-4.3306,-4.3306,-4.3726,-4.371,-4.2923,-4.2814,-4.2629,-4.2157,-4.3184,-4.3831,-4.3648,-4.5045,-4.5447,-4.4412,-4.5112,-4.5561,-4.5561,-4.5561,-4.6224,-4.7589,-4.8112,-4.8112,-4.7622,-4.8545,-4.9001,-4.9001,-4.9001,-4.9001,-4.9001,-4.9001,-4.9001,-4.9001,-4.9001,-4.9001,-4.9001,-4.9001,-4.9001,-4.9001,-4.9001,-4.9001,-4.9001,0.0,0.0,0.0,0.0,0.0,0.0,0.0,0.0,0.0,0.0,0.0,0.0,0.0,0.0,0.0,0.0,0.0,0.0,-3.7554,-3.7464,-3.6926,-3.5848,-3.5714,-3.5654,-3.5654,-3.5549,-3.5504,-3.5504,-3.5504,-3.5549,-3.5669,-3.6222,-3.6866,-3.7614,-3.8871,-3.9095,-3.8586,-3.917,-3.9388,-3.9445,-4.0205,0.0,0.0,0.0,0.0,0.0,0.0,0.0,0.0,-4.1262,-4.1213,-4.0535,-4.0656,0.0,0.0,0.0,0.0,0.0,-4.2707,-4.3017,-4.3336,-4.4355,-4.4514,-4.4412,-4.4412,-4.3814,-4.3472,-4.4093,-4.3844,-4.3651,-4.4121,-4.371,-4.2986,-4.1965,-4.2426,-4.2909,-4.2909,-4.3017,-4.2552,-4.108,-4.0878,-4.086,-4.0709,-4.1389,-4.2071,-4.2641,-4.3938,-4.4306,-4.3494,-4.4062,-4.4507,-4.4642,-4.4615,-4.5395,-4.7172,-4.7306,-4.7389,-4.7406,-4.8338,-4.8861,-4.9001,-4.9001,-4.9001,-4.9001,-4.9001,0.0,-4.9001,-4.9001,-4.9001,-4.9001,-4.9001,-4.9001,-4.9001,-4.9001,-4.9001,-4.9001,0.0,0.0,0.0,0.0,0.0,0.0,0.0,0.0,0.0,0.0,0.0,0.0,0.0,0.0,0.0,0.0,0.0,0.0,-3.8242,-3.7719,-3.7315,-3.712,-3.6611,-3.6342,-3.6342,-3.5789,-3.5504,-3.5504,-3.5504,-3.5789,-3.6342,-3.6432,-3.7105,-3.8272,-3.9065,-3.9328,-3.9275,-3.9379,-3.9388,-3.9409,-3.9553,0.0,0.0,0.0,0.0,0.0,0.0,0.0,0.0,-4.0569,-4.0309,-3.9737,-4.0466,0.0,0.0,0.0,0.0,0.0,-4.1046,-4.1642,-4.2583,-4.4196,-4.4035,-4.3502,-4.3502,-4.3413,-4.3139,-4.2504,-4.3486,-4.3989,-4.2645,-4.2878,-4.2785,-4.118,-4.1013,-4.1113,-4.1113,-4.1739,-4.2093,-4.1836,-4.1804,-4.1511,-4.0777,-4.1474,-4.1655,-4.0876,-4.1698,-4.2104,-4.1776,-4.2401,-4.3115,-4.395,-4.3685,-4.4066,-4.5227,-4.6012,-4.6419,-4.6435,-4.7373,-4.8225,-4.9001,-4.9001,-4.9001,-4.9001,-4.9001,-4.9001,-4.9001,-4.9001,-4.9001,-4.9001,-4.9001,-4.9001,-4.9001,-4.9001,-4.9001,-4.9001,0.0,0.0,0.0,0.0,0.0,0.0,0.0,0.0,0.0,0.0,0.0,0.0,0.0,0.0,0.0,0.0,-3.9125,-3.8945,-3.8945,-3.8661,-3.8497,-3.8497,-3.7868,-3.7345,-3.6985,-3.6686,-3.6537,-3.6537,-3.6537,-3.6686,-3.6985,-3.7345,-3.7823,-3.8422,-3.911,-3.9215,-3.8886,-3.926,-3.9388,-3.9388,0.0,0.0,0.0,0.0,0.0,0.0,0.0,0.0,0.0,0.0,-3.9737,-3.9481,-3.9864,0.0,0.0,0.0,0.0,0.0,-4.0554,-4.0979,-4.1593,-4.2862,-4.3259,-4.3306,-4.3306,-4.2939,-4.2489,-4.2093,-4.2645,-4.2953,-4.2157,-4.1933,-4.1642,-4.0811,-4.069,-4.069,-4.069,-4.1046,-4.1113,-4.0638,-4.0619,-4.0447,-4.006,-4.0343,-4.0377,-3.9916,-4.0574,-4.0979,-4.0868,-4.1512,-4.2047,-4.2491,-4.2371,-4.2498,-4.2963,-4.3771,-4.4579,-4.5468,-4.6918,-4.7836,-4.8257,-4.875,-4.9001,-4.9001,0.0,-4.9001,-4.9001,-4.9001,-4.9001,-4.9001,-4.9001,-4.9001,-4.9001,-4.9001,-4.9001,-4.9001,0.0,0.0,0.0,0.0,0.0,0.0,0.0,0.0,0.0,0.0,0.0,0.0,0.0,0.0,0.0,0.0,-3.9388,-3.9388,-3.9388,-3.9388,-3.9388,-3.9388,-3.8916,-3.8317,-3.7659,-3.7479,-3.7404,-3.7404,-3.7404,-3.7479,-3.7659,-3.8317,-3.8631,-3.8661,-3.9185,-3.9125,-3.8661,-3.9185,-3.9388,-3.9388,0.0,0.0,0.0,0.0,0.0,0.0,0.0,0.0,0.0,0.0,0.0,0.0,0.0,0.0,0.0,-3.9388,-3.9388,-3.9553,-4.0205,-4.0519,-4.0844,-4.1543,-4.2189,-4.2676,-4.2676,-4.2157,-4.1642,-4.1412,-4.1707,-4.1869,-4.1478,-4.086,-4.0397,-4.0397,-4.0397,-4.0397,-4.0397,-4.0397,-4.015,-3.9481,-3.9388,-3.9388,-3.9388,-3.9388,-3.9388,-3.9388,-3.9888,-4.0172,-4.0172,-4.0786,-4.1145,-4.1145,-4.1332,-4.1422,-4.1422,-4.1916,-4.2955,-4.4601,-4.618,-4.707,-4.7306,-4.8257,-4.8688,-4.8688,-4.8892,-4.9001,-4.897,-4.875,-4.8798,-4.897,-4.8767,-4.8798,-4.9001,-4.9001,-4.9001,-4.9001,0.0,0.0,0.0,0.0,0.0,0.0,0.0,0.0,0.0,0.0,0.0,0.0,0.0,0.0,0.0,0.0,-3.9388,-3.9388,-3.9388,-3.9388,-3.9388,-3.9388,-3.9328,-3.902,-3.8332,-3.7719,-3.7404,-3.7404,-3.7404,-3.7719,-3.8332,-3.902,-3.9313,-3.9313,-3.9394,-3.9358,-3.9313,-3.9394,-3.9388,-3.9388,-3.9388,0.0,0.0,0.0,0.0,0.0,0.0,0.0,0.0,0.0,0.0,0.0,0.0,0.0,-3.9388,-3.9388,-3.9388,-3.9409,-3.9481,-4.008,-4.0724,-4.0792,-4.0844,-4.0878,-4.0878,-4.0844,-4.0569,-3.9737,-4.086,-4.1511,-3.9915,-3.9553,-3.9481,-3.9481,-3.9481,-3.9481,-3.9481,-3.9481,-3.9481,-3.9424,-3.9388,-3.9388,-3.9388,-3.9388,-3.9388,-3.9388,-3.9433,-3.9448,-3.9448,-4.0113,-4.0472,-4.0472,-4.107,-4.1422,-4.1422,-4.1467,-4.2258,-4.3872,-4.4635,-4.5468,-4.6314,-4.7273,-4.7688,-4.777,-4.8608,-4.9001,-4.894,-4.8047,-4.8225,-4.8892,-4.8047,-4.8225,-4.9001,-4.9001,-4.9001,-4.9001,0.0,0.0,0.0,0.0,0.0,0.0,0.0,0.0,0.0,0.0,0.0,0.0,0.0,0.0,0.0,0.0,-3.9388,-3.9388,-3.9388,-3.9388,-3.9388,-3.9388,-3.9388,-3.929,-3.9035,-3.8781,-3.8626,-3.8626,-3.8626,-3.8781,-3.9035,-3.929,-3.9388,-3.9388,-3.9388,-3.9388,-3.9388,-3.9388,-3.9388,-3.9388,-3.9388,-3.9388,0.0,0.0,0.0,0.0,0.0,0.0,0.0,0.0,-3.9388,-3.9388,-3.9388,-3.9388,-3.9388,-3.9388,-3.9388,-3.9388,-3.9388,-3.9646,-3.99,-3.99,-3.99,-4.001,-4.0588,-4.069,-4.0466,-3.9574,-4.0343,-4.0826,-3.961,-3.9388,-3.9388,-3.9388,-3.9388,-3.9388,-3.9388,-3.9388,-3.9388,-3.9388,-3.9388,-3.9388,-3.9388,-3.9388,-3.9388,-3.9388,-3.9388,-3.9388,-3.9388,-3.9649,-3.9783,-3.9783,-4.0023,-4.0172,-4.0172,-4.0561,-4.1099,-4.1696,-4.2946,-4.3946,-4.4719,-4.5672,-4.6326,-4.6781,-4.7737,-4.7803,-4.7273,-4.7523,-4.7489,-4.7273,-4.7523,-4.7836,-4.8193,-4.8781,-4.9001,-4.9001,0.0,0.0,0.0,0.0,0.0,0.0,0.0,0.0,0.0,0.0,0.0,0.0,0.0,0.0,0.0,0.0,-3.9388,-3.9388,-3.9388,-3.9388,-3.9388,-3.9388,-3.9388,-3.9388,-3.9388,-3.9388,-3.9388,-3.9388,-3.9388,-3.9388,-3.9388,-3.9388,-3.9388,-3.9388,-3.9388,-3.9388,-3.9388,-3.9388,-3.9388,-3.9388,-3.9388,-3.9388,0.0,0.0,0.0,0.0,0.0,0.0,0.0,0.0,-3.9388,-3.9388,-3.9388,-3.9388,-3.9388,-3.9388,-3.9388,-3.9388,-3.9388,-3.9388,-3.9388,-3.9388,-3.9388,-3.9538,-4.015,-4.0274,-4.0115,-3.9502,-3.9864,-4.0115,-3.9517,-3.9388,-3.9388,-3.9388,-3.9388,-3.9388,-3.9388,-3.9388,-3.9388,-3.9388,-3.9388,-3.9388,-3.9388,-3.9388,-3.9388,-3.9388,-3.9388,-3.9388,-3.9388,-3.9388,-3.9388,-3.9388,-3.9388,-3.9388,-3.9388,-3.9873,-4.0083,-4.0098,-4.1218,-4.2201,-4.3082,-4.4012,-4.4798,-4.5484,-4.6441,-4.6604,-4.6208,-4.6574,-4.633,-4.5834,-4.6781,-4.7172,-4.7239,-4.7868,-4.8289,-4.8513,0.0,0.0,0.0,0.0,0.0,0.0,0.0,0.0,-3.9388,-3.9388,-3.9388,0.0,0.0,0.0,0.0,0.0,-3.9388,-3.9388,-3.9388,-3.9388,-3.9388,-3.9388,-3.9388,-3.9388,-3.9388,-3.9388,-3.9388,-3.9388,-3.9388,-3.9388,-3.9388,-3.9388,-3.9388,-3.9388,-3.9388,-3.9388,-3.9388,-3.9388,-3.9388,-3.9388,-3.9388,-3.9388,-3.9388,0.0,0.0,0.0,0.0,0.0,0.0,0.0,-3.9388,-3.9388,-3.9388,-3.9388,-3.9388,-3.9388,-3.9388,-3.9388,-3.9388,-3.9388,-3.9388,-3.9388,-3.9388,-3.9388,-3.9388,-3.9388,-3.9388,-3.9388,-3.9388,-3.9388,-3.9388,-3.9388,-3.9388,-3.9388,-3.9388,-3.9388,-3.9388,-3.9388,-3.9388,-3.9388,-3.9388,-3.9388,-3.9388,-3.9388,-3.9388,-3.9388,-3.9388,-3.9388,-3.9388,-3.9388,-3.9388,-3.9388,-3.9388,-3.9388,-3.9388,-3.9388,-3.9388,-3.9388,-3.9388,-4.0113,-4.1407,-4.2354,-4.3128,-4.3852,-4.477,-4.5552,-4.6103,-4.519,-4.4774,-4.4871,-4.5834,-4.6173,-4.6173,-4.6208,-4.6781,-4.744,0.0,0.0,0.0,0.0,0.0,0.0,0.0,0.0,-3.9388,-3.9388,-3.9388,0.0,0.0,0.0,0.0,0.0,0.0,0.0,-3.9388,-3.9388,-3.9388,-3.9388,-3.9388,-3.9388,-3.9388,-3.9388,-3.9388,-3.9388,-3.9388,-3.9388,-3.9388,-3.9388,-3.9388,-3.9388,-3.9388,-3.9388,-3.9388,-3.9388,-3.9388,-3.9388,-3.9388,-3.9388,-3.9388,0.0,0.0,0.0,0.0,0.0,0.0,0.0,0.0,0.0,-3.9388,-3.9388,-3.9388,-3.9388,-3.9388,-3.9388,-3.9388,-3.9388,-3.9388,-3.9388,-3.9388,-3.9388,-3.9388,-3.9388,-3.9388,-3.9388,-3.9388,-3.9388,-3.9388,-3.9388,-3.9388,-3.9388,-3.9388,-3.9388,-3.9388,-3.9388,-3.9388,-3.9388,-3.9388,-3.9388,-3.9388,-3.9388,-3.9388,-3.9388,-3.9388,-3.9388,-3.9388,-3.9388,-3.9388,-3.9388,-3.9388,-3.9388,-3.9388,-3.9388,-3.9388,-3.9388,-3.9388,-3.9873,-4.0733,-4.0984,-4.1494,-4.2152,-4.3102,-4.3526,-4.3532,-4.3691,-4.3732,-4.3849,-4.4818,-4.5227,-4.53,-4.5941,-4.6384,-4.6574,0.0,0.0,0.0,0.0,0.0,0.0,0.0,0.0,-3.9388,-3.9388,-3.9388,-3.9388,0.0,0.0,0.0,0.0,0.0,0.0,-3.9388,-3.9388,-3.9388,-3.9388,-3.9388,-3.9388,-3.9388,-3.9388,-3.9388,-3.9388,-3.9388,-3.9388,-3.9388,-3.9388,-3.9388,-3.9388,-3.9388,-3.9388,-3.9388,-3.9388,-3.9388,-3.9388,-3.9388,-3.9388,-3.9388,0.0,0.0,0.0,0.0,0.0,0.0,0.0,0.0,0.0,-3.9388,-3.9388,-3.9388,-3.9388,-3.9388,-3.9388,-3.9388,-3.9388,-3.9388,-3.9388,-3.9388,-3.9388,-3.9388,-3.9388,-3.9388,-3.9388,-3.9388,-3.9388,-3.9388,-3.9388,-3.9388,-3.9388,-3.9388,-3.9388,-3.9388,-3.9388,-3.9388,-3.9388,-3.9388,-3.9388,-3.9388,-3.9388,-3.9388,-3.9388,-3.9388,-3.9388,-3.9388,-3.9388,-3.9388,-3.9388,-3.9388,-3.9388,-3.9388,-3.9388,-3.9388,-3.9388,-3.9388,-3.9634,-4.0008,-4.0008,-4.0367,-4.1048,-4.1876,-4.2151,-4.2066,-4.2671,-4.294,-4.301,-4.3859,-4.422,-4.4282,-4.484,-4.529,-4.5597,0.0,0.0,-3.9388,-3.9388,0.0,0.0,0.0,0.0,-3.9388,-3.9388,-3.9388,-3.9388,0.0,0.0,0.0,0.0,0.0,0.0,-3.9388,-3.9388,-3.9388,-3.9388,-3.9388,-3.9388,-3.9388,-3.9388,-3.9388,-3.9388,-3.9388,-3.9388,-3.9388,-3.9388,-3.9388,-3.9388,-3.9388,-3.9388,-3.9388,-3.9388,-3.9388,-3.9388,-3.9388,-3.9388,-3.9388,-3.9388,0.0,0.0,0.0,0.0,0.0,0.0,0.0,0.0,-3.9388,-3.9388,-3.9388,-3.9388,-3.9388,-3.9388,-3.9388,-3.9388,-3.9388,-3.9388,-3.9388,-3.9388,-3.9388,-3.9388,-3.9388,-3.9388,-3.9388,-3.9388,-3.9388,-3.9388,-3.9388,-3.9388,-3.9388,-3.9388,-3.9388,-3.9388,-3.9388,-3.9388,-3.9388,-3.9388,-3.9388,-3.9388,-3.9388,-3.9388,-3.9388,-3.9388,-3.9388,-3.9388,-3.9388,-3.9388,-3.9388,-3.9388,-3.9388,-3.9388,-3.9388,-3.9388,-3.9388,-3.9388,-3.9388,-3.9388,-3.9753,-4.0352,-4.101,-4.1294,-4.1339,-4.2036,-4.2351,-4.2455,-4.3015,-4.3245,-4.329,-4.329,-4.3888,-4.451,0.0,0.0,-3.9388,-3.9388,0.0,0.0,0.0,0.0,0.0,-3.9388,-3.9388,0.0,0.0,0.0,0.0,0.0,0.0,0.0,0.0,-3.9388,-3.9388,-3.9388,-3.9388,-3.9388,-3.9388,-3.9388,-3.9388,-3.9388,-3.9388,-3.9388,-3.9388,-3.9388,-3.9388,-3.9388,-3.9388,-3.9388,-3.9388,-3.9388,-3.9388,-3.9388,-3.9388,-3.9388,-3.9388,-3.9388,-3.9388,0.0,0.0,0.0,0.0,0.0,0.0,0.0,-3.9388,-3.9388,-3.9388,-3.9388,-3.9388,-3.9388,-3.9388,-3.9388,-3.9388,-3.9388,-3.9388,-3.9388,-3.9388,-3.9388,-3.9388,-3.9388,-3.9388,-3.9388,-3.9388,-3.9388,-3.9388,-3.9388,-3.9388,-3.9388,-3.9388,-3.9388,-3.9388,-3.9388,-3.9388,-3.9388,-3.9388,-3.9388,-3.9388,-3.9388,-3.9388,-3.9388,-3.9388,-3.9388,-3.9388,-3.9388,-3.9388,-3.9388,-3.9388,-3.9388,-3.9388,-3.9388,-3.9388,-3.9388,-3.9388,-3.9388,-3.9499,-3.9664,-4.0322,-4.0606,-4.0666,-4.1324,-4.1931,-4.241,-4.2545,-4.288,-4.329,-4.329,-4.3448,-4.3591,0.0,0.0,0.0,0.0,0.0,0.0,0.0,0.0,0.0,0.0,0.0,0.0,0.0,0.0,0.0,0.0,0.0,0.0,0.0,-3.9388,-3.9388,-3.9388,-3.9388,-3.9388,-3.9388,-3.9388,-3.9388,-3.9388,-3.9388,-3.9388,-3.9388,-3.9388,-3.9388,-3.9388,-3.9388,-3.9388,-3.9388,-3.9388,-3.9388,-3.9388,-3.9388,-3.9388,-3.9388,-3.9388,-3.9388,-3.9388,-3.9388,0.0,0.0,0.0,0.0,0.0,0.0,0.0,-3.9388,-3.9388,-3.9388,-3.9388,-3.9388,-3.9388,-3.9388,-3.9388,-3.9388,-3.9388,-3.9388,-3.9388,-3.9388,-3.9388,-3.9388,-3.9388,-3.9388,-3.9388,-3.9388,-3.9388,-3.9388,-3.9388,-3.9388,-3.9388,-3.9388,-3.9388,-3.9388,-3.9388,-3.9388,-3.9388,-3.9388,-3.9388,-3.9388,-3.9388,-3.9388,-3.9388,-3.9388,-3.9388,-3.9388,-3.9388,-3.9388,-3.9388,-3.9388,-3.9388,-3.9388,-3.9388,-3.9388,-3.9388,-3.9388,-3.9403,-3.9783,-3.9933,-3.9978,-4.0636,-4.1115,-4.1444,-4.1811,-4.2297,-4.2865,-4.2865,-4.306,-4.329,0.0,0.0,0.0,0.0,0.0,0.0,0.0,0.0,0.0,0.0,0.0,0.0,0.0,0.0,0.0,0.0,0.0,0.0,0.0,0.0,0.0,-3.9388,-3.9388,-3.9388,-3.9388,-3.9388,-3.9388,-3.9388,-3.9388,-3.9388,-3.9388,-3.9388,-3.9388,-3.9388,-3.9388,-3.9388,-3.9388,-3.9388,-3.9388,-3.9388,-3.9388,-3.9388,-3.9388,-3.9388,-3.9388,-3.9388,-3.9388,-3.9388,-3.9388,-3.9388,0.0,0.0,0.0,0.0,-3.9388,-3.9388,-3.9388,-3.9388,-3.9388,-3.9388,-3.9388,-3.9388,-3.9388,-3.9388,-3.9388,-3.9388,-3.9388,-3.9388,-3.9388,-3.9388,-3.9388,-3.9388,-3.9388,-3.9388,-3.9388,-3.9388,-3.9388,-3.9388,-3.9388,-3.9388,-3.9388,-3.9388,-3.9388,-3.9388,-3.9388,-3.9388,-3.9388,-3.9388,-3.9388,-3.9388,-3.9388,-3.9388,-3.9388,-3.9388,-3.9388,-3.9388,-3.9388,-3.9388,-3.9388,-3.9388,-3.9388,-3.9388,-3.9388,-3.9388,-3.9388,-3.9388,-3.9454,-4.0008,-4.0307,-4.0457,-4.0995,-4.1647,-4.2246,-4.2366,-4.2701,-4.314,0.0,0.0,0.0,0.0,0.0,0.0,0.0,0.0,0.0,0.0,-3.9388,-3.9388,0.0,0.0,-3.9388,-3.9388,-3.9388,-3.9388,-3.9388,0.0,0.0,-3.9388,-3.9388,-3.9388,-3.9388,-3.9388,-3.9388,-3.9388,-3.9388,-3.9388,-3.9388,-3.9388,-3.9388,-3.9388,-3.9388,-3.9388,-3.9388,-3.9388,-3.9388,-3.9388,-3.9388,-3.9388,-3.9388,-3.9388,-3.9388,-3.9388,-3.9388,-3.9388,-3.9388,-3.9388,-3.9388,0.0,0.0,0.0,-3.9388,-3.9388,-3.9388,-3.9388,-3.9388,-3.9388,-3.9388,-3.9388,-3.9388,-3.9388,-3.9388,-3.9388,-3.9388,-3.9388,-3.9388,-3.9388,-3.9388,-3.9388,-3.9388,-3.9388,-3.9388,-3.9388,-3.9388,-3.9388,-3.9388,-3.9388,-3.9388,-3.9388,-3.9388,-3.9388,-3.9388,-3.9388,-3.9388,-3.9388,-3.9388,-3.9388,-3.9388,-3.9388,-3.9388,-3.9388,-3.9388,-3.9388,-3.9388,-3.9388,-3.9388,-3.9388,-3.9388,-3.9388,-3.9388,-3.9388,-3.9388,-3.9388,-3.9388,-3.9514,-3.9888,-4.0412,-4.0502,-4.0935,-4.1617,-4.2186,-4.2455,-4.2605,0.0,0.0,0.0,0.0,0.0,0.0,0.0,0.0,0.0,0.0,0.0,-3.9388,-3.9388,-3.9388,-3.9388,-3.9388,-3.9388,-3.9388,-3.9388,-3.9388,-3.9388,-3.9388,-3.9388,-3.9388,-3.9388,-3.9388,-3.9388,-3.9388,-3.9388,-3.9388,-3.9388,-3.9388,-3.9388,-3.9388,-3.9388,-3.9388,-3.9388,-3.9388,-3.9388,-3.9388,-3.9388,-3.9388,-3.9388,-3.9388,-3.9388,-3.9388,-3.9388,-3.9388,-3.9388,-3.9388,-3.9388,-3.9388,-3.9388,0.0,0.0,0.0,-3.9388,-3.9388,-3.9388,-3.9388,-3.9388,-3.9388,-3.9388,-3.9388,-3.9388,-3.9388,-3.9388,-3.9388,-3.9388,-3.9388,-3.9388,-3.9388,-3.9388,-3.9388,-3.9388,-3.9388,-3.9388,-3.9388,-3.9388,-3.9388,-3.9388,-3.9388,-3.9388,-3.9388,-3.9388,-3.9388,-3.9388,-3.9388,-3.9388,-3.9388,-3.9388,-3.9388,-3.9388,-3.9388,-3.9388,-3.9388,-3.9388,-3.9388,-3.9388,-3.9388,-3.9388,-3.9388,-3.9388,-3.9388,-3.9388,-3.9388,-3.9388,-3.9388,-3.9553,-3.9843,-3.9843,-4.0247,-4.0876,-4.116,-4.1527,-4.1946,0.0,0.0,0.0,0.0,0.0,0.0,0.0,0.0,0.0,0.0,0.0,-3.9388,-3.9388,0.0,0.0,0.0,-3.9388,-3.9388,-3.9388,-3.9388,-3.9388,-3.9388,-3.9388,-3.9388,-3.9388,-3.9388,-3.9388,-3.9388,-3.9388,-3.9388,-3.9388,-3.9388,-3.9388,-3.9388,-3.9388,-3.9388,-3.9388,-3.9388,-3.9388,-3.9388,-3.9388,-3.9388,-3.9388,-3.9388,-3.9388,-3.9388,-3.9388,-3.9388,-3.9388,-3.9388,-3.9388,-3.9388,-3.9388,-3.9388,0.0,0.0,0.0,-3.9388,-3.9388,-3.9388,-3.9388,-3.9388,-3.9388,-3.9388,-3.9388,-3.9388,-3.9388,-3.9388,-3.9388,-3.9388,-3.9388,-3.9388,-3.9388,-3.9388,-3.9388,-3.9388,-3.9388,-3.9388,-3.9388,-3.9388,-3.9388,-3.9388,-3.9388,-3.9388,-3.9388,-3.9388,-3.9388,-3.9388,-3.9388,-3.9388,-3.9388,-3.9388,-3.9388,-3.9388,-3.9388,-3.9388,-3.9388,-3.9388,-3.9388,-3.9388,-3.9388,-3.9388,-3.9388,-3.9388,-3.9388,-3.9388,-3.9388,-3.9388,-3.9388,-3.9388,-3.9388,-3.9723,-4.0172,-4.0337,-4.0711,-4.122,0.0,0.0,0.0,0.0,0.0,0.0,0.0,0.0,0.0,0.0,0.0,-3.9388,-3.9388,-3.9388,-3.9388,-3.9388,-3.9388,-3.9388,-3.9388,-3.9388,-3.9388,-3.9388,-3.9388,0.0,-3.9388,-3.9388,-3.9388,-3.9388,-3.9388,-3.9388,-3.9388,-3.9388,-3.9388,-3.9388,-3.9388,-3.9388,-3.9388,-3.9388,-3.9388,-3.9388,-3.9388,-3.9388,-3.9388,-3.9388,-3.9388,-3.9388,-3.9388,-3.9388,-3.9388,-3.9388,-3.9388,-3.9388,-3.9388,-3.9388,-3.9388,0.0,0.0,0.0,-3.9388,-3.9388,-3.9388,-3.9388,-3.9388,-3.9388,-3.9388,-3.9388,-3.9388,-3.9388,-3.9388,-3.9388,-3.9388,-3.9388,-3.9388,-3.9388,-3.9388,-3.9388,-3.9388,-3.9388,-3.9388,-3.9388,-3.9388,-3.9388,-3.9388,-3.9388,-3.9388,-3.9388,-3.9388,-3.9388,-3.9388,-3.9388,-3.9388,-3.9388,-3.9388,-3.9388,-3.9388,-3.9388,-3.9388,-3.9388,-3.9388,-3.9388,-3.9388,-3.9388,-3.9388,-3.9388,-3.9388,-3.9388,-3.9388,-3.9388,-3.9388,-3.9388,-3.9388,-3.9403,-3.9544,-4.0172,-4.0427,-4.0546,0.0,0.0,0.0,0.0,0.0,0.0,0.0,0.0,0.0,0.0,0.0,0.0,0.0,-3.9388,-3.9388,-3.9388,-3.9388,-3.9388,-3.9388,-3.9388,-3.9388,-3.9388,-3.9388,-3.9388,-3.9388,-3.9388,-3.9388,-3.9388,-3.9388,-3.9388,-3.9388,-3.9388,-3.9388,-3.9388,-3.9388,-3.9388,-3.9388,-3.9388,-3.9388,-3.9388,-3.9388,-3.9388,-3.9388,-3.9388,-3.9388,-3.9388,-3.9388,-3.9388,-3.9388,-3.9388,-3.9388,-3.9388,-3.9388,-3.9388,-3.9388,-3.9388,-3.9388,-3.9388,-3.9388,-3.9388,-3.9388,-3.9388,-3.9388,-3.9388,-3.9388,-3.9388,-3.9388,-3.9388,-3.9388,-3.9388,-3.9388,-3.9388,-3.9388,-3.9388,-3.9388,-3.9388,-3.9388,-3.9388,-3.9388,-3.9388,-3.9388,-3.9388,-3.9388,-3.9388,-3.9388,-3.9388,-3.9388,-3.9388,-3.9388,-3.9388,-3.9388,-3.9388,-3.9388,-3.9388,-3.9388,-3.9388,-3.9388,-3.9388,-3.9388,-3.9388,-3.9388,-3.9388,-3.9388,-3.9388,-3.9388,-3.9388,-3.9388,-3.9388,-3.9388,-3.9388,-3.9388,-3.9388,-3.9454,-3.9694,-3.9768,-3.9858,0.0,0.0,0.0,-3.9388,0.0,-3.9388,-3.9388,-3.9388,-3.9388,-3.9388,0.0,0.0,0.0,0.0,-3.9388,-3.9388,-3.9388,-3.9388,-3.9388,-3.9388,-3.9388,-3.9388,-3.9388,-3.9388,-3.9388,-3.9185,-3.9185,-3.9388,-3.9185,-3.9185,-3.9388,-3.9388,-3.9388,-3.9388,-3.9388,-3.9388,-3.9388,-3.9388,-3.9388,-3.9388,-3.9388,-3.9388,-3.9388,-3.9388,-3.9388,-3.9388,-3.9388,-3.9388,-3.9388,-3.9388,-3.9388,-3.9388,-3.9388,-3.9388,-3.9388,-3.9388,-3.9388,-3.9388,-3.9388,-3.9388,-3.9388,-3.9388,-3.9388,-3.9388,-3.9388,-3.9388,-3.9388,-3.9388,-3.9388,-3.9388,-3.9388,-3.9388,-3.9388,-3.9388,-3.9388,-3.9388,-3.9388,-3.9388,-3.9388,-3.9388,-3.9388,-3.9388,-3.9388,-3.9388,-3.9388,-3.9388,-3.9388,-3.9388,-3.9388,-3.9388,-3.9388,-3.9388,-3.9388,-3.9388,-3.9388,-3.9388,-3.9388,-3.9388,-3.9388,-3.9388,-3.9388,-3.9388,-3.9388,-3.9388,-3.9388,-3.9388,-3.9388,-3.9388,-3.9388,-3.9388,-3.9388,-3.9388,-3.9388,-3.9388,-3.9388,-3.9448,-3.9418,-3.9454,-3.9403,-3.9388,-3.9388,-3.9388,-3.9388,-3.9388,-3.9388,-3.9454,0.0,0.0,0.0,0.0,0.0,-3.9448,-3.9448,-3.9448,-3.9448,-3.9454,-3.9454,-3.9454,-3.9388,-3.9388,-3.9388,-3.8766,-3.8751,-3.9388,-3.8751,-3.8766,-3.9388,-3.9388,-3.9388,-3.9388,-3.9388,-3.9388,-3.9388,-3.9388,-3.9388,-3.9388,-3.9388,-3.9388,-3.9388,-3.9388,-3.9388,-3.9388,-3.9388,-3.9388,-3.9388,-3.9388,-3.9388,-3.9388,-3.9388,-3.9388,-3.9388,-3.9388,-3.9388,-3.9388,0.0,0.0,0.0,-3.9388,-3.9388,-3.9388,-3.9388,-3.9388,-3.9388,-3.9388,-3.9388,-3.9388,-3.9388,-3.9388,-3.9388,-3.9388,-3.9388,-3.9388,-3.9388,-3.9388,-3.9388,-3.9388,-3.9388,-3.9388,-3.9388,-3.9388,-3.9388,-3.9388,-3.9388,-3.9388,-3.9388,-3.9388,-3.9388,-3.9388,-3.9388,-3.9388,-3.9388,-3.9388,-3.9388,-3.9388,-3.9388,-3.9388,-3.9388,-3.9388,-3.9388,-3.9388,-3.9388,-3.9388,-3.9388,-3.9388,-3.9388,-3.9388,-3.9388,-3.9388,-3.9388,-3.9388,-3.9388,-3.9388,-4.0217,-4.0127,-3.9978,-3.9463,-3.9388,-3.9388,-3.9388,-3.9388,-3.9553,0.0,0.0,0.0,-4.0786,-4.0846,-4.0846,-4.0846,-4.0846,-4.0846,-4.0846,-4.0382,-4.0127,-4.0127,-3.9679,-3.9388,-3.9388,-3.923,-3.923,-3.9388,-3.923,-3.923,-3.9388,-3.9388,-3.9388,-3.9388,-3.9388,-3.9388,-3.9388,-3.9388,-3.9388,-3.9388,-3.9388,-3.9388,-3.9388,-3.9388,-3.9388,-3.9388,-3.9388,-3.9388,-3.9388,-3.9388,-3.9388,-3.9388,-3.9388,-3.9388,-3.9388,-3.9388,-3.9388,-3.9388,-3.9388,0.0,0.0,0.0,0.0,0.0,-3.9388,-3.9388,-3.9388,-3.9388,-3.9388,-3.9388,-3.9388,-3.9388,-3.9388,-3.9388,-3.9388,-3.9388,-3.9388,-3.9388,-3.9388,-3.9388,-3.9388,-3.9388,-3.9388,-3.9388,-3.9388,-3.9388,-3.9388,-3.9388,-3.9388,-3.9388,-3.9388,-3.9388,-3.9388,-3.9388,-3.9388,-3.9388,-3.9388,-3.9388,-3.9388,-3.9388,-3.9388,-3.9388,-3.9388,-3.9388,-3.9388,-3.9388,-3.9388,-3.9388,-3.9388,-3.9388,-3.9388,-3.9388,-3.9388,-3.9388,-3.9388,-3.9388,-4.0891,-4.0816,-4.0681,-4.0307,-4.0232,-4.0232,-4.0232,-4.0232,-4.0367,0.0,0.0,0.0,-4.1339,-4.1422,-4.1422,-4.1422,-4.1422,-4.1422,-4.1422,-4.1025,-4.0816,-4.0816,-4.0442,-4.0232,-4.0232,-3.9709,-3.9559,-3.9828,-3.9275,-3.914,-3.9388,-3.9388,-3.9388,-3.9388,-3.9388,-3.9388,-3.9388,-3.9388,-3.9388,-3.9388,-3.9388,-3.9388,-3.9388,-3.9388,-3.9388,-3.9388,-3.9388,-3.9388,-3.9388,-3.9388,-3.9388,-3.9388,-3.9388,-3.9388,-3.9388,-3.9388,-3.9388,-3.9388,-3.9388,-3.9388,-3.9388,-3.9388,0.0,0.0,-3.9388,-3.9388,-3.9388,-3.9388,-3.9388,-3.9388,-3.9388,-3.9388,-3.9388,-3.9388,-3.9388,-3.9388,-3.9388,-3.9388,-3.9388,-3.9388,-3.9388,-3.9388,-3.9388,-3.9388,-3.9388,-3.9388,-3.9388,-3.9388,-3.9388,-3.9388,-3.9388,-3.9388,-3.9388,-3.9388,-3.9388,-3.9388,-3.9388,-3.9388,-3.9388,-3.9388,-3.9388,-3.9388,-3.9388,-3.9388,-3.9388,-3.9388,-3.9388,-3.9388,-3.9388,-3.9388,-3.9388,-3.9388,-3.9388,-3.9388,-3.9388,-3.9388,0.0,-4.1527,-4.1512,-4.1384,-4.1422,-4.1422,-4.1422,-4.1422,-4.1452,0.0,-4.1549,-4.1594,-4.1594,-4.1594,-4.1594,-4.1594,-4.1594,-4.1594,-4.1594,-4.1534,-4.1527,-4.1527,-4.1452,-4.1422,-4.1422,-4.0232,-3.9918,-4.0502,-3.9305,-3.9035,-3.9634,-3.9634,-3.9634,-3.9634,-3.9634,-3.9634,-3.9634,-3.9634,-3.9589,-3.9514,-3.9454,-3.9388,-3.9388,-3.9388,-3.9388,-3.9388,-3.9388,-3.9388,-3.9388,-3.9388,-3.9388,-3.9388,-3.9388,-3.9388,-3.9388,-3.9388,-3.9388,-3.9388,-3.9388,-3.9388,-3.9388,-3.9388,-3.9388,0.0,-3.9388,-3.9388,-3.9388,-3.9388,-3.9388,-3.9388,-3.9388,-3.9388,-3.9388,-3.9388,-3.9388,-3.9388,-3.9388,-3.9388,-3.9388,-3.9388,-3.9388,-3.9388,-3.9388,-3.9388,-3.9388,-3.9388,-3.9388,-3.9388,-3.9388,-3.9388,-3.9388,-3.9388,-3.9388,-3.9388,-3.9388,-3.9388,-3.9388,-3.9388,-3.9388,-3.9388,-3.9388,-3.9388,-3.9388,-3.9388,-3.9388,-3.9388,-3.9388,-3.9388,-3.9388,-3.9388,-3.9388,-3.9388,-3.9388,-3.9388,-3.9388,-3.9388,-4.2306,-4.2201,-4.2036,-4.1474,-4.1422,-4.1422,-4.1422,-4.1422,-4.1602,-4.2141,-4.2626,-4.2916,-4.2916,-4.2916,-4.2916,-4.2916,-4.2916,-4.2916,-4.2916,-4.2462,-4.2201,-4.2201,-4.1707,-4.1422,-4.1422,-4.113,-4.1055,-4.119,-4.092,-4.0861,-4.0995,-4.0995,-4.0995,-4.0995,-4.0995,-4.0995,-4.0995,-4.0995,-4.0696,-4.0172,-3.9634,-3.9388,-3.9388,-3.9388,-3.9388,-3.9388,-3.9388,-3.9388,-3.9388,-3.9388,-3.9388,-3.9388,-3.9388,-3.9388,-3.9388,-3.9388,-3.9388,-3.9388,-3.9388,-3.9388,-3.9388,-3.9388,-3.9388,0.0,-3.9388,-3.9388,-3.9388,-3.9388,-3.9388,-3.9388,-3.9388,-3.9388,-3.9388,-3.9388,-3.9388,-3.9388,-3.9388,-3.9388,-3.9388,-3.9388,-3.9388,-3.9388,-3.9388,-3.9388,-3.9388,-3.9388,-3.9388,-3.9388,-3.9388,-3.9388,-3.9388,-3.9388,-3.9388,-3.9388,-3.9388,-3.9388,-3.9388,-3.9388,-3.9388,-3.9388,-3.9388,-3.9388,-3.9388,-3.9388,-3.9388,-3.9388,-3.9388,-3.9388,-3.9388,-3.9388,-3.9388,-3.9388,-3.9388,-3.9388,-3.9388,-3.9388,-4.291,-4.2851,-4.2746,-4.2417,-4.2357,-4.2357,-4.2357,-4.2357,-4.2476,-4.2806,-4.3135,-4.329,-4.329,-4.329,-4.329,-4.329,-4.329,-4.329,-4.329,-4.303,-4.2851,-4.2851,-4.2536,-4.2357,-4.2357,-4.2028,-4.1916,-4.1916,-4.1572,-4.1422,-4.1422,-4.1422,-4.1422,-4.1422,-4.1422,-4.1422,-4.1422,-4.1422,-4.1227,-4.0831,-4.0172,-3.9709,-3.9388,-3.9388,-3.9388,-3.9388,-3.9388,-3.9388,-3.9388,-3.9388,-3.9388,-3.9388,-3.9388,-3.9388,-3.9388,-3.9388,-3.9388,-3.9388,-3.9388,-3.9388,-3.9388,-3.9388,-3.9388,0.0,0.0,-3.9388,-3.9388,-3.9388,-3.9388,-3.9388,-3.9388,-3.9388,-3.9388,-3.9388,-3.9388,-3.9388,-3.9388,-3.9388,-3.9388,-3.9388,-3.9388,-3.9388,-3.9388,-3.9388,-3.9388,-3.9388,-3.9388,-3.9388,-3.9388,-3.9388,-3.9388,-3.9388,-3.9388,-3.9388,-3.9388,-3.9388,-3.9388,-3.9388,-3.9388,-3.9388,-3.9388,-3.9388,-3.9388,-3.9388,-3.9388,-3.9388,-3.9388,-3.9388,-3.9388,-3.9388,-3.9388,-3.9388,-3.9388,-3.9388,-3.9388,-3.9388,-4.329,-4.329,-4.329,-4.329,-4.329,-4.329,-4.329,-4.329,-4.329,-4.329,-4.329,-4.329,-4.329,-4.329,-4.329,-4.329,-4.329,-4.329,-4.329,-4.329,-4.329,-4.329,-4.329,-4.329,-4.329,-4.2821,-4.259,-4.259,-4.2013,-4.1758,-4.1758,-4.1758,-4.1758,-4.1758,-4.1758,-4.1758,-4.1758,-4.1758,-4.1683,-4.1572,-4.0995,-4.0382,-3.9783,-3.9649,-3.9604,-3.9589,-3.9433,-3.9388,-3.9388,-3.9388,-3.9388,-3.9388,-3.9388,-3.9388,-3.9388,-3.9388,-3.9388,-3.9388,-3.9388,-3.9388,-3.9388,-3.9388,-3.9388,-3.9388,0.0,0.0,0.0,-3.9104,-3.8943,-3.8855,-3.9053,-3.9104,-3.9133,-3.9194,-3.9334,-3.9292,-3.8962,-3.9175,-3.9388,-3.9388,-3.9388,-3.9388,-3.9388,-3.9388,-3.9388,-3.9388,-3.9388,-3.9388,-3.9388,-3.9388,-3.9388,-3.9388,-3.9388,-3.9388,-3.9388,-3.9388,-3.9388,-3.9388,-3.9388,-3.9388,-3.9388,-3.9388,-3.9388,-3.9388,-3.9388,-3.9388,-3.9388,-3.9388,-3.9388,-3.9388,-3.9388,-3.9388,-3.9388,-3.9388,-3.9388,-3.9388,-4.329,-4.329,-4.329,-4.329,-4.329,-4.329,-4.329,-4.329,-4.329,-4.329,-4.329,-4.329,-4.329,-4.329,-4.329,-4.329,-4.329,-4.329,-4.329,-4.329,-4.329,-4.329,-4.329,-4.329,-4.329,-4.3215,-4.3185,-4.3185,-4.311,-4.3065,-4.3065,-4.3065,-4.3065,-4.3065,-4.3065,-4.3065,-4.3065,-4.3065,-4.2776,-4.2276,-4.2201,-4.1782,-4.11,-4.0502,-4.0292,-4.0217,-3.9634,-3.9388,-3.9388,-3.9388,-3.9388,-3.9388,-3.9388,-3.9388,-3.9388,-3.9388,-3.9388,-3.9388,-3.9388,-3.9388,-3.9388,-3.9388,-3.9388,-3.9388,-3.9388,0.0,-3.7994,-3.7994,0.0,-3.6852,-3.7829,0.0,0.0,-3.8445,-3.902,-3.886,-3.7309,-3.845,-3.9388,-3.9388,-3.9388,-3.9388,-3.9388,-3.9388,-3.9388,-3.9388,-3.9388,-3.9388,-3.9388,-3.9388,-3.9388,-3.9388,-3.9388,-3.9388,-3.9388,-3.9388,-3.9388,-3.9388,-3.9388,-3.9388,-3.9388,-3.9388,-3.9388,-3.9388,-3.9388,-3.9388,-3.9388,-3.9388,-3.9388,-3.9388,-3.9388,-3.9388,-3.9388,-3.9388,-3.9388,-3.9388,-4.329,-4.329,-4.329,-4.329,-4.329,-4.329,-4.329,-4.329,-4.329,-4.329,-4.329,-4.329,-4.329,-4.329,-4.329,-4.329,-4.329,-4.329,-4.329,-4.329,-4.329,-4.329,-4.329,-4.329,-4.329,-4.329,-4.329,-4.329,-4.329,-4.329,-4.329,-4.329,-4.329,-4.329,-4.329,-4.329,-4.329,-4.329,-4.3125,-4.2925,-4.2925,-4.2761,-4.2402,-4.1369,-4.0726,-4.0367,-4.0083,-3.9738,-3.9388,-3.9388,-3.9388,-3.9388,-3.9388,-3.9388,-3.9388,-3.9388,-3.9388,-3.9388,-3.9388,-3.8943,-3.862,-3.9228,-3.8457,-3.7701,-3.8345,-3.8107,-3.7625,-3.7021,0.0,0.0,0.0,0.0,0.0,0.0,-3.7866,-3.8005,-3.664,-3.7068,-3.7762,-3.8383,-3.9017,-3.9388,-3.9388,-3.9388,-3.9388,-3.9388,-3.9388,-3.9388,-3.9388,-3.9388,-3.9388,-3.9388,-3.9388,-3.9388,-3.9388,-3.9388,-3.9388,-3.9388,-3.9388,-3.9388,-3.9388,-3.9388,-3.9388,-3.9388,-3.9388,-3.9388,-3.9388,-3.9388,-3.9388,-3.9388,-3.9388,-3.9388,-3.9388,-3.9388,-3.9388,-3.9388,-4.329,-4.329,-4.329,-4.329,-4.329,-4.329,-4.329,-4.329,-4.329,-4.329,-4.329,-4.329,-4.329,-4.329,-4.329,-4.329,-4.329,-4.329,-4.329,-4.329,-4.329,-4.329,-4.329,-4.329,-4.329,-4.329,-4.329,-4.329,-4.329,-4.329,-4.329,-4.329,-4.329,-4.329,-4.329,-4.329,-4.329,-4.329,-4.329,-4.329,-4.329,-4.329,-4.317,-4.2087,-4.125,-4.0666,-4.0666,-4.0247,-3.9694,-3.9694,-3.9574,-3.9388,-3.9388,-3.9388,-3.9388,-3.9388,-3.9177,-3.9017,-3.9301,-3.862,-3.7994,-3.8782,-3.8003,-3.7123,-3.7305,-3.7343,-3.706,-3.6027,-3.6146,0.0,0.0,0.0,-3.6732,-3.6069,0.0,-3.6926,-3.5675,-3.5904,-3.6604,-3.7663,-3.8745,-3.9265,-3.898,-3.9228,-3.9265,-3.898,-3.9228,-3.9388,-3.9388,-3.9388,-3.9388,-3.9388,-3.9388,-3.9388,-3.9388,-3.9388,-3.9388,-3.9388,-3.9388,-3.9388,-3.9388,-3.9388,-3.9388,-3.9388,-3.9388,-3.9388,-3.9388,-3.9388,-3.9388,-3.9388,-3.9388,-3.9388,-3.9388,-3.9388,-3.9388,-3.9388,-4.329,-4.329,-4.329,-4.329,-4.329,-4.329,-4.329,-4.329,-4.329,-4.329,-4.329,-4.329,-4.329,-4.329,-4.329,-4.329,-4.329,-4.329,-4.329,-4.329,-4.329,-4.329,-4.329,-4.329,-4.329,-4.329,-4.329,-4.329,-4.329,-4.329,-4.329,-4.329,-4.329,-4.329,-4.329,-4.329,-4.329,-4.329,-4.329,-4.329,-4.329,-4.329,-4.3215,-4.262,-4.1961,-4.1392,-4.1392,-4.0935,-4.0367,-4.0367,-3.9948,-3.9388,-3.9388,-3.9388,-3.9388,-3.9388,-3.8671,-3.8069,-3.9104,-3.862,-3.7791,-3.7829,-3.8583,-3.8767,-3.6721,-3.6237,-3.5974,-3.4979,-3.3953,-3.3556,-3.454,-3.4787,-3.4914,-3.5272,-3.5839,0.0,0.0,-3.5195,-3.6604,-3.7663,-3.8745,-3.898,-3.7956,-3.8782,-3.898,-3.7919,-3.8819,-3.9388,-3.9388,-3.9388,-3.9388,-3.9388,-3.9388,-3.9388,-3.9388,-3.9388,-3.9388,-3.9388,-3.9388,-3.9388,-3.9388,-3.9388,-3.9388,-3.9388,-3.9388,-3.9388,-3.9388,-3.9388,-3.9388,-3.9388,-3.9388,-3.9388,-3.9388,-3.9388,-3.9388,-3.9388,-4.329,-4.329,-4.329,-4.329,-4.329,-4.329,-4.329,-4.329,-4.329,-4.329,-4.329,-4.329,-4.329,-4.329,-4.329,-4.329,-4.329,-4.329,-4.329,-4.329,-4.329,-4.329,-4.329,-4.329,-4.329,-4.329,-4.329,-4.329,-4.329,-4.329,-4.329,-4.329,-4.329,-4.329,-4.329,-4.329,-4.329,-4.329,-4.329,-4.329,-4.329,-4.329,-4.3275,-4.309,-4.2596,-4.2066,-4.2066,-4.1647,-4.098,-4.0546,-4.0247,-3.9993,-3.9559,-3.9388,-3.9388,-3.9388,-3.9141,-3.8782,-3.8435,-3.7572,-3.6891,-3.7625,-3.6489,-3.5413,-3.6053,-3.5708,-3.4884,-3.3869,-3.3911,-3.4037,-3.3713,-3.4233,-3.4528,-3.3931,-3.4614,-3.4749,0.0,-3.4421,-3.5319,-3.5695,-3.7281,-3.8196,-3.7829,-3.8782,-3.8943,-3.7866,-3.8782,-3.9388,-3.9388,-3.9388,-3.9388,-3.9388,-3.9388,-3.9388,-3.9388,-3.9388,-3.9388,-3.9388,-3.9388,-3.9388,-3.9388,-3.9388,-3.9388,-3.9388,-3.9388,-3.9388,-3.9388,-3.9388,-3.9388,-3.9388,-3.9388,-3.9388,-3.9388,-3.9388,-3.9388,-3.9388,-4.329,-4.329,-4.329,-4.329,-4.329,-4.329,-4.329,-4.329,-4.329,-4.329,-4.329,-4.329,-4.329,-4.329,-4.329,-4.329,-4.329,-4.329,-4.329,-4.329,-4.329,-4.329,-4.329,-4.329,-4.329,-4.329,-4.329,-4.329,-4.329,-4.329,-4.329,-4.329,-4.329,-4.329,-4.329,-4.329,-4.329,-4.329,-4.329,-4.329,-4.329,-4.329,-4.329,-4.329,-4.3075,-4.2701,-4.2701,-4.2282,-4.1707,-4.125,-4.0935,-4.0636,-3.9978,-3.9483,-3.9129,-3.8892,-3.8568,-3.813,-3.742,-3.6735,-3.629,-3.6593,-3.5453,-3.4374,-3.4952,-3.4897,-3.4387,-3.3313,-3.3641,-3.3911,-3.324,-3.367,-3.3911,-3.3197,-3.367,-3.3869,0.0,-3.3713,-3.4275,-3.4664,-3.62,-3.7214,-3.7214,-3.7852,-3.813,-3.7829,-3.8435,-3.898,-3.9388,-3.9388,-3.9388,-3.9388,-3.9388,-3.9228,-3.8819,-3.9228,-3.9228,-3.8819,-3.9228,-3.9177,-3.8819,-3.8819,-3.862,-3.8242,-3.8242,-3.8494,-3.8782,-3.8405,-3.8694,-3.9337,-3.898,-3.9068,-3.9388,-3.9388,-3.9388,-3.9388,-4.329,-4.329,-4.329,-4.329,-4.329,-4.329,-4.329,-4.329,-4.329,-4.329,-4.329,-4.329,-4.329,-4.329,-4.329,-4.329,-4.329,-4.329,-4.329,-4.329,-4.329,-4.329,-4.329,-4.329,-4.329,-4.329,-4.329,-4.329,-4.329,-4.329,-4.329,-4.329,-4.329,-4.329,-4.329,-4.329,-4.329,-4.329,-4.329,-4.329,-4.329,-4.329,-4.329,-4.329,-4.329,-4.329,-4.329,-4.294,-4.244,-4.241,-4.1991,-4.1309,-4.0651,-3.9732,-3.8727,-3.8045,-3.7088,-3.6251,-3.6158,-3.6132,-3.5894,-3.4938,-3.54,-3.5534,-3.3628,-3.3911,-3.4304,-3.3313,-3.3124,-3.3124,-3.3124,-3.3124,-3.3124,-3.3124,-3.3124,-3.3124,-3.3124,-3.3124,-3.3471,-3.4511,-3.5467,-3.6093,-3.6119,-3.6212,-3.6682,-3.7663,-3.7753,-3.8271,-3.9337,-3.9337,-3.9337,-3.9388,-3.9388,-3.887,-3.7791,-3.887,-3.887,-3.7791,-3.8819,-3.8782,-3.7791,-3.7753,-3.7175,-3.6198,-3.6198,-3.6774,-3.7625,-3.6604,-3.7405,-3.9141,-3.8107,-3.8383,-3.9337,-3.9388,-3.9388,-3.9388,-4.329,-4.329,-4.329,-4.329,-4.329,-4.329,-4.329,-4.329,-4.329,-4.329,-4.329,-4.329,-4.329,-4.329,-4.329,-4.329,-4.329,-4.329,-4.329,-4.329,-4.329,-4.329,-4.329,-4.329,-4.329,-4.329,-4.329,-4.329,-4.329,-4.329,-4.329,-4.329,-4.329,-4.329,-4.329,-4.329,-4.329,-4.329,-4.329,-4.329,-4.329,-4.329,-4.329,-4.329,-4.329,-4.329,-4.329,-4.3185,-4.3015,-4.256,-4.2291,-4.2036,-4.1324,-4.0621,-3.9801,-3.8822,-3.7997,-3.706,-3.548,-3.5088,-3.502,-3.4746,-3.4304,-3.3982,-3.4233,-3.3869,-3.3441,-3.3154,-3.3124,-3.3124,-3.3124,-3.3124,-3.3124,-3.3124,-3.3124,-3.3124,-3.3124,-3.3124,-3.3197,-3.3471,-3.3755,-3.422,-3.502,-3.6476,-3.7175,-3.6643,-3.7343,-3.8271,-3.9337,-3.862,-3.8583,-3.9373,-3.9388,-3.887,-3.7791,-3.887,-3.887,-3.7791,-3.8069,-3.8069,-3.7753,-3.6968,-3.6448,-3.6198,-3.6198,-3.6369,-3.6604,-3.6316,-3.6526,-3.6993,-3.6735,-3.7252,-3.8308,-3.9104,-3.9388,-3.9388,-4.329,-4.329,-4.329,-4.329,-4.329,-4.329,-4.329,-4.329,-4.329,-4.329,-4.329,-4.329,-4.329,-4.329,-4.329,-4.329,-4.329,-4.329,-4.329,-4.329,-4.329,-4.329,-4.329,-4.329,-4.329,-4.329,-4.329,-4.329,-4.329,-4.329,-4.329,-4.329,-4.329,-4.329,-4.329,-4.329,-4.329,-4.329,-4.329,-4.329,-4.329,-4.329,0.0,-4.329,-4.329,-4.329,-4.329,-4.329,-4.3245,-4.291,-4.2776,-4.2671,-4.2051,-4.1252,-4.029,-3.8845,-3.8017,-3.7091,-3.4921,-3.4541,-3.4594,-3.4108,-3.3556,-3.3283,-3.3869,-3.3513,-3.3124,-3.3124,-3.3124,-3.3124,0.0,0.0,0.0,-3.3124,-3.3124,-3.3124,-3.3124,-3.3124,-3.3124,-3.3124,-3.3124,-3.3356,-3.3953,-3.5494,-3.6397,-3.6198,-3.6774,-3.7367,-3.7965,-3.7866,-3.8069,-3.8671,-3.8708,-3.8182,-3.7098,-3.7686,-3.7458,-3.645,-3.6905,-3.6866,-3.6397,-3.5842,-3.5278,-3.4843,-3.4843,-3.5116,-3.5507,-3.5034,-3.5386,-3.6198,-3.6198,-3.6565,-3.7175,-3.7776,-3.8568,-3.9388,-4.329,-4.329,-4.329,-4.329,-4.329,-4.329,-4.329,-4.329,-4.329,-4.329,-4.329,-4.329,-4.329,-4.329,-4.329,-4.329,-4.329,-4.329,-4.329,-4.329,-4.329,-4.329,-4.329,-4.329,-4.329,-4.329,-4.329,-4.329,-4.329,-4.329,-4.329,-4.329,-4.329,-4.329,-4.329,-4.329,-4.329,-4.329,-4.329,-4.329,-4.329,-4.329,-4.329,-4.329,-4.329,-4.329,-4.329,-4.329,-4.329,-4.329,-4.321,-4.2971,-4.2445,-4.1477,-4.0196,-3.845,-3.7538,-3.6605,-3.4484,-3.423,-3.4366,-3.3338,-3.3124,-3.3124,-3.3124,-3.3124,-3.3124,-3.3124,-3.3124,-3.3124,-3.3124,0.0,0.0,-3.3124,-3.3124,-3.3124,-3.3124,-3.3124,-3.3124,-3.3124,-3.3124,0.0,-3.3124,-3.4079,-3.5047,-3.5934,-3.6013,-3.6053,-3.6198,-3.7098,-3.7587,-3.7587,-3.7715,-3.7228,-3.6013,-3.6119,-3.5708,-3.4705,-3.5588,-3.5547,-3.4705,-3.4553,-3.3995,-3.3124,-3.3124,-3.3641,-3.4428,-3.3471,-3.4178,-3.5774,-3.5774,-3.5894,-3.6013,-3.6013,-3.7367,-3.9177,-4.329,-4.329,-4.329,-4.329,-4.329,-4.329,-4.329,-4.329,-4.329,-4.329,-4.329,-4.329,-4.329,-4.329,-4.329,-4.329,-4.329,-4.329,-4.329,-4.329,-4.329,-4.329,-4.329,-4.329,-4.329,-4.329,-4.329,-4.329,-4.329,-4.329,-4.329,-4.329,-4.329,-4.329,-4.329,-4.329,-4.329,-4.329,-4.329,-4.329,-4.329,-4.329,-4.329,-4.329,-4.329,-4.329,-4.329,-4.329,-4.329,-4.329,-4.2684,-4.1877,-4.1761,-4.06,-3.9003,-3.7762,-3.6944,-3.6085,-3.435,-3.3953,-3.3895,-3.3268,-3.3124,-3.3124,-3.3124,-3.3124,-3.3124,-3.3124,-3.3124,-3.3124,-3.3124,0.0,0.0,-3.3124,-3.3124,-3.3124,-3.3124,-3.3124,-3.3124,-3.3124,-3.3124,-3.3124,-3.3124,-3.4079,-3.4787,-3.4938,-3.4979,-3.5319,-3.6172,-3.6369,-3.6487,0.0,-3.7343,-3.688,0.0,-3.5774,-3.5708,-3.4705,-3.4856,-3.4856,-3.4664,-3.3797,-3.3283,-3.3124,-3.3124,-3.3197,-3.3356,-3.3197,-3.3313,-3.3628,-3.3628,-3.4178,-3.4979,-3.4979,-3.6279,-3.8069,-4.329,-4.329,-4.329,-4.329,-4.329,-4.329,-4.329,-4.329,-4.329,-4.329,-4.329,-4.329,-4.329,-4.329,-4.329,-4.329,-4.329,-4.329,-4.329,-4.329,-4.329,-4.329,-4.329,-4.329,-4.329,-4.329,-4.329,-4.329,-4.329,-4.329,-4.329,-4.329,-4.329,-4.329,-4.329,-4.329,-4.329,-4.329,-4.329,-4.329,-4.329,-4.329,-4.329,-4.329,-4.329,-4.329,-4.329,-4.29,-4.2508,-4.3115,-4.2548,-4.1587,-4.1587,-4.0619,-3.917,-3.8043,-3.7289,-3.6524,-3.5117,-3.4336,-3.3834,-3.3571,-3.3294,-3.3124,-3.3124,-3.3124,-3.3124,-3.3124,-3.3124,-3.3124,-3.3124,-3.3124,0.0,-3.3124,-3.3124,-3.3124,-3.3124,-3.3124,-3.3124,-3.3124,-3.3124,-3.3124,-3.3124,-3.3556,-3.3869,-3.3869,-3.4387,-3.4664,-3.4609,-3.5116,-3.544,0.0,0.0,0.0,-3.4705,0.0,-3.4332,-3.3869,-3.3869,-3.3869,-3.3839,-3.3356,-3.3124,-3.3124,-3.3124,-3.3124,-3.3124,-3.3124,-3.3124,-3.3124,-3.3124,-3.3441,-3.3869,-3.3869,-3.4869,-3.6371,-4.329,-4.329,-4.329,-4.329,-4.329,-4.329,-4.329,-4.329,-4.329,-4.329,-4.329,-4.329,-4.329,-4.329,-4.329,-4.329,-4.329,-4.329,-4.329,-4.329,-4.329,-4.329,-4.329,-4.329,-4.329,-4.329,-4.329,-4.329,-4.329,-4.329,-4.329,-4.329,-4.329,-4.329,-4.329,-4.329,-4.329,-4.329,-4.329,-4.329,-4.329,-4.329,-4.329,-4.329,-4.3155,-4.2941,-4.2941,-4.2208,-4.1393,-4.2249,-4.1809,-4.0845,-4.0845,-4.0088,-3.8975,-3.803,-3.7442,-3.6897,-3.5785,-3.4868,-3.4198,-3.396,-3.3571,-3.3219,-3.3149,-3.3124,-3.3124,-3.3124,-3.3124,-3.3124,-3.3124,-3.3124,0.0,-3.3124,-3.3124,-3.3124,-3.3124,-3.3124,-3.3124,-3.3124,-3.3124,-3.3124,-3.3124,-3.3124,-3.3124,-3.3124,-3.3869,-3.3995,-3.3154,-3.4108,-3.4581,-3.4345,-3.4594,-3.4594,-3.4345,0.0,-3.3124,-3.3124,-3.3124,-3.3124,-3.3124,-3.3124,-3.3124,-3.3124,-3.3124,-3.3124,-3.3124,-3.3124,-3.3124,-3.3124,-3.3124,-3.3124,-3.3124,-3.3124,-3.3797,-3.4951,-4.329,-4.329,-4.329,-4.329,-4.329,-4.329,-4.329,-4.329,-4.329,-4.329,-4.329,-4.329,-4.329,-4.329,-4.329,-4.329,-4.329,-4.329,-4.329,-4.329,-4.329,-4.329,-4.329,-4.329,-4.329,-4.329,-4.329,-4.329,-4.329,-4.329,-4.329,-4.329,-4.329,-4.329,-4.329,-4.329,-4.329,-4.329,-4.329,-4.329,-4.329,-4.329,-4.329,-4.329,-4.2684,-4.1767,-4.1767,-4.1042,-4.0073,-4.0202,-3.9434,-3.8411,-3.8411,-3.7632,-3.6722,-3.6581,-3.6496,-3.6357,-3.568,-3.542,-3.5107,-3.4148,-3.3859,-3.3696,-3.3194,-3.3124,-3.3124,-3.3124,-3.3124,-3.3124,-3.3124,-3.3124,-3.3124,0.0,-3.3124,-3.3124,-3.3124,-3.3124,-3.3124,-3.3124,-3.3124,-3.3124,-3.3124,-3.3124,-3.3124,-3.3124,-3.3197,-3.3197,-3.3124,-3.4108,-3.4233,-3.3283,-3.4191,-3.4233,-3.3283,-3.3154,-3.3124,-3.3124,-3.3124,-3.3124,-3.3124,-3.3124,-3.3124,-3.3124,-3.3124,-3.3124,-3.3124,-3.3124,-3.3124,-3.3124,-3.3124,-3.3124,-3.3124,-3.3124,-3.3797,-3.4746,-4.329,-4.329,-4.329,-4.329,-4.329,-4.329,-4.329,-4.329,-4.329,-4.329,-4.329,-4.329,-4.329,-4.329,-4.329,-4.329,-4.329,-4.329,-4.329,-4.329,-4.329,-4.329,-4.329,-4.329,-4.329,-4.329,-4.329,-4.329,-4.329,-4.329,-4.329,-4.329,-4.329,-4.329,-4.329,-4.329,-4.329,-4.329,-4.329,-4.329,-4.329,-4.329,-4.325,-4.2548,-4.1988,-4.1504,-4.0831,-3.9828,-3.8827,-3.8827,-3.8514,-3.8107,-3.8107,-3.7322,-3.6405,-3.6405,-3.6405,-3.6367,-3.6094,-3.5805,-3.5395,-3.4956,-3.4399,-3.3847,-3.3621,-3.3319,-3.3124,-3.3124,-3.3124,-3.3124,-3.3124,-3.3124,-3.3124,-3.3124,0.0,-3.3124,-3.3124,-3.3124,-3.3124,-3.3124,-3.3124,-3.3124,-3.3124,-3.3124,-3.3124,-3.3124,-3.3124,-3.3124,-3.3124,-3.3513,-3.3556,-3.3124,0.0,-3.3513,-3.3124,-3.3124,-3.3124,-3.3124,-3.3124,-3.3124,-3.3124,-3.3124,-3.3124,-3.3124,-3.3124,-3.3124,-3.3124,-3.3124,-3.3124,-3.3124,-3.3124,-3.3124,-3.3124,-3.3124,-3.3356,-3.3755,-4.329,-4.329,-4.329,-4.329,-4.329,-4.329,-4.329,-4.329,-4.329,-4.329,-4.329,-4.329,-4.329,-4.329,-4.329,-4.329,-4.329,-4.329,-4.329,-4.329,-4.329,-4.329,-4.329,-4.329,-4.329,-4.329,-4.329,-4.329,-4.329,-4.329,-4.329,-4.329,-4.329,-4.329,-4.329,-4.329,-4.329,-4.329,-4.329,-4.329,-4.329,-4.3115,-4.2725,-4.1891,-4.1155,-4.0462,-3.9653,-3.8604,-3.7586,-3.7586,-3.7586,-3.7586,-3.7586,-3.707,-3.6405,-3.6405,-3.6405,-3.6405,-3.6405,-3.6081,-3.5696,-3.5533,-3.4919,-3.4299,-3.3972,-3.3596,-3.3269,-3.3106,-3.3124,-3.3124,-3.3124,-3.3124,-3.3124,-3.3124,0.0,0.0,-3.3124,-3.3124,-3.3124,-3.3124,-3.3124,-3.3124,-3.3124,-3.3124,-3.3124,-3.3124,-3.3124,-3.3124,-3.3124,-3.3124,-3.3124,0.0,0.0,0.0,-3.3124,-3.3124,-3.3124,-3.3124,-3.3124,-3.3124,-3.3124,-3.3124,-3.3124,-3.3124,-3.3124,-3.3124,-3.3124,-3.3124,-3.3124,-3.3124,-3.3124,-3.3124,-3.3124,-3.3124,-3.3124,-3.3124,-4.329,-4.329,-4.329,-4.329,-4.329,-4.329,-4.329,-4.329,-4.329,-4.329,-4.329,-4.329,-4.329,-4.329,-4.329,-4.329,-4.329,-4.329,-4.329,-4.329,-4.329,-4.329,-4.329,-4.329,-4.329,-4.329,-4.329,-4.329,-4.329,-4.329,-4.329,-4.329,-4.329,-4.329,-4.329,-4.329,-4.329,-4.329,-4.329,-4.329,-4.329,-4.2629,-4.1629,-4.1587,-4.0161,-3.8153,-3.8107,-3.7368,-3.6405,-3.6405,-3.6405,-3.6405,-3.6405,-3.6405,-3.6405,-3.6405,-3.6405,-3.6405,-3.6405,-3.6405,-3.6267,-3.5633,-3.5495,-3.5194,-3.4148,-3.3884,-3.3734,-3.3194,-3.3124,-3.3124,-3.3124,-3.3124,-3.3124,-3.3124,0.0,0.0,0.0,-3.3124,-3.3124,-3.3124,-3.3124,-3.3124,-3.3124,-3.3124,-3.3124,-3.3124,-3.3124,-3.3124,-3.3124,0.0,0.0,-3.3124,-3.3124,0.0,-3.3124,-3.3124,-3.3124,-3.3124,-3.3124,-3.3124,-3.3124,-3.3124,-3.3124,-3.3124,-3.3124,-3.3124,-3.3124,-3.3124,-3.3124,-3.3124,-3.3124,-3.3124,-3.3124,-3.3124,-3.3124,-3.3124,-4.329,-4.329,-4.329,-4.329,-4.329,-4.329,-4.329,-4.329,-4.329,-4.329,-4.329,-4.329,-4.329,-4.329,-4.329,-4.329,-4.329,-4.329,-4.329,-4.329,-4.329,-4.329,-4.329,-4.329,-4.329,-4.329,-4.329,-4.329,-4.329,-4.329,-4.329,-4.329,-4.329,-4.329,-4.329,-4.329,-4.329,-4.329,-4.329,-4.325,-4.2467,-4.1932,-4.142,-3.98,-3.8769,-3.7984,-3.7243,-3.6709,-3.6405,-3.6405,-3.6405,-3.6405,-3.6405,-3.6405,-3.6405,-3.6405,-3.6405,-3.6405,-3.6405,-3.6405,-3.6367,-3.6144,-3.5818,-3.5408,-3.5056,-3.4449,-3.3847,-3.3671,-3.3332,-3.3124,-3.3124,-3.3124,-3.3124,-3.3124,-3.3124,0.0,-3.3124,-3.3124,-3.3124,-3.3124,-3.3124,-3.3124,-3.3124,-3.3124,-3.3124,-3.3124,-3.3124,-3.3124,-3.3124,0.0,0.0,0.0,-3.3124,0.0,-3.3124,-3.3124,-3.3124,-3.3124,-3.3124,-3.3124,-3.3124,-3.3124,-3.3124,-3.3124,-3.3124,-3.3124,-3.3124,-3.3124,-3.3124,-3.3124,-3.3124,-3.3124,-3.3124,-3.3124,-3.3124,-3.3124,-4.329,-4.329,-4.329,-4.329,-4.329,-4.329,-4.329,-4.329,-4.329,-4.329,-4.329,-4.329,-4.329,-4.329,-4.329,-4.329,-4.329,-4.329,-4.329,-4.329,-4.329,-4.329,-4.329,-4.329,-4.329,-4.329,-4.329,-4.329,-4.329,-4.329,-4.329,-4.329,-4.329,-4.329,-4.329,-4.3076,-4.2684,-4.3115,-4.282,-4.2003,-4.1726,-4.107,-4.0118,-3.868,-3.7848,-3.7368,-3.6675,-3.6405,-3.6405,-3.6405,-3.6405,-3.6405,-3.6405,-3.6405,-3.6405,-3.6405,-3.6405,-3.6405,-3.6405,-3.6405,-3.6405,-3.6405,-3.6107,-3.5805,-3.5545,-3.4806,-3.4148,-3.3935,-3.3621,-3.3319,-3.3162,-3.3124,-3.3124,-3.3124,-3.3124,-3.3124,-3.3124,-3.3124,-3.3124,-3.3124,-3.3124,-3.3124,-3.3124,-3.3124,-3.3124,-3.3124,-3.3124,-3.3124,0.0,0.0,-3.3124,-3.3124,-3.3124,-3.3124,-3.3124,-3.3124,-3.3124,-3.3124,-3.3124,-3.3124,-3.3124,-3.3124,-3.3124,-3.3124,-3.3124,-3.3124,-3.3124,-3.3124,-3.3124,-3.3124,-3.3124,-3.3124,-3.3124,-3.3124,-3.3124,-3.3124,-4.329,-4.329,-4.329,-4.329,-4.329,-4.329,-4.329,-4.329,-4.329,-4.329,-4.329,-4.329,-4.329,-4.329,-4.329,-4.329,-4.329,-4.329,-4.329,-4.329,-4.329,-4.329,-4.329,-4.329,-4.329,-4.329,-4.329,-4.329,-4.329,-4.329,-4.329,-4.329,-4.329,-4.329,-4.321,-4.2589,-4.167,-4.2644,-4.1823,-3.9986,-4.0944,-4.006,-3.8107,-3.803,-3.7322,-3.6405,-3.6405,-3.6405,-3.6405,-3.6405,-3.6405,-3.6405,-3.6405,-3.6405,-3.6405,-3.6405,-3.6405,-3.6405,-3.6405,-3.6405,-3.6405,-3.6405,-3.6405,-3.6267,-3.5671,-3.5132,-3.4625,-3.4123,-3.3985,-3.3784,-3.3232,-3.3174,-3.3162,-3.3124,-3.3124,-3.3124,-3.3124,-3.3124,-3.3124,-3.3124,-3.3124,-3.3124,-3.3124,-3.3124,-3.3124,-3.3124,-3.3124,0.0,0.0,0.0,-3.3124,-3.3124,-3.3124,-3.3124,-3.3124,-3.3124,-3.3124,-3.3124,-3.3124,-3.3124,-3.3124,-3.3124,-3.3124,-3.3124,-3.3124,-3.3124,-3.3124,-3.3124,-3.3124,-3.3124,-3.3124,-3.3124,-3.3124,-3.3124,-3.3124,-3.3124,-4.329,-4.329,-4.329,-4.329,-4.329,-4.329,-4.329,-4.329,-4.329,-4.329,-4.329,-4.329,-4.329,-4.329,-4.329,-4.329,-4.329,-4.329,-4.329,-4.329,-4.329,-4.329,-4.329,-4.329,-4.329,-4.329,-4.329,-4.329,-4.329,-4.329,-4.329,-4.329,-4.329,-4.325,-4.2371,-4.185,-4.1545,-4.0972,-4.0375,-3.9855,-3.9169,-3.859,-3.803,-3.715,-3.6628,-3.6405,-3.6405,-3.6405,-3.6405,-3.6405,-3.6405,-3.6405,-3.6405,-3.6405,-3.6405,-3.6405,-3.6405,-3.6405,-3.6405,-3.6405,-3.6405,-3.6405,-3.6405,-3.6367,-3.6194,-3.5742,-3.527,-3.5144,-3.4781,-3.4361,-3.3809,-3.3709,-3.3571,-3.3187,-3.3124,-3.3124,-3.3124,-3.3124,-3.3124,-3.3124,-3.3124,-3.3124,-3.3124,-3.3124,-3.3124,0.0,0.0,-3.3124,-3.3124,-3.3124,-3.3124,-3.3124,-3.3124,-3.3124,-3.3124,-3.3124,-3.3124,-3.3124,-3.3124,-3.3124,-3.3124,-3.3124,-3.3124,-3.3124,-3.3124,-3.3124,-3.3124,-3.3124,-3.3124,-3.3124,-3.3124,-3.3124,-3.3124,-3.3124,-3.3124,-3.3174,-4.3738,-4.4018,-4.4227,-4.4227,-4.4227,-4.4227,-4.4227,-4.4227,-4.4227,-4.4227,-4.3932,-4.3738,-4.3738,-4.3469,-4.329,-4.329,-4.329,-4.329,-4.329,-4.329,-4.329,-4.329,-4.329,-4.329,-4.329,-4.329,-4.329,-4.329,-4.329,-4.329,-4.329,-4.329,-4.3036,-4.2508,-4.1891,-4.0986,-3.9988,-3.9929,-3.9285,-3.8315,-3.8153,-3.7802,-3.7289,-3.6628,-3.6405,-3.6405,-3.6405,-3.6405,-3.6405,-3.6405,-3.6405,-3.6405,-3.6405,-3.6405,-3.6405,-3.6405,-3.6405,-3.6405,-3.6405,-3.6405,-3.6405,-3.6405,-3.6405,-3.6405,-3.6405,-3.6132,-3.5843,-3.5558,-3.5257,-3.4881,-3.4374,-3.4274,-3.4098,-3.3545,-3.3458,-3.337,-3.3106,-3.3124,-3.3124,-3.3124,-3.3124,-3.3124,-3.3124,-3.3124,-3.3124,-3.3124,-3.3124,0.0,-3.3124,-3.3124,-3.3124,-3.3124,-3.3124,-3.3124,-3.3124,-3.3124,-3.3124,-3.3124,-3.3124,-3.3124,-3.3124,-3.3124,-3.3124,-3.3124,-3.3124,-3.3124,-3.3124,-3.3124,-3.3124,-3.3124,-3.3124,-3.3124,-3.3124,-3.3124,-3.3124,-3.3156,-4.4466,-4.4915,-4.5289,-4.5289,-4.5289,-4.5289,-4.5289,-4.5289,-4.5289,-4.5289,-4.4811,-4.4421,-4.4332,-4.3768,-4.3409,-4.3305,-4.329,-4.329,-4.329,-4.329,-4.329,-4.329,-4.329,-4.321,-4.3036,-4.286,-4.278,-4.278,-4.2955,-4.2955,-4.278,-4.313,-4.2603,-4.1337,-4.1337,-4.0161,-3.8153,-3.9006,-3.8225,-3.6499,-3.7461,-3.7289,-3.6405,-3.6405,-3.6405,-3.6405,-3.6405,-3.6405,-3.6405,-3.6405,-3.6405,-3.6405,-3.6405,-3.6405,-3.6405,-3.6405,-3.6405,-3.6405,-3.6405,-3.6405,-3.6405,-3.6405,-3.6405,-3.6405,-3.6405,-3.6405,-3.6267,-3.5768,-3.5621,-3.5458,-3.4906,-3.4806,-3.4663,-3.411,-3.4022,-3.3859,-3.3395,0.0,-3.3294,-3.3206,-3.3206,-3.3212,-3.3124,-3.3124,-3.3124,-3.3124,-3.3124,-3.3124,-3.3124,-3.3124,-3.3124,-3.3124,-3.3124,-3.3124,-3.3124,-3.3124,-3.3124,-3.3124,-3.3124,-3.3124,-3.3124,-3.3124,-3.3124,-3.3124,-3.3124,-3.3124,-3.3124,-3.3124,-3.3124,-3.3124,-3.3124,-3.3124,-3.3124,-3.3124,-3.3124,-3.3212,-4.514,-4.5229,-4.5289,-4.5289,-4.5289,-4.5289,-4.5289,-4.5289,-4.5289,-4.5289,-4.5214,-4.493,-4.4377,-4.4227,-4.3943,-4.3349,-4.329,-4.329,-4.329,-4.329,-4.329,-4.329,-4.329,-4.286,-4.1891,-4.093,-4.0418,-4.0418,-4.1393,-4.1393,-4.0461,-4.2386,-4.2167,-4.0145,-4.0145,-3.9404,-3.8062,-3.7289,-3.6722,-3.6405,-3.6581,-3.6534,-3.6405,-3.6405,-3.6405,-3.6405,-3.6405,-3.6405,-3.6405,-3.6405,-3.6405,-3.6405,-3.6405,-3.6405,-3.6405,-3.6405,-3.6405,-3.6405,-3.6405,-3.6405,-3.6405,-3.6405,-3.6405,-3.6405,-3.6405,-3.6405,-3.638,-3.6304,-3.6279,-3.6069,-3.547,-3.537,-3.5194,-3.4675,-3.46,-3.4562,-3.4474,0.0,-3.4299,-3.3822,-3.3771,-3.3583,-3.3162,-3.3124,-3.3124,-3.3124,-3.3124,-3.3124,-3.3124,-3.3124,-3.3124,-3.3124,-3.3124,-3.3124,-3.3124,-3.3124,-3.3124,-3.3124,-3.3124,-3.3124,-3.3124,-3.3124,-3.3124,-3.3124,-3.3124,-3.3124,-3.3124,-3.3124,-3.3124,-3.3124,-3.3124,-3.3124,-3.3124,-3.3124,-3.3124,-3.3219,-4.5843,-4.6142,-4.6381,-4.6381,-4.6381,-4.6381,-4.6381,-4.6381,-4.6381,-4.6381,-4.6067,-4.5456,-4.4466,-4.3763,-4.2984,-4.1993,-4.1635,-4.174,-4.233,-4.2941,-4.329,-4.329,-4.329,-4.2765,-4.1629,-4.1085,-4.049,-3.9899,-4.0447,-4.0404,-3.9899,-4.0972,-4.0575,-3.8917,-3.8917,-3.8302,-3.715,-3.6628,-3.6405,-3.6405,-3.6405,-3.6405,-3.6405,-3.6405,-3.6405,-3.6405,-3.6405,-3.6405,-3.6405,-3.6405,-3.6405,-3.6405,-3.6405,-3.6405,-3.6405,-3.6405,-3.6405,-3.6405,-3.6405,-3.6405,-3.6405,-3.6405,-3.6405,-3.6405,-3.6405,-3.6405,-3.6405,-3.6405,-3.6405,-3.6329,-3.6031,-3.5981,-3.5805,-3.5207,-3.5119,-3.5019,-3.4718,-3.468,-3.4625,-3.4374,-3.4349,-3.4248,-3.3985,-3.396,-3.396,-3.396,-3.396,-3.396,-3.396,-3.396,-3.396,-3.396,-3.3382,-3.3124,-3.3124,-3.3124,-3.3124,-3.3124,-3.3124,-3.3124,-3.3124,-3.3124,-3.3124,-3.3124,-3.3124,-3.3124,-3.3124,-3.3124,-3.3124,-3.3124,-3.3124,-3.3124,-3.3124,-3.3124,-3.3124,-3.3232,-4.6503,-4.6965,-4.7309,-4.7309,-4.7309,-4.7309,-4.7309,-4.7309,-4.7207,-4.6916,-4.6399,-4.5565,-4.411,-4.3122,-4.2047,-4.0813,-4.0311,-4.0515,-4.1518,-4.2412,-4.3036,-4.329,-4.278,-4.2085,-4.1211,-4.0675,-3.9944,-3.9108,-3.9373,-3.9373,-3.9108,-3.9637,-3.9094,-3.7723,-3.7984,-3.7461,-3.6405,-3.6405,-3.6405,-3.6405,-3.6405,-3.6405,-3.6405,-3.6405,-3.6405,-3.6405,-3.6405,-3.6405,-3.6405,-3.6405,-3.6405,-3.6405,-3.6405,-3.6405,-3.6405,-3.6405,-3.6405,-3.6405,-3.6405,-3.6405,-3.6405,-3.6405,-3.6405,-3.6405,-3.6405,-3.6405,-3.6405,-3.6405,-3.6405,-3.6405,-3.6405,-3.6405,-3.6267,-3.5805,0.0,-3.5592,-3.5165,-3.5102,-3.5052,-3.4881,-3.4868,-3.4818,-3.4693,-3.468,-3.468,-3.468,-3.468,-3.468,-3.468,-3.468,-3.468,-3.468,-3.3897,-3.3458,-3.3458,-3.3458,-3.3458,-3.3458,-3.3458,-3.3458,-3.3458,-3.3458,-3.3458,-3.3458,-3.3319,-3.3269,-3.3257,-3.3174,-3.3124,-3.3124,-3.3124,-3.3124,-3.3124,-3.3124,-3.3156,-3.3407,-4.7234,-4.7279,-4.7309,-4.7309,-4.7309,-4.7309,-4.7309,-4.7309,-4.6873,-4.5689,-4.551,-4.4724,-4.2847,-4.2569,-4.1998,-4.0807,-4.0669,-4.0934,-4.1547,-4.167,-4.2193,-4.325,-4.1267,-4.0116,-4.0029,-3.7906,-3.6756,-3.6675,-3.7723,-3.7678,-3.6722,-3.8885,-3.8707,-3.6581,-3.7632,-3.7461,-3.6405,-3.6405,-3.6405,-3.6405,-3.6405,-3.6405,-3.6405,-3.6405,-3.6405,-3.6405,-3.6405,-3.6405,-3.6405,-3.6405,-3.6405,-3.6405,-3.6405,-3.6405,-3.6405,-3.6405,-3.6405,-3.6405,-3.6405,-3.6405,-3.6405,-3.6405,-3.6405,-3.6405,-3.6405,-3.6405,-3.6405,-3.6405,-3.6405,-3.6405,-3.6405,-3.6405,-3.6405,-3.6355,0.0,0.0,-3.6292,-3.6279,-3.6056,-3.5495,-3.5445,-3.5245,-3.4731,-3.468,-3.468,-3.468,-3.468,-3.468,-3.468,-3.468,-3.468,-3.468,-3.4638,-3.46,-3.46,-3.46,-3.46,-3.46,-3.46,-3.46,-3.46,-3.46,-3.46,-3.4575,-3.406,-3.3847,-3.3796,-3.3282,-3.3124,-3.3124,-3.3124,-3.3124,-3.3124,-3.3124,-3.3395,-3.3922,-4.7309,-4.7309,-4.7309,-4.7309,-4.7309,-4.7309,-4.7309,-4.6638,-4.5973,-4.5448,-4.4688,-4.3657,-4.2102,-4.1657,-4.0933,-3.9694,-3.8942,-3.8919,-3.9846,-3.9612,-4.029,-4.2152,-4.1435,-4.0261,-3.8827,-3.7893,-3.7103,-3.6405,-3.6849,-3.6803,-3.6405,-3.7289,-3.7243,-3.6405,-3.6849,-3.6803,-3.6405,-3.6405,-3.6405,-3.6405,-3.6405,-3.6405,-3.6405,-3.6405,-3.6405,-3.6405,-3.6405,-3.6405,-3.6405,-3.6405,-3.6405,-3.6405,-3.6405,-3.6405,-3.6405,-3.6405,-3.6405,-3.6405,-3.6405,-3.6405,-3.6405,-3.6405,-3.6405,-3.6405,-3.6405,-3.6405,-3.6405,-3.6405,-3.6405,-3.6405,-3.6405,-3.6405,-3.6405,-3.6405,0.0,-3.6405,-3.6405,-3.6405,-3.6329,-3.6081,-3.6056,-3.5968,-3.5755,-3.5742,-3.5742,-3.5742,-3.5742,-3.5742,-3.5742,-3.5742,-3.5742,-3.5742,-3.5742,-3.5416,-3.4726,-3.468,-3.468,-3.468,-3.468,-3.468,-3.468,-3.468,-3.468,-3.4668,-3.45,-3.4412,-3.4399,-3.4186,-3.4098,-3.406,-3.3721,-3.3583,-3.3545,-3.3206,-3.342,-3.3985,-4.7309,-4.7309,-4.7309,-4.7309,-4.7309,-4.7164,-4.6785,-4.5973,-4.5115,-4.4303,-4.3456,-4.2412,-4.1119,-4.0681,-4.0048,-3.8982,-3.799,-3.7868,-3.8852,-3.8743,-3.939,-4.1,-4.0675,-3.9757,-3.8153,-3.7756,-3.7196,-3.6405,-3.6405,-3.6405,-3.6405,-3.6405,-3.6405,-3.6405,-3.6405,-3.6405,-3.6405,-3.6405,-3.6405,-3.6405,-3.6405,-3.6405,-3.6405,-3.6405,-3.6405,-3.6405,-3.6405,-3.6405,-3.6405,-3.6405,-3.6405,-3.6405,-3.6405,-3.6405,-3.6405,-3.6405,-3.6405,-3.6405,-3.6405,-3.6405,-3.6405,-3.6405,-3.6405,-3.6405,-3.6405,-3.6405,-3.6405,-3.6405,-3.6405,-3.6405,-3.6405,-3.6405,-3.6405,-3.6405,-3.6405,-3.6405,-3.6405,-3.6405,-3.6405,-3.6405,-3.6405,-3.6405,-3.6405,-3.6405,-3.6405,-3.6405,-3.6405,-3.6405,-3.6405,-3.6405,-3.6405,-3.6405,-3.6405,-3.5994,-3.524,-3.524,-3.524,-3.524,-3.524,-3.524,-3.524,-3.524,-3.524,-3.5228,-3.5006,-3.4931,-3.4919,-3.4756,-3.468,-3.4675,-3.4299,-3.4161,-3.411,-3.3734,-3.3935,-3.4474,-4.7309,-4.7309,-4.7309,-4.7309,-4.7309,-4.6873,-4.5584,-4.5403,-4.4456,-4.1936,-4.1604,-4.1082,-3.9839,-3.9697,-3.9471,-3.8931,-3.8341,-3.8276,-3.8832,-3.9522,-3.9855,-3.9855,-3.8738,-3.8107,-3.8107,-3.6977,-3.6405,-3.6405,-3.6405,-3.6405,-3.6405,-3.6405,-3.6405,-3.6405,-3.6405,-3.6405,-3.6405,-3.6405,-3.6405,-3.6405,-3.6405,-3.6405,-3.6405,-3.6405,-3.6405,-3.6405,-3.6405,-3.6405,-3.6405,-3.6405,-3.6405,-3.6405,-3.6405,-3.6405,-3.6405,-3.6405,-3.6405,-3.6405,-3.6405,-3.6405,-3.6405,-3.6405,-3.6405,-3.6405,-3.6405,-3.6405,-3.6405,-3.6405,-3.6405,-3.6405,-3.6405,-3.6405,-3.6405,-3.6405,-3.6405,-3.6405,-3.6405,-3.6405,-3.6405,-3.6405,-3.6405,-3.6405,-3.6405,-3.6405,-3.6405,-3.6405,-3.6405,-3.6405,-3.6405,-3.6405,-3.6405,-3.6405,-3.6405,-3.6405,-3.6405,-3.6405,-3.6405,-3.6405,-3.6405,-3.6405,-3.6405,-3.6405,-3.6405,-3.638,-3.5793,-3.5508,-3.547,-3.4919,-3.4726,-3.4726,-3.4726,-3.4726,-3.4726,-3.468,-3.5019,-3.5495,-4.7309,-4.7309,-4.7309,-4.7309,-4.655,-4.5824,-4.5448,-4.3882,-4.2461,-4.169,-4.0844,-4.0121,-3.9736,-3.9697,-3.9634,-3.9471,-3.8931,-3.8389,-3.7741,-3.7565,-3.7428,-3.7428,-3.7861,-3.7723,-3.693,-3.6581,-3.6405,-3.6405,-3.6405,-3.6405,-3.6405,-3.6405,-3.6405,-3.6405,-3.6405,-3.6405,-3.6405,-3.6405,-3.6405,-3.6405,-3.6405,-3.6405,-3.6405,-3.6405,-3.6405,-3.6405,-3.6405,-3.6405,-3.6405,-3.6405,-3.6405,-3.6405,-3.6405,-3.6405,-3.6405,-3.6405,-3.6405,-3.6405,-3.6405,-3.6405,-3.6405,-3.6405,-3.6405,-3.6405,-3.6405,-3.6405,-3.6405,-3.6405,-3.6405,-3.6405,-3.6405,-3.6405,-3.6405,-3.6405,-3.6405,-3.6405,-3.6405,-3.6405,-3.6405,-3.6405,-3.6405,-3.6405,-3.6405,-3.6405,-3.6405,-3.6405,-3.6405,-3.6405,-3.6405,-3.6405,-3.6405,-3.6405,-3.6405,-3.6405,-3.6405,-3.6405,-3.6405,-3.6405,-3.6405,-3.6405,-3.6405,-3.6405,-3.6405,-3.6405,-3.6194,-3.6119,-3.6107,-3.5943,-3.5868,-3.583,-3.5454,-3.5257,-3.5207,-3.4818,-3.5019,-3.5495,-4.7309,-4.6873,-4.6535,-4.6535,-4.5494,-4.4503,-4.3975,-4.2593,-4.1406,-4.0882,-4.0173,-3.9697,-3.9697,-3.9697,-3.9697,-3.9697,-3.8981,-3.814,-3.7249,-3.6719,-3.6405,-3.6405,-3.707,-3.7103,-3.6405,-3.6405,-3.6405,-3.6405,-3.6405,-3.6405,-3.6405,-3.6405,-3.6405,-3.6405,-3.6405,-3.6405,-3.6405,-3.6405,-3.6405,-3.6405,-3.6405,-3.6405,-3.6405,-3.6405,-3.6405,-3.6405,-3.6405,-3.6405,-3.6405,-3.6405,-3.6405,-3.6405,-3.6405,-3.6405,-3.6405,-3.6405,-3.6405,-3.6405,-3.6405,-3.6405,-3.6405,-3.6405,-3.6405,-3.6405,-3.6405,-3.6405,-3.6405,-3.6405,-3.6405,-3.6405,-3.6405,-3.6405,-3.6405,-3.6405,-3.6405,-3.6405,-3.6405,-3.6405,-3.6405,-3.6405,-3.6405,-3.6405,-3.6405,-3.6405,-3.6405,-3.6405,-3.6405,-3.6405,-3.6405,-3.6405,-3.6405,-3.6405,-3.6405,-3.6405,-3.6405,-3.6405,-3.6405,-3.6405,-3.6405,-3.6405,-3.6405,-3.6405,-3.6405,-3.6405,-3.6405,-3.6405,-3.6405,-3.6405,-3.6405,-3.6367,-3.5994,-3.5868,-3.583,-3.5491,-3.5579,-3.5868,-4.7121,-4.6107,-4.5207,-4.5207,-4.4163,-4.293,-4.1789,-4.1505,-4.1032,-3.9839,-3.9697,-3.9697,-3.9697,-3.9697,-3.9697,-3.9697,-3.8705,-3.7852,-3.7299,-3.6782,-3.6455,-3.6405,-3.6405,-3.6405,-3.6405,-3.6405,-3.6405,-3.6405,-3.6405,-3.6405,-3.6405,-3.6405,-3.6405,-3.6405,-3.6405,-3.6405,-3.6405,-3.6405,-3.6405,-3.6405,-3.6405,-3.6405,-3.6405,-3.6405,-3.6405,-3.6405,-3.6405,-3.6405,-3.6405,-3.6405,-3.6405,-3.6405,-3.6405,-3.6405,-3.6405,-3.6405,-3.6405,-3.6405,-3.6405,-3.6405,-3.6405,-3.6405,-3.6405,-3.6405,-3.6405,-3.6405,-3.6405,-3.6405,-3.6405,-3.6405,-3.6405,-3.6405,-3.6405,-3.6405,-3.6405,-3.6405,-3.6405,-3.6405,-3.6405,-3.6405,-3.6405,-3.6405,-3.6405,-3.6405,-3.6405,-3.6405,-3.6405,-3.6405,-3.6405,-3.6405,-3.6405,-3.6405,-3.6405,-3.6405,-3.6405,-3.6405,-3.6405,-3.6405,-3.6405,-3.6405,-3.6405,-3.6405,-3.6405,-3.6405,-3.6405,-3.6405,-3.6405,-3.6405,-3.6405,-3.6405,-3.6405,-3.6405,-3.6405,-3.6405,-3.6405,-3.6405,-4.5824,-4.478,-4.3929,-4.3929,-4.2882,-4.1936,-4.1654,-4.0743,-4.0032,-3.9736,-3.9697,-3.9697,-3.9697,-3.9697,-3.9697,-3.9697,-3.9069,-3.8442,-3.7864,-3.7312,-3.6857,-3.643,-3.6405,-3.6405,-3.6405,-3.6405,-3.6405,-3.6405,-3.6405,-3.6405,-3.6405,-3.6405,-3.6405,-3.6405,-3.6405,-3.6405,-3.6405,-3.6405,-3.6405,-3.6405,-3.6405,-3.6405,-3.6405,-3.6405,-3.6405,-3.6405,-3.6405,-3.6405,-3.6405,-3.6405,-3.6405,-3.6405,-3.6405,-3.6405,-3.6405,-3.6405,-3.6405,-3.6405,-3.6405,-3.6405,-3.6405,-3.6405,-3.6405,-3.6405,-3.6405,-3.6405,-3.6405,-3.6405,-3.6405,-3.6405,-3.6405,-3.6405,-3.6405,-3.6405,-3.6405,-3.6405,-3.6405,-3.6405,-3.6405,-3.6405,-3.6405,-3.6405,-3.6405,-3.6405,-3.6405,-3.6405,-3.6405,-3.6405,-3.6405,-3.6405,-3.6405,-3.6405,-3.6405,-3.6405,-3.6405,-3.6405,-3.6405,-3.6405,-3.6405,-3.6405,-3.6405,-3.6405,-3.6405,-3.6405,-3.6405,-3.6405,-3.6405,-3.6405,-3.6405,-3.6405,-3.6405,-3.6405,-3.6405,-3.6405,-3.6405,-3.6405,-4.4503,-4.3456,-4.2593,-4.2593,-4.1555,-4.0693,-4.0693,-4.0121,-3.9697,-3.9697,-3.9697,-3.9697,-3.9697,-3.9697,-3.9697,-3.9697,-3.9195,-3.8793,-3.8442,-3.7651,-3.7048,-3.6807,-3.6556,-3.6405,-3.6405,-3.6405,-3.6405,-3.6405,-3.6405,-3.6405,-3.6405,-3.6405,-3.6405,-3.6405,-3.6405,-3.6405,-3.6405,-3.6405,-3.6405,-3.6405,-3.6405,-3.6405,-3.6405,-3.6405,-3.6405,-3.6405,-3.6405,-3.6405,-3.6405,-3.6405,-3.6405,-3.6405,-3.6405,-3.6405,-3.6405,-3.6405,-3.6405,-3.6405,-3.6405,-3.6405,-3.6405,-3.6405,-3.6405,-3.6405,-3.6405,-3.6405,-3.6405,-3.6405,-3.6405,-3.6405,-3.6405,-3.6405,-3.6405,-3.6405,-3.6405,-3.6405,-3.6405,-3.6405,-3.6405,-3.6405,-3.6405,-3.6405,-3.6405,-3.6405,-3.6405,-3.6405,-3.6405,-3.6405,-3.6405,-3.6405,-3.6405,-3.6405,-3.6405,-3.6405,-3.6405,-3.6405,-3.6405,-3.6405,-3.6405,-3.6405,-3.6405,-3.6405,-3.6405,-3.6405,-3.6405,-3.6405,-3.6405,-3.6405,-3.6405,-3.6405,-3.6405,-3.6405,-3.6405,-3.6405,-3.6405,-3.6405,-4.317,-4.2168,-4.1269,-4.1269,-4.0415,-3.9697,-3.9697,-3.9697,-3.9697,-3.9697,-3.9697,-3.9697,-3.9697,-3.9697,-3.9697,-3.9697,-3.927,-3.902,-3.8932,-3.8039,-3.7387,-3.7199,-3.6795,-3.6505,-3.6405,-3.6405,-3.6405,-3.6405,-3.6405,-3.6405,-3.6405,-3.6405,-3.6405,-3.6405,-3.6405,-3.6405,-3.6405,-3.6405,-3.6405,-3.6405,-3.6405,-3.6405,-3.6405,-3.6405,-3.6405,-3.6405,-3.6405,-3.6405,-3.6405,-3.6405,-3.6405,-3.6405,-3.6405,-3.6405,-3.6405,-3.6405,-3.6405,-3.6405,-3.6405,-3.6405,-3.6405,-3.6405,-3.6405,-3.6405,-3.6405,-3.6405,-3.6405,-3.6405,-3.6405,-3.6405,-3.6405,-3.6405,-3.6405,-3.6405,-3.6405,-3.6405,-3.6405,-3.6405,-3.6405,-3.6405,-3.6405,-3.6405,-3.6405,-3.6405,-3.6405,-3.6405,-3.6405,-3.6405,-3.6405,-3.6405,-3.6405,-3.6405,-3.6405,-3.6405,-3.6405,-3.6405,-3.6405,-3.6405,-3.6405,-3.6405,-3.6405,-3.6405,-3.6405,-3.6405,-3.6405,-3.6405,-3.6405,-3.6405,-3.6405,-3.6405,-3.6405,-3.6405,-3.6405,-3.6405,-3.6405,-3.6405,-4.1838,-4.0844,-3.9981,-3.9981,-3.9788,-3.9697,-3.9697,-3.9697,-3.9697,-3.9697,-3.9697,-3.9697,-3.9697,-3.9697,-3.9697,-3.9697,-3.9622,-3.9383,-3.8957,-3.8781,-3.8253,-3.7224,-3.7111,-3.6895,-3.6417,-3.6405,-3.6405,-3.6405,-3.6405,-3.6405,-3.6405,-3.6405,-3.6405,-3.6405,-3.6405,-3.6405,-3.6405,-3.6405,-3.6405,-3.6405,-3.6405,-3.6405,-3.6405,-3.6405,-3.6405,-3.6405,-3.6405,-3.6405,-3.6405,-3.6405,-3.6405,-3.6405,-3.6405,-3.6405,-3.6405,-3.6405,-3.6405,-3.6405,-3.6405,-3.6405,-3.6405,-3.6405,-3.6405,-3.6405,-3.6405,-3.6405,-3.6405,-3.6405,-3.6405,-3.6405,-3.6405,-3.6405,-3.6405,-3.6405,-3.6405,-3.6405,-3.6405,-3.6405,-3.6405,-3.6405,-3.6405,-3.6405,-3.6405,-3.6405,-3.6405,-3.6405,-3.6405,-3.6405,-3.6405,-3.6405,-3.6405,-3.6405,-3.6405,-3.6405,-3.6405,-3.6405,-3.6405,-3.6405,-3.6405,-3.6405,-3.6405,-3.6405,-3.6405,-3.6405,-3.6405,-3.6405,-3.6405,-3.6405,-3.6405,-3.6405,-3.6405,-3.6405,-3.6405,-3.6405,-3.6405,-3.6405,-4.0554,-4.007,-3.9697,-3.9697,-3.9697,-3.9697,-3.9697,-3.9697,-3.9697,-3.9697,-3.9697,-3.9697,-3.9697,-3.9697,-3.9697,-3.9697,-3.9697,-3.9584,-3.9346,-3.9095,-3.8705,-3.814,-3.7525,-3.7073,-3.6822,-3.6568,-3.6405,-3.6405,-3.6405,-3.6405,-3.6405,-3.6405,-3.6405,-3.6405,-3.6405,-3.6405,-3.6405,-3.6405,-3.6405,-3.6405,-3.6405,-3.6405,-3.6405,-3.6405,-3.6405,-3.6405,-3.6405,-3.6405,-3.6405,-3.6405,-3.6405,-3.6405,-3.6405,-3.6405,-3.6405,-3.6405,-3.6405,-3.6405,-3.6405,-3.6405,-3.6405,-3.6405,-3.6405,-3.6405,-3.6405,-3.6405,-3.6405,-3.6405,-3.6405,-3.6405,-3.6405,-3.6405,-3.6405,-3.6405,-3.6405,-3.6405,-3.6405,-3.6405,-3.6405,-3.6405,-3.6405,-3.6405,-3.6405,-3.6405,-3.6405,-3.6405,-3.6405,-3.6405,-3.6405,-3.6405,-3.6405,-3.6405,-3.6405,-3.6405,-3.6405,-3.6405,-3.6405,-3.6405,-3.6405,-3.6405,-3.6405,-3.6405,-3.6405,-3.6405,-3.6405,-3.6405,-3.6405,-3.6405,-3.6405,-3.6405,-3.6405,-3.6405,-3.6405,-3.6405,-3.6405,-3.6405]},{"header":{"parameterUnit":"m.s-1","parameterCategory":1,"la1":30.6,"la2":28.766,"lo1":-90.7593,"lo2":-88.6598,"dy":0.0162,"dx":0.0183,"nx":116,"ny":114,"refTime":"2024-04-28T18:00:00:Z","depth":0,"parameterNumber":3,"parameterNumberName":"V-component_of_WINDS"},"data":[0.0,0.0,0.0,0.0,0.0,0.0,0.0,0.0,0.0,0.0,0.0,0.0,0.0,0.0,0.0,0.0,0.0,0.0,0.0,0.0,0.0,0.0,0.0,0.0,0.0,0.0,0.0,0.0,0.0,0.0,0.0,0.0,0.0,0.0,0.0,0.0,0.0,0.0,0.0,0.0,0.0,0.0,0.0,0.0,0.0,0.0,0.0,0.0,0.0,0.0,0.0,0.0,0.0,0.0,0.0,0.0,0.0,0.0,0.0,0.0,0.0,0.0,0.0,0.0,0.0,0.0,0.0,0.0,0.0,0.0,0.0,0.0,0.0,0.0,0.0,0.0,0.0,0.0,0.0,0.0,0.0,0.0,0.0,0.0,0.0,0.0,0.0,0.0,0.0,0.0,0.0,0.0,0.0,0.0,0.0,0.0,0.0,0.0,0.0,0.0,0.0,0.0,0.0,0.0,0.0,0.0,0.0,0.0,0.0,0.0,0.0,0.0,0.0,0.0,0.0,0.0,0.0,0.0,0.0,0.0,0.0,0.0,0.0,0.0,0.0,0.0,0.0,0.0,0.0,0.0,0.0,0.0,0.0,0.0,0.0,0.0,0.0,0.0,0.0,0.0,0.0,0.0,0.0,0.0,0.0,0.0,0.0,0.0,0.0,0.0,0.0,0.0,0.0,0.0,0.0,0.0,0.0,0.0,0.0,0.0,0.0,0.0,0.0,0.0,0.0,0.0,0.0,0.0,0.0,0.0,0.0,0.0,0.0,0.0,0.0,0.0,0.0,0.0,0.0,0.0,0.0,0.0,0.0,0.0,0.0,0.0,0.0,0.0,0.0,0.0,0.0,0.0,0.0,0.0,0.0,0.0,0.0,0.0,0.0,0.0,0.0,0.0,0.0,0.0,0.0,0.0,0.0,0.0,0.0,0.0,0.0,0.0,0.0,0.0,0.0,0.0,0.0,0.0,0.0,0.0,0.0,0.0,0.0,0.0,0.0,0.0,0.0,0.0,0.0,0.0,0.0,0.0,0.0,0.0,0.0,0.0,0.0,0.0,0.0,0.0,0.0,0.0,0.0,0.0,0.0,0.0,0.0,0.0,0.0,0.0,0.0,0.0,0.0,0.0,0.0,0.0,0.0,0.0,0.0,0.0,0.0,0.0,0.0,0.0,0.0,0.0,0.0,0.0,0.0,0.0,0.0,0.0,0.0,0.0,0.0,0.0,0.0,0.0,0.0,0.0,0.0,0.0,0.0,0.0,0.0,0.0,0.0,0.0,0.0,0.0,0.0,0.0,0.0,0.0,0.0,0.0,0.0,0.0,0.0,0.0,0.0,0.0,0.0,0.0,0.0,0.0,0.0,0.0,0.0,0.0,0.0,0.0,0.0,0.0,0.0,0.0,0.0,0.0,0.0,0.0,0.0,0.0,0.0,0.0,0.0,0.0,0.0,0.0,0.0,0.0,0.0,0.0,0.0,0.0,0.0,0.0,0.0,0.0,0.0,0.0,0.0,0.0,0.0,0.0,0.0,0.0,0.0,0.0,0.0,0.0,0.0,0.0,0.0,0.0,0.0,0.0,0.0,0.0,0.0,0.0,0.0,0.0,0.0,0.0,0.0,0.0,0.0,0.0,0.0,0.0,0.0,0.0,0.0,0.0,0.0,0.0,0.0,0.0,0.0,0.0,0.0,0.0,0.0,0.0,0.0,0.0,0.0,0.0,0.0,0.0,0.0,0.0,0.0,0.0,0.0,0.0,0.0,0.0,0.0,0.0,0.0,0.0,0.0,0.0,0.0,0.0,0.0,0.0,0.0,0.0,0.0,0.0,0.0,0.0,0.0,0.0,0.0,0.0,0.0,0.0,0.0,0.0,0.0,0.0,0.0,0.0,0.0,0.0,0.0,0.0,0.0,0.0,0.0,0.0,0.0,0.0,0.0,0.0,0.0,0.0,0.0,0.0,0.0,0.0,0.0,0.0,0.0,0.0,0.0,0.0,0.0,0.0,0.0,0.0,0.0,0.0,0.0,0.0,0.0,0.0,0.0,0.0,0.0,0.0,0.0,0.0,0.0,0.0,0.0,0.0,0.0,0.0,0.0,0.0,0.0,0.0,0.0,0.0,0.0,0.0,0.0,0.0,0.0,0.0,0.0,0.0,0.0,0.0,0.0,0.0,0.0,0.0,0.0,0.0,0.0,0.0,0.0,0.0,0.0,0.0,0.0,0.0,0.0,0.0,0.0,0.0,0.0,0.0,0.0,0.0,0.0,0.0,0.0,0.0,0.0,0.0,0.0,0.0,0.0,0.0,0.0,0.0,0.0,0.0,0.0,0.0,0.0,0.0,0.0,0.0,0.0,0.0,0.0,0.0,0.0,0.0,0.0,0.0,0.0,0.0,0.0,0.0,0.0,0.0,0.0,0.0,0.0,0.0,0.0,0.0,0.0,0.0,0.0,0.0,0.0,0.0,0.0,0.0,0.0,0.0,0.0,0.0,0.0,0.0,0.0,0.0,0.0,0.0,0.0,0.0,0.0,0.0,0.0,0.0,0.0,0.0,0.0,0.0,0.0,0.0,0.0,0.0,0.0,0.0,0.0,0.0,0.0,0.0,0.0,0.0,0.0,0.0,0.0,0.0,0.0,0.0,0.0,0.0,0.0,0.0,0.0,0.0,0.0,0.0,0.0,0.0,0.0,0.0,0.0,0.0,0.0,0.0,0.0,0.0,0.0,0.0,0.0,0.0,0.0,0.0,0.0,0.0,0.0,0.0,0.0,0.0,0.0,0.0,0.0,0.0,0.0,0.0,0.0,0.0,0.0,0.0,0.0,0.0,0.0,0.0,0.0,0.0,0.0,0.0,0.0,0.0,0.0,0.0,0.0,0.0,0.0,0.0,0.0,0.0,0.0,0.0,0.0,0.0,0.0,0.0,0.0,0.0,0.0,0.0,0.0,0.0,0.0,0.0,0.0,0.0,0.0,0.0,0.0,0.0,0.0,0.0,0.0,0.0,0.0,0.0,0.0,0.0,0.0,0.0,0.0,0.0,0.0,0.0,0.0,0.0,0.0,0.0,0.0,0.0,0.0,0.0,0.0,0.0,0.0,0.0,0.0,0.0,0.0,0.0,0.0,0.0,0.0,0.0,0.0,0.0,0.0,0.0,0.0,0.0,0.0,0.0,0.0,0.0,0.0,0.0,0.0,0.0,0.0,0.0,0.0,0.0,0.0,0.0,0.0,0.0,0.0,0.0,0.0,0.0,0.0,0.0,0.0,0.0,0.0,0.0,0.0,0.0,0.0,0.0,0.0,0.0,0.0,0.0,0.0,0.0,0.0,0.0,0.0,0.0,0.0,0.0,0.0,0.0,0.0,0.0,0.0,0.0,0.0,0.0,0.0,0.0,0.0,0.0,0.0,0.0,0.0,0.0,0.0,0.0,0.0,0.0,0.0,0.0,0.0,0.0,0.0,0.0,0.0,0.0,0.0,0.0,0.0,0.0,0.0,0.0,0.0,0.0,0.0,0.0,0.0,0.0,0.0,0.0,0.0,0.0,0.0,0.0,0.0,0.0,0.0,0.0,0.0,0.0,0.0,0.0,0.0,0.0,0.0,0.0,0.0,0.0,0.0,0.0,0.0,0.0,0.0,0.0,0.0,0.0,0.0,0.0,0.0,0.0,0.0,0.0,0.0,0.0,0.0,0.0,0.0,0.0,0.0,0.0,0.0,0.0,0.0,0.0,0.0,0.0,0.0,0.0,0.0,0.0,0.0,0.0,0.0,0.0,0.0,0.0,0.0,0.0,0.0,0.0,0.0,0.0,0.0,0.0,0.0,0.0,0.0,0.0,0.0,0.0,0.0,0.0,0.0,0.0,0.0,0.0,0.0,0.0,0.0,0.0,0.0,0.0,0.0,0.0,0.0,0.0,0.0,0.0,0.0,0.0,0.0,0.0,0.0,0.0,0.0,0.0,0.0,0.0,0.0,0.0,0.0,0.0,0.0,0.0,0.0,0.0,0.0,0.0,0.0,0.0,0.0,0.0,0.0,0.0,0.0,0.0,0.0,0.0,0.0,0.0,0.0,0.0,0.0,0.0,0.0,0.0,0.0,0.0,0.0,0.0,0.0,0.0,0.0,0.0,0.0,0.0,0.0,0.0,0.0,0.0,0.0,0.0,0.0,0.0,0.0,0.0,0.0,0.0,0.0,0.0,0.0,0.0,0.0,0.0,0.0,0.0,0.0,0.0,0.0,0.0,0.0,0.0,0.0,0.0,0.0,0.0,0.0,0.0,0.0,0.0,0.0,0.0,0.0,0.0,0.0,0.0,0.0,0.0,0.0,0.0,0.0,0.0,0.0,0.0,0.0,0.0,0.0,0.0,0.0,0.0,0.0,0.0,0.0,0.0,0.0,0.0,0.0,0.0,0.0,0.0,0.0,0.0,0.0,0.0,0.0,0.0,0.0,0.0,0.0,0.0,0.0,0.0,0.0,0.0,0.0,0.0,0.0,0.0,0.0,0.0,0.0,0.0,0.0,0.0,0.0,0.0,0.0,0.0,0.0,0.0,0.0,0.0,0.0,0.0,0.0,0.0,0.0,0.0,0.0,0.0,0.0,0.0,0.0,0.0,0.0,0.0,0.0,0.0,0.0,0.0,0.0,0.0,0.0,0.0,0.0,0.0,0.0,0.0,0.0,0.0,0.0,0.0,0.0,0.0,0.0,0.0,0.0,0.0,0.0,0.0,0.0,0.0,0.0,0.0,0.0,0.0,0.0,0.0,0.0,0.0,0.0,0.0,0.0,0.0,0.0,0.0,0.0,0.0,0.0,0.0,0.0,0.0,0.0,0.0,0.0,0.0,0.0,0.0,0.0,0.0,0.0,0.0,0.0,0.0,0.0,0.0,0.0,0.0,0.0,0.0,0.0,0.0,0.0,0.0,0.0,0.0,0.0,0.0,0.0,0.0,0.0,0.0,0.0,0.0,0.0,0.0,0.0,0.0,0.0,0.0,0.0,0.0,0.0,0.0,0.0,0.0,0.0,0.0,0.0,0.0,0.0,0.0,0.0,0.0,0.0,0.0,0.0,0.0,0.0,0.0,0.0,0.0,0.0,0.0,0.0,0.0,0.0,0.0,0.0,0.0,0.0,0.0,0.0,0.0,0.0,0.0,0.0,0.0,0.0,0.0,0.0,0.0,0.0,0.0,0.0,0.0,0.0,0.0,0.0,0.0,0.0,0.0,0.0,0.0,0.0,0.0,0.0,0.0,0.0,0.0,0.0,0.0,0.0,0.0,0.0,0.0,0.0,0.0,0.0,0.0,0.0,0.0,0.0,0.0,0.0,0.0,0.0,0.0,0.0,0.0,0.0,0.0,0.0,0.0,0.0,0.0,0.0,0.0,0.0,0.0,0.0,0.0,0.0,0.0,0.0,0.0,0.0,0.0,0.0,0.0,0.0,0.0,0.0,0.0,0.0,0.0,0.0,0.0,0.0,0.0,0.0,0.0,0.0,0.0,0.0,0.0,0.0,0.0,0.0,0.0,0.0,0.0,0.0,0.0,0.0,0.0,0.0,0.0,0.0,0.0,0.0,0.0,0.0,0.0,0.0,0.0,0.0,0.0,0.0,0.0,0.0,0.0,0.0,0.0,0.0,0.0,0.0,0.0,0.0,0.0,0.0,0.0,0.0,0.0,0.0,0.0,0.0,0.0,0.0,0.0,0.0,0.0,0.0,0.0,0.0,0.0,0.0,0.0,0.0,0.0,0.0,0.0,0.0,0.0,0.0,0.0,0.0,0.0,0.0,0.0,0.0,0.0,0.0,0.0,0.0,0.0,0.0,0.0,0.0,0.0,0.0,0.0,0.0,0.0,0.0,0.0,0.0,0.0,0.0,0.0,0.0,0.0,0.0,0.0,0.0,0.0,0.0,0.0,0.0,0.0,0.0,0.0,0.0,0.0,0.0,0.0,0.0,0.0,0.0,0.0,0.0,0.0,0.0,0.0,0.0,0.0,0.0,0.0,0.0,0.0,0.0,0.0,0.0,0.0,0.0,0.0,0.0,0.0,0.0,0.0,0.0,0.0,0.0,0.0,0.0,0.0,0.0,0.0,0.0,0.0,0.0,0.0,0.8163,0.7973,0.0,0.0,0.0,0.0,0.0,0.0,0.0,0.0,0.0,0.0,0.0,0.0,0.0,0.0,0.0,0.0,0.0,0.0,0.0,0.0,0.0,0.0,0.0,2.3091,2.3343,2.392,2.3963,2.4723,2.6389,2.7005,0.0,0.0,0.0,0.0,2.8976,2.9233,2.9631,3.0181,2.9581,2.7977,2.5469,2.4266,2.3491,2.311,0.0,0.0,0.0,0.0,0.0,0.0,0.0,0.0,0.0,0.0,0.0,0.0,0.0,0.0,0.0,0.0,0.0,0.0,0.0,0.0,0.0,0.0,0.0,0.0,0.0,0.0,0.0,0.0,0.0,0.0,0.0,0.0,0.0,0.0,0.0,0.0,0.0,0.0,0.0,0.0,0.0,0.0,0.0,0.0,0.0,0.0,0.0,0.0,0.0,0.0,0.0,0.0,0.0,0.0,0.0,0.0,0.0,0.0,0.0,0.0,0.0,0.0,0.0,0.0,0.0,0.0,0.0,0.0,0.0,0.0,0.8747,0.7782,0.0,0.0,0.0,0.0,0.0,0.0,0.0,0.0,0.0,0.0,0.0,0.0,0.0,0.0,0.0,0.0,0.0,0.0,0.0,0.0,0.0,2.3091,2.3091,2.3256,2.3387,2.3387,2.3594,2.4478,2.6389,2.6678,2.7157,2.8044,2.8391,2.8519,2.8519,2.9076,2.9691,3.0412,2.851,2.6662,2.4845,2.4624,2.4111,2.3325,2.3662,0.0,0.0,0.0,0.0,0.0,0.0,0.0,0.0,0.0,0.0,0.0,0.0,0.0,0.0,0.0,0.0,0.0,0.0,0.0,0.0,0.0,0.0,0.0,0.0,0.0,0.0,0.0,0.0,0.0,0.0,0.0,0.0,0.0,0.0,0.0,0.0,0.0,0.0,0.0,0.0,0.0,0.0,0.0,0.0,0.0,0.0,0.0,0.0,0.0,0.0,0.0,0.0,0.0,0.0,0.0,0.0,0.0,0.0,0.0,0.0,0.0,0.0,0.0,1.5585,1.5332,1.5126,1.4898,1.4014,1.2437,0.9192,0.7706,0.7487,0.7224,0.0,0.0,0.0,0.0,0.0,0.0,0.0,0.0,0.0,0.0,0.0,0.0,0.0,0.0,0.0,0.0,0.0,0.0,0.0,2.3091,2.3091,2.3963,2.4585,2.4585,2.5473,2.6182,2.6472,2.7371,2.7964,2.8084,2.9469,3.0284,3.0284,3.0795,3.0634,2.9738,2.7469,2.6403,2.6572,2.5488,2.4717,2.4238,2.3926,2.376,2.3682,0.0,0.0,0.0,0.0,0.0,0.0,0.0,0.0,0.0,0.0,0.0,0.0,0.0,0.0,0.0,0.0,0.0,0.0,0.0,0.0,0.0,0.0,0.0,0.0,0.0,0.0,0.0,0.0,0.0,0.0,0.0,0.0,0.0,0.0,0.0,0.0,0.0,0.0,0.0,0.0,0.0,2.2633,2.1436,0.0,0.0,0.0,0.0,0.0,0.0,0.0,0.0,0.0,0.0,0.0,0.0,0.0,1.5784,1.5784,1.5784,1.5784,1.5784,1.5744,1.5184,1.4112,1.4082,1.2654,1.0195,0.9698,0.0,0.8902,0.7835,0.0,0.0,0.0,0.0,0.0,0.0,0.0,0.0,0.0,0.0,0.0,0.0,0.0,0.0,0.0,0.0,0.0,0.0,0.0,0.0,0.0,2.3551,2.3833,2.3833,2.4307,2.4851,2.5504,2.6584,2.7609,2.8512,2.9875,3.0758,3.1047,3.0918,3.0064,2.8499,2.743,2.6724,2.6232,2.5669,2.5342,2.5089,2.4697,2.4375,2.4111,2.3682,0.0,0.0,0.0,0.0,0.0,0.0,0.0,0.0,0.0,0.0,0.0,0.0,0.0,0.0,0.0,0.0,0.0,0.0,0.0,0.0,0.0,0.0,0.0,0.0,0.0,0.0,0.0,0.0,0.0,0.0,0.0,0.0,0.0,0.0,0.0,0.0,0.0,0.0,0.0,2.3091,2.2906,2.235,2.2306,2.2031,0.0,0.0,0.0,0.0,0.0,0.0,0.0,0.0,0.0,1.5784,1.5784,1.5784,1.5784,1.5784,1.5784,1.5784,1.5784,1.5486,1.4949,1.4949,1.4303,1.3132,1.2411,1.1564,1.0482,0.8359,0.7411,0.7272,0.0,0.0,0.0,0.0,0.7095,0.7095,0.0,0.0,0.0,0.0,0.0,0.0,0.0,0.0,0.0,0.0,0.0,0.0,2.3091,2.3343,2.3551,2.3551,2.38,2.4467,2.5566,2.6461,2.7644,2.9277,2.9959,3.0588,3.115,3.0194,2.8992,2.7589,2.7268,2.662,2.5693,2.5693,2.5693,2.5674,2.5391,2.5,2.4551,2.4131,2.3945,2.3916,0.0,0.0,0.0,0.0,0.0,0.0,0.0,0.0,0.0,0.0,0.0,0.0,0.0,0.0,0.0,0.0,0.0,0.0,0.0,0.0,0.0,0.0,0.0,0.0,0.0,0.0,0.0,0.0,0.0,0.0,0.0,0.0,0.0,0.0,0.0,0.0,0.0,2.3167,2.3334,2.3003,2.3235,2.3092,0.0,0.0,0.0,0.0,0.0,0.0,1.7077,1.6751,1.6519,1.6519,1.619,1.6019,1.5945,1.5945,1.5905,1.5784,1.5784,1.5784,1.5784,1.5784,1.5635,1.5242,1.4316,1.3093,1.1582,0.9171,0.789,0.7431,0.7431,0.7336,0.72,0.72,0.7129,0.7095,0.0,0.0,0.0,0.0,0.0,0.0,0.0,0.0,0.0,0.0,0.0,2.3091,2.3091,2.4092,2.4702,2.4702,2.5714,2.6801,2.7844,2.8004,2.8759,3.0423,2.9973,2.991,3.0434,2.8671,2.7699,2.7589,2.639,2.5781,2.5693,2.5693,2.5693,2.5693,2.5664,2.5449,2.501,2.457,2.4385,2.4385,2.4355,0.0,0.0,0.0,0.0,0.0,0.0,0.0,0.0,0.0,0.0,0.0,0.0,0.0,0.0,0.0,0.0,0.0,0.0,0.0,0.0,0.0,0.0,0.0,0.0,0.0,0.0,0.0,0.0,0.0,0.0,0.0,0.0,0.0,0.0,0.0,0.0,0.0,0.0,2.2738,2.3643,0.0,0.0,0.0,0.0,2.2353,2.1237,2.056,2.056,1.9272,1.8547,1.8547,1.7343,1.6526,1.6301,1.6253,1.6112,1.5784,1.5784,1.5784,1.5784,1.5784,1.514,1.3974,1.3926,1.3145,1.1764,1.0306,0.8847,0.7587,0.7587,0.7495,0.7405,0.7405,0.7265,0.7095,0.0,0.0,0.0,0.0,0.0,2.3091,2.3091,2.3091,2.3091,2.3091,2.3091,2.3091,2.3091,2.3464,2.3714,2.3714,2.4102,2.4467,2.4872,2.5827,2.6816,2.7777,2.8534,2.8857,2.8591,2.7964,2.722,2.639,2.5927,2.5693,2.5693,2.5693,2.5693,2.5693,2.5693,2.5596,2.5469,2.5019,2.4834,2.4814,2.4531,2.4326,0.0,0.0,0.0,0.0,0.0,0.0,0.0,0.0,0.0,0.0,0.0,0.0,0.0,0.0,0.0,0.0,0.0,0.0,0.0,0.0,0.0,0.0,0.0,0.0,0.0,0.0,0.0,0.0,0.0,0.0,0.0,0.0,0.0,0.0,0.0,0.0,0.0,2.3802,2.4127,0.0,2.4414,2.3327,2.2604,2.2604,2.1488,2.081,2.081,1.9464,1.8697,1.8697,1.7385,1.6653,1.6553,1.6553,1.65,1.6393,1.6393,1.6293,1.6112,1.6112,1.5759,1.5099,1.5099,1.4411,1.3145,1.2672,1.1068,0.8914,0.8067,0.7648,0.7519,0.7519,0.7482,0.7421,0.0,0.0,0.0,2.3091,2.3091,2.3091,2.3091,2.3091,2.3091,2.3091,2.3091,2.3091,2.3091,2.3091,2.3091,2.3091,2.3091,2.3256,2.3627,2.5152,2.6259,2.6809,2.7771,2.7857,2.6982,2.6945,2.6572,2.5693,2.5693,2.5693,2.5693,2.5693,2.5693,2.5693,2.5693,2.5693,2.5674,2.542,2.5293,2.5273,2.498,2.4775,2.4639,0.0,0.0,0.0,0.0,0.0,0.0,0.0,0.0,0.0,0.0,0.0,0.0,0.0,0.0,0.0,0.0,0.0,0.0,0.0,0.0,0.0,0.0,0.0,0.0,0.0,0.0,0.0,0.0,0.0,0.0,0.0,0.0,0.0,0.0,2.4766,2.4816,2.4816,2.4816,2.4816,2.4816,2.4136,2.3652,2.3652,2.2907,2.2456,2.2456,2.0696,1.9709,1.9709,1.7944,1.6954,1.6854,1.6854,1.6807,1.6707,1.6707,1.6607,1.642,1.642,1.6259,1.5979,1.5979,1.5434,1.4507,1.407,1.2811,1.1001,0.9231,0.8179,0.7672,0.7672,0.7641,0.7587,0.0,2.3091,2.3091,2.3091,2.3091,2.3091,2.3091,2.3091,2.3091,2.3091,2.3091,2.3091,2.3091,2.3091,2.3091,2.3091,2.3091,2.3551,2.466,2.6309,2.7415,2.782,2.7639,2.6982,2.5781,2.5742,2.5742,2.5781,2.5742,2.5693,2.5693,2.5693,2.5693,2.5693,2.5693,2.5693,2.5693,2.5693,2.5693,2.5693,2.5693,2.5478,2.5135,0.0,0.0,0.0,0.0,0.0,0.0,0.0,0.0,0.0,0.0,0.0,0.0,0.0,0.0,0.0,0.0,0.0,0.0,0.0,0.0,0.0,0.0,0.0,0.0,0.0,0.0,0.0,0.0,0.0,0.0,0.0,0.0,0.0,2.5146,2.5459,2.5693,2.5693,2.5693,2.5693,2.5693,2.5693,2.5693,2.5693,2.5693,2.5693,2.5693,2.3176,2.1752,2.1702,1.9057,1.7501,1.7219,1.7213,1.7072,1.6734,1.6734,1.6727,1.672,1.672,1.656,1.6286,1.6286,1.6119,1.5696,1.4472,1.3932,1.3632,1.1019,0.9112,0.7866,0.7818,0.7729,0.7607,2.3091,2.3091,2.3091,2.3091,2.3091,2.3091,2.3091,2.3091,2.3091,2.3091,2.3091,2.3091,2.3091,2.3091,2.3091,2.3091,2.3091,2.3222,2.3551,2.4604,2.5508,2.6253,2.625,2.6476,2.7088,2.6149,2.6149,2.7078,2.6149,2.5693,2.5693,2.5693,2.5693,2.5693,2.5693,2.5693,2.5693,2.5693,2.5693,2.5693,2.5693,2.5615,2.5557,0.0,0.0,0.0,0.0,0.0,0.0,0.0,0.0,0.0,0.0,0.0,0.0,0.0,0.0,0.0,0.0,0.0,0.0,0.0,0.0,0.0,0.0,0.0,0.0,0.0,0.0,0.0,0.0,0.0,0.0,0.0,2.5693,2.5645,2.5566,2.5615,2.5693,2.5693,2.5693,2.5693,2.5693,2.5693,2.5693,2.5693,2.5693,2.5693,2.5693,2.4097,2.2717,2.1752,1.9981,1.8568,1.7514,1.7514,1.7422,1.7341,1.7341,1.7228,1.7079,1.7079,1.6867,1.6587,1.6587,1.642,1.6152,1.58,1.4933,1.3632,1.1019,0.9772,0.929,0.8315,0.7882,0.7753,2.3091,2.3091,2.3091,2.3091,2.3091,2.3091,2.3091,2.3091,2.3091,2.3091,2.3091,2.3091,2.3091,2.3091,2.3091,2.3091,2.3091,2.3091,2.3091,2.3945,2.5039,2.6436,2.6476,2.6572,2.6802,2.662,2.662,2.6802,2.6062,2.5693,2.5693,2.5693,2.5693,2.5693,2.5693,2.5693,2.5693,2.5693,2.5693,2.5693,2.5693,2.5693,2.5693,2.5693,2.5528,2.5352,2.5352,2.5185,2.4923,2.4923,0.0,0.0,0.0,0.0,0.0,0.0,0.0,0.0,0.0,0.0,0.0,0.0,0.0,0.0,0.0,0.0,0.0,0.0,0.0,0.0,0.0,0.0,0.0,0.0,2.5693,2.5693,2.5693,2.5693,2.5693,2.5693,2.5693,2.5693,2.5693,2.5693,2.5693,2.5693,2.5693,2.5693,2.5693,2.4452,2.3335,2.2567,2.0641,1.922,1.8454,1.7891,1.7582,1.7582,1.7582,1.7495,1.738,1.738,1.7219,1.6894,1.6894,1.6727,1.6453,1.6453,1.5898,1.4826,0.0,0.0,0.0,0.0,0.7934,0.7906,2.3091,2.3091,2.3091,2.3091,2.3091,2.3091,2.3091,2.3091,2.3091,2.3091,2.3091,2.3091,2.3091,2.3091,2.3091,2.3091,2.3091,2.314,2.3237,2.3949,2.5298,2.7321,2.741,2.6945,2.5927,2.6897,2.6897,2.5917,2.5781,2.5693,2.5693,2.5693,2.5693,2.5693,2.5693,2.5693,2.5693,2.5693,2.5693,2.5693,2.5693,2.5693,2.5693,2.5693,2.5693,2.5693,2.5693,2.5693,2.5693,2.5693,0.0,0.0,0.0,0.0,0.0,0.0,0.0,0.0,0.0,0.0,0.0,0.0,0.0,0.0,0.0,0.0,0.0,0.0,0.0,0.0,0.0,0.0,0.0,0.0,2.5693,2.5693,2.5693,2.5693,2.5693,2.5693,2.5693,2.5693,2.5693,2.5693,2.5693,2.5693,2.5693,2.5693,2.5693,2.4559,0.0,0.0,0.0,1.993,1.9576,1.8401,1.7733,1.7582,1.7582,1.7582,1.7582,1.7582,1.7494,1.7253,1.7253,1.7079,1.676,1.676,1.6734,1.6497,1.4655,1.2462,1.0126,0.8878,0.8333,0.8233,2.3091,2.3091,2.3091,2.3091,2.3091,2.3091,2.3091,2.3091,2.3091,2.3091,2.3091,2.3091,2.3091,2.3091,2.3091,2.3091,2.3091,2.3383,2.4075,2.4326,2.4898,2.6022,2.6062,2.6428,2.722,2.6486,2.6428,2.722,2.6197,2.5693,2.5693,2.5693,2.5693,2.5693,2.5693,2.5693,2.5693,2.5693,2.5693,2.5693,2.5693,2.5693,2.5693,2.5693,2.5693,2.5693,2.5693,2.5693,2.5693,2.5693,2.5693,2.5693,2.5693,2.5693,0.0,0.0,0.0,0.0,0.0,0.0,0.0,0.0,0.0,0.0,0.0,0.0,0.0,0.0,0.0,0.0,0.0,0.0,0.0,2.5693,2.5693,2.5693,2.5693,2.5693,2.5693,2.5693,2.5693,2.5693,2.5693,2.5693,2.5693,2.5693,2.5693,2.5693,2.5693,2.543,2.4815,2.3732,2.3176,2.1862,1.9627,1.9324,1.8655,1.7582,1.7582,0.0,1.7582,1.7582,1.7555,1.7502,1.7502,1.7387,1.7112,1.7112,1.6921,1.6517,1.4857,1.3298,1.1845,1.133,1.0485,0.9608,2.4808,2.3887,2.3256,2.3844,2.3464,2.3091,2.3091,2.3091,2.3091,2.3091,2.3091,2.3091,2.3091,2.3091,2.3091,2.3091,2.3091,2.3364,2.4062,2.4307,2.4717,2.5371,2.6222,2.6668,2.6668,2.6668,2.6668,2.6668,2.6014,2.5693,2.5693,2.5693,2.5693,2.5693,2.5693,2.5693,2.5693,2.5693,2.5693,2.5693,2.5693,2.5693,2.5693,2.5693,2.5693,2.5693,2.5693,2.5693,2.5693,2.5693,2.5693,2.5693,2.5693,2.5693,2.5693,0.0,0.0,0.0,0.0,0.0,0.0,0.0,0.0,0.0,0.0,0.0,0.0,0.0,0.0,2.5693,2.5693,0.0,2.5693,2.5693,2.5693,2.5693,2.5693,2.5693,2.5693,2.5693,2.5693,2.5693,2.5693,2.5693,2.5693,2.5693,2.5693,2.5693,2.5693,2.5693,2.5382,2.4716,2.4048,2.3026,2.1659,2.0998,1.9981,1.861,1.861,1.8251,1.7582,1.7582,1.7582,1.7582,1.7582,1.7502,1.742,1.742,1.7275,1.7063,1.6144,1.4879,1.3484,1.267,1.186,1.1177,2.6524,2.4851,2.3714,2.4617,2.3844,2.3091,2.3091,2.3091,2.3091,2.3091,2.3091,2.3091,2.3091,2.3091,2.3091,2.3091,2.3091,2.3276,2.376,2.418,2.4609,2.5096,2.6462,2.6754,2.5732,2.6706,2.6716,2.5693,2.5693,2.5693,2.5693,2.5693,2.5693,2.5693,2.5693,2.5693,2.5693,2.5693,2.5693,2.5693,2.5693,2.5693,2.5693,2.5693,2.5693,2.5693,2.5693,2.5693,2.5693,2.5693,2.5693,2.5693,2.5693,2.5693,2.5693,2.5693,2.5693,0.0,0.0,0.0,0.0,0.0,0.0,0.0,0.0,2.5693,2.5693,2.5693,2.5693,2.5693,2.5693,2.5693,2.5693,2.5693,2.5693,2.5693,2.5693,2.5693,2.5693,2.5693,2.5693,2.5693,2.5693,2.5693,2.5693,2.5693,2.5693,2.5693,2.5693,2.5693,2.5693,2.5693,2.4658,2.3939,2.3692,2.2617,2.1397,1.9981,1.9731,1.9013,1.7996,1.774,1.7582,1.7582,1.7582,1.7582,1.7582,1.7582,1.7582,1.7562,1.738,1.6504,1.5197,1.4021,1.3257,1.2896,2.6524,2.5473,2.467,2.4787,2.3844,2.3091,2.3091,2.3091,2.3091,2.3091,2.3091,2.3091,2.3091,2.3091,2.3091,2.3091,2.3091,2.3276,2.376,2.418,2.4609,2.5096,2.5633,2.583,2.5693,2.583,2.583,2.5693,2.5693,2.5693,2.5693,2.5693,2.5693,2.5693,2.5693,2.5693,2.5693,2.5693,2.5693,2.5693,2.5693,2.5693,2.5693,2.5693,2.5693,2.5693,2.5693,2.5693,2.5693,2.5693,2.5693,2.5693,2.5693,2.5693,2.5693,2.5693,2.5693,2.5693,2.5693,2.5693,2.5693,2.5693,2.5693,2.5693,0.0,2.5693,2.5693,2.5693,2.5693,2.5693,2.5693,2.5693,2.5693,2.5693,2.5693,2.5693,2.5693,2.5693,2.5693,2.5693,2.5693,2.5693,2.5693,2.5693,2.5693,2.5693,2.5693,2.5693,2.5693,2.5693,2.5693,2.5693,2.5538,2.4913,2.3683,2.3534,2.2826,2.1448,2.0187,1.9531,1.9324,1.8146,1.7582,1.7582,1.7582,1.7582,1.7582,1.7582,1.7582,1.7582,1.7549,1.7456,1.7206,1.6532,1.5551,1.455,2.7574,2.6543,2.5588,2.4914,2.3844,2.3091,2.3091,2.3091,2.3091,2.3091,2.3091,2.3091,2.3091,2.3091,2.3091,2.3091,2.3091,2.3169,2.3398,2.4043,2.4502,2.4678,2.5361,2.5693,2.5693,2.5693,2.5693,2.5693,2.5693,2.5693,2.5693,2.5693,2.5693,2.5693,2.5693,2.5693,2.5693,2.5693,2.5693,2.5693,2.5693,2.5693,2.5693,2.5693,2.5693,2.5693,2.5693,2.5693,0.0,2.5693,2.5693,2.5693,2.5693,2.5693,2.5693,2.5693,2.5693,2.5693,2.5693,2.5693,2.5693,2.5693,2.5693,2.5693,2.5693,2.5693,2.5693,2.5693,2.5693,2.5693,2.5693,2.5693,2.5771,2.6074,2.6113,2.6201,2.6395,2.6484,2.6484,2.6484,2.626,2.6016,2.5713,2.5693,2.5693,2.5693,2.5693,2.5693,2.5693,2.5693,2.5693,2.5693,2.5986,2.5856,2.5282,2.5519,2.4956,2.3633,2.3014,2.1869,2.0195,1.967,1.8842,1.7856,1.7856,1.7749,1.7582,1.7582,1.7582,1.7582,1.7582,1.7582,1.7555,1.7308,1.6793,1.6177,2.8307,2.7481,2.6584,2.5462,2.4595,2.3854,2.3178,2.3387,2.3474,2.3135,2.3091,2.3091,2.3091,2.3091,2.3091,2.3091,2.3091,2.3091,2.3091,2.3828,2.4297,2.4414,2.5146,2.5605,2.5693,2.5693,2.5693,2.5693,2.5693,2.5693,2.5693,2.5693,2.5693,2.5693,2.5693,2.5693,2.5693,2.5693,2.5693,2.5693,2.5693,2.5693,2.5693,2.5693,2.5693,2.5693,2.5693,2.5693,2.5693,2.5693,2.5693,2.5693,2.5693,2.5693,2.5693,2.5693,2.5693,2.5693,2.5693,2.5693,2.5693,2.5693,2.5693,2.5693,2.5693,2.5693,2.5693,2.5693,2.5693,2.5723,2.5849,2.5869,2.6055,2.6484,2.6562,2.667,2.6973,2.7012,2.7012,2.7012,2.6748,2.6435,2.6074,2.583,2.5693,2.5693,2.5693,2.5693,2.5693,2.5801,2.5869,2.5869,2.6338,2.6562,2.6562,2.6865,2.6532,2.5557,2.5185,2.3694,2.1248,2.0451,1.9377,1.8115,1.8115,1.8043,1.7822,1.7742,1.7709,1.7702,1.7615,1.7582,1.7582,1.7582,1.7501,1.732,2.8307,2.8084,2.7723,2.6637,2.6431,2.5641,2.343,2.4049,2.4339,2.3266,2.3091,2.3091,2.3091,2.3091,2.3091,2.3091,2.3091,2.3091,2.3091,2.3555,2.3984,2.4394,2.4844,2.5293,2.5674,2.5693,2.5693,2.5693,2.5693,2.5693,2.5693,2.5693,2.5693,2.5693,2.5693,2.5693,2.5693,2.5693,2.5693,2.5693,2.5693,2.5693,2.5693,2.5693,2.5693,2.5693,2.5693,2.5693,2.5693,2.5693,2.5693,2.5693,2.5693,2.5693,2.5693,2.5693,2.5693,2.5693,2.5693,2.5693,2.5693,2.5693,2.5693,2.5693,2.5693,2.5693,2.5693,2.5693,2.5693,2.582,2.6289,2.6367,2.6504,2.6934,2.6992,2.7002,2.7012,2.7012,2.7012,2.7012,2.7002,2.6992,2.6982,2.6181,2.5693,2.5693,2.5693,2.5693,2.5693,2.6143,2.6367,2.6367,2.6777,2.6992,2.6992,2.7012,2.6961,2.691,2.5618,2.4175,2.2536,1.9826,1.8539,1.8477,1.8477,1.847,1.8437,1.8095,1.7975,1.7949,1.7702,1.7582,1.7582,1.7582,1.7575,1.7569,2.8307,2.8096,2.7763,2.6678,2.7087,2.7075,2.5599,2.5052,2.4372,2.3256,2.3091,0.0,0.0,0.0,0.0,0.0,2.3091,2.3091,2.3091,2.3545,2.3857,2.3994,2.4687,2.5137,2.5293,2.5538,2.5693,2.5693,2.5693,2.5693,2.5693,2.5693,2.5693,2.5693,2.5693,2.5693,2.5693,2.5693,2.5693,2.5693,2.5693,2.5693,2.5693,2.5693,2.5693,2.5693,0.0,2.5693,2.5693,2.5693,2.5693,2.5693,2.5693,2.5693,2.5693,2.5693,2.5693,2.5693,2.5693,2.5693,2.5693,2.5693,2.5693,2.5693,2.5693,2.5693,2.5771,2.6113,2.6172,2.6299,2.6728,2.6807,2.6943,2.7373,2.7441,2.7549,2.7822,2.7861,2.7861,2.7861,2.7617,2.7441,2.7441,2.668,2.6172,2.6172,2.6172,2.6172,2.6172,2.6572,2.6807,2.6807,2.7226,2.7441,2.7441,2.7725,2.7861,2.7861,2.6417,2.493,2.3349,2.1425,1.9886,1.8778,1.8778,1.8664,1.8484,1.8384,1.8223,1.7982,1.7876,1.7762,1.7582,1.7582,1.7582,1.7582,0.0,2.8727,2.8478,2.7799,2.8239,0.0,0.0,0.0,0.0,0.0,0.0,0.0,0.0,0.0,0.0,0.0,0.0,2.3091,2.3091,2.3398,2.3623,2.3779,2.4316,2.4803,2.5106,2.5352,2.5576,2.5693,2.5693,2.5693,2.5693,2.5693,2.5693,2.5693,2.5693,2.5693,2.5693,2.5693,2.5693,2.5693,2.5693,2.5693,2.5693,2.5693,2.5693,0.0,2.5693,2.5693,2.5693,2.5693,2.5693,2.5693,2.5693,2.5693,2.5693,2.5693,2.5693,2.5693,2.5693,2.5693,2.5693,2.5693,2.5693,2.5693,2.5693,2.5693,2.581,2.6299,2.6387,2.6562,2.7139,2.7246,2.7393,2.7822,2.7891,2.7988,2.8252,2.8291,2.8291,2.8291,2.8057,2.7891,2.7891,2.7119,2.6543,2.6396,2.6387,2.6387,2.6387,2.6934,2.7246,2.7246,2.7666,2.7891,2.7891,2.8154,2.8291,2.8291,2.6825,2.5599,2.4544,2.2533,2.0978,1.9849,1.93,1.8978,1.8798,1.8691,1.8531,1.8295,1.8243,1.8016,1.7736,1.7749,1.7675,1.7582,0.0,0.0,2.9792,0.0,0.0,0.0,0.0,0.0,0.0,0.0,0.0,0.0,0.0,0.0,0.0,0.0,0.0,0.0,2.3091,2.3091,2.3276,2.374,2.3779,2.417,2.5037,2.5096,2.5273,2.5654,2.5674,2.5693,2.5693,2.5693,2.5693,2.5693,2.5693,2.5693,2.5693,2.5693,2.5693,2.5693,2.5693,2.5693,2.5693,2.5693,2.5693,2.5693,2.5693,2.5693,2.5693,2.5693,2.5693,2.5693,2.5693,2.5693,2.5693,2.5693,2.5693,2.5693,2.5693,2.5693,2.5693,2.5693,2.5693,2.5693,2.5693,2.5703,2.5849,2.6328,2.6435,2.6709,2.7591,2.7748,2.7885,2.8232,2.8291,2.8291,2.8291,2.8291,2.8291,2.8291,2.8291,2.8291,2.8291,2.7519,2.6865,2.6484,2.6435,2.6426,2.6455,2.7246,2.7748,2.7748,2.8086,2.8291,2.8291,2.8291,2.8291,2.8291,2.6879,2.6155,2.5991,2.3143,2.1805,2.1643,2.0141,1.9533,1.9455,1.9115,1.8938,1.8891,1.8617,1.8317,1.8043,1.8009,1.7869,1.7609,0.0,0.0,0.0,0.0,0.0,0.0,0.0,0.0,0.0,0.0,0.0,0.0,0.0,0.0,0.0,0.0,0.0,0.0,2.3091,2.3091,2.314,2.3257,2.3613,2.3896,2.4111,2.4793,2.5174,2.5244,2.5528,2.5693,2.5693,2.5693,2.5693,2.5693,2.5693,2.5693,2.5693,2.5693,2.5693,2.5693,2.5693,2.5693,2.5693,2.5693,2.5693,2.5693,2.5693,2.5693,2.5693,2.5693,2.5693,2.5693,2.5693,2.5693,2.5693,2.5693,2.5693,2.5693,2.5693,2.5693,2.5693,2.5693,2.5693,2.5693,2.5693,2.5986,2.6348,2.6768,2.7119,2.7552,2.8037,2.8135,2.8164,2.8271,2.8291,2.8291,2.8291,2.8291,2.8291,2.8291,2.8291,2.8291,2.8291,2.7519,2.7109,2.7376,2.7041,2.7002,2.7376,2.7842,2.8135,2.8135,2.8232,2.8291,2.8291,2.8291,2.8291,2.8291,2.7897,2.7168,2.61,2.5316,2.4322,2.3151,2.1699,2.1031,2.0973,1.9784,1.9125,1.8918,1.8838,1.8631,1.837,1.8377,1.8183,1.7876,0.0,0.0,0.0,0.0,0.0,0.0,0.0,0.0,0.0,0.0,0.0,0.0,0.0,0.0,0.0,0.0,0.0,0.0,0.0,2.3091,2.3091,2.3091,2.3335,2.3594,2.3789,2.4258,2.46,2.4785,2.5225,2.5439,2.5449,2.5644,2.5693,2.5693,2.5693,2.5693,2.5693,2.5693,2.5693,0.0,0.0,2.5693,2.5693,2.5693,2.5693,2.5693,2.5693,2.5693,2.5693,2.5693,2.5693,2.5693,2.5693,2.5693,2.5693,2.5693,2.5693,2.5693,2.5693,2.5693,2.5693,2.5693,2.5693,2.5732,2.5977,2.6211,2.6562,2.7168,2.75,2.7793,2.8213,2.8291,2.8291,2.8291,2.8291,2.8291,2.8291,2.8291,2.8291,2.8291,2.8291,2.8223,2.8037,2.7578,2.7402,2.7699,2.7266,2.7207,2.7689,2.8066,2.8291,2.8291,2.8291,2.8291,2.8291,2.8291,2.8291,2.8291,2.8291,2.7843,2.7051,2.6381,2.5654,2.471,2.3207,2.2202,2.1529,2.0702,1.9878,1.9118,1.9118,1.8938,1.8684,1.8684,1.8497,1.8223,0.0,0.0,0.0,0.0,0.0,0.0,0.0,0.0,0.0,0.0,2.3091,2.3091,0.0,0.0,0.0,0.0,0.0,0.0,0.0,0.0,2.3091,2.3091,2.3091,2.3276,2.3691,2.376,2.3965,2.4336,2.4824,2.5116,2.5125,2.5527,2.5693,2.5693,2.5693,2.5693,2.5693,2.5693,2.5693,2.5693,2.5693,2.5693,2.5693,0.0,2.5693,2.5693,2.5693,2.5693,2.5693,2.5693,2.5693,2.5693,2.5693,2.5693,2.5693,2.5693,2.5693,2.5693,2.5693,2.5693,2.5693,2.5693,2.5693,2.5801,2.6289,2.6435,2.6699,2.7552,2.7767,2.7914,2.8223,2.8291,2.8291,2.8291,2.8291,2.8291,2.8291,2.8291,2.8291,2.8291,2.8242,2.8066,2.7748,2.7669,2.765,2.7718,2.7314,2.7295,2.7777,2.8096,2.8291,2.8291,2.8291,2.8291,2.8291,2.8291,2.8291,2.8291,2.8291,2.8291,2.8237,2.6997,2.6381,2.6327,2.4765,2.3375,2.2194,2.1975,2.1038,1.97,1.97,1.9378,1.8985,1.8985,1.8798,1.851,0.0,0.0,0.0,0.0,0.0,0.0,0.0,0.0,0.0,2.3387,2.3091,2.3091,0.0,0.0,0.0,0.0,0.0,0.0,0.0,0.0,0.0,2.3091,2.3091,2.313,2.3208,2.3603,2.3828,2.3896,2.4734,2.5116,2.5125,2.5527,2.5693,2.5693,2.5693,2.5693,2.5693,2.5693,2.5693,2.5693,2.5693,2.5693,2.5693,2.5693,0.0,0.0,2.5693,2.5693,2.5693,2.5693,2.5693,2.5693,2.5693,2.5693,2.5693,2.5693,2.5693,2.5693,2.5693,2.5693,2.5693,2.5693,2.5693,2.5801,2.6289,2.666,2.7051,2.7611,2.7939,2.8203,2.8281,2.8291,2.8291,2.8291,2.8291,2.8291,2.8291,2.8291,2.8291,2.8291,2.7988,2.7796,2.7728,2.7344,2.7275,2.7689,2.7598,2.7734,2.8164,2.8252,2.8291,2.8291,2.8291,2.8291,2.8291,2.8291,2.8291,2.8291,2.8291,2.8291,2.8291,2.8067,2.7897,2.7843,2.6327,2.5544,2.5206,2.3933,2.254,2.1194,2.1194,2.0444,1.9292,1.9292,1.9105,1.8838,0.0,0.0,0.0,0.0,0.0,0.0,2.6853,2.6524,2.5683,2.3387,2.3091,2.3091,2.3091,2.3091,2.3091,0.0,0.0,0.0,0.0,0.0,0.0,0.0,2.3091,2.3091,2.3091,2.3305,2.3457,2.3457,0.0,2.4512,2.4736,2.5185,2.5518,2.5693,2.5693,2.5693,2.5693,2.5693,2.5693,2.5693,2.5693,2.5693,2.5693,0.0,0.0,0.0,2.5693,2.5693,2.5693,2.5693,2.5693,2.5693,2.5693,2.5693,2.5693,2.5693,2.5693,2.5693,2.5693,2.5693,2.5693,2.5693,2.5693,2.5801,2.6289,2.6709,2.7139,2.7578,2.7998,2.8291,2.8291,2.8291,2.8291,2.8291,2.8291,2.8291,2.8291,2.8105,2.7969,2.7969,2.7588,2.7246,2.7021,2.7217,2.7344,2.7334,2.7744,2.8086,2.8281,2.8291,2.8291,2.8291,2.8291,2.8291,2.8291,2.8291,2.8291,2.8291,2.8291,2.8291,2.8291,2.8291,2.8291,2.8237,2.7555,2.6825,2.6045,2.5316,2.41,2.2645,2.1919,2.1145,2.0479,1.9707,1.9279,1.9132,0.0,0.0,0.0,0.0,0.0,0.0,2.6864,2.6678,2.5922,2.343,2.3299,2.3387,2.3135,2.3091,2.3222,0.0,0.0,0.0,0.0,0.0,0.0,0.0,0.0,0.0,0.0,0.0,0.0,2.3091,2.3574,0.0,0.0,0.0,0.0,0.0,2.5645,2.5693,2.5693,2.5693,2.5693,0.0,0.0,2.5693,0.0,0.0,0.0,0.0,0.0,2.5693,2.5693,2.5693,2.5693,2.5693,2.5693,2.5693,2.5693,2.5693,2.5693,2.5693,2.5693,2.5693,2.5693,2.5693,2.5693,2.5801,2.6289,2.6641,2.7002,2.7441,2.7861,2.8154,2.8154,2.8232,2.8291,2.8291,2.8291,2.8262,2.8174,2.7881,2.7679,2.7539,2.7139,2.6758,2.6426,2.708,2.7383,2.7041,2.7812,2.8291,2.8291,2.8291,2.8291,2.8291,2.8291,2.8291,2.8291,2.8291,2.8291,2.8291,2.8291,2.8291,2.8291,2.8291,2.8291,2.8291,2.8291,2.7618,2.6554,2.6554,2.5654,2.4156,2.3031,2.2363,2.1926,2.0766,2.0148,1.9832,0.0,0.0,0.0,0.0,0.0,0.0,2.6921,2.7331,2.6778,2.3507,2.4006,2.4253,2.3222,2.3091,2.3507,0.0,0.0,0.0,0.0,0.0,0.0,0.0,0.0,0.0,0.0,0.0,0.0,2.3091,2.3574,0.0,0.0,0.0,0.0,0.0,0.0,2.5693,2.5693,2.5693,0.0,0.0,0.0,0.0,0.0,0.0,0.0,0.0,0.0,2.5693,2.5693,2.5693,2.5693,2.5693,2.5693,2.5693,2.5693,2.5693,2.5693,2.5693,2.5693,2.5693,2.5693,2.5693,2.5693,2.5801,2.6289,2.6416,2.6562,2.6992,2.7422,2.7777,2.7777,2.8037,2.8291,2.8291,2.8291,2.8164,2.7836,2.7738,2.7519,2.7119,2.6699,2.6426,2.6396,2.6807,2.706,2.7021,2.7812,2.8291,2.8291,2.8291,2.8291,2.8291,2.8291,2.8291,2.8291,2.8291,2.8291,2.8291,2.8291,2.8291,2.8291,2.8291,2.8291,2.8291,2.8291,2.8228,2.8121,2.8121,2.7222,2.5882,2.5763,2.482,2.3599,2.3439,2.254,2.1415,0.0,0.0,0.0,0.0,0.0,0.0,2.8228,2.8044,2.7145,2.4457,2.45,2.4628,2.4168,2.4125,2.4296,2.4745,2.3757,0.0,0.0,0.0,0.0,0.0,0.0,0.0,0.0,0.0,2.3091,2.3091,2.331,0.0,0.0,0.0,0.0,0.0,0.0,2.5488,2.5693,2.5693,0.0,0.0,0.0,0.0,0.0,0.0,0.0,0.0,0.0,0.0,2.5693,2.5693,2.5693,2.5693,2.5693,2.5693,2.5693,2.5693,2.5693,2.5693,2.5693,2.5693,2.5693,2.5693,2.5693,2.5732,2.5957,2.6201,2.6435,2.6602,2.6973,2.7275,2.7275,2.7412,2.7529,2.7529,2.7529,2.7461,2.7295,2.706,2.6836,2.666,2.626,2.5996,2.5996,2.6621,2.7226,2.7744,2.8096,2.8291,2.8291,2.8291,2.8291,2.8291,2.8291,2.8291,2.8291,2.8291,2.8291,2.8291,2.8291,2.8291,2.8291,2.8291,2.8291,2.8291,2.8291,2.8291,2.8291,2.8291,2.795,2.734,2.6436,2.5709,2.5041,2.4156,2.3431,2.2927,0.0,0.0,0.0,0.0,0.0,3.0583,2.9133,2.8855,2.798,2.5599,2.5294,2.5294,2.5294,2.4999,2.5073,2.5734,2.4457,0.0,0.0,0.0,0.0,0.0,0.0,0.0,0.0,0.0,2.3091,2.3091,2.3091,2.3257,0.0,0.0,2.418,2.4883,0.0,0.0,0.0,0.0,0.0,0.0,0.0,0.0,0.0,0.0,0.0,0.0,0.0,0.0,0.0,0.0,0.0,2.5693,2.5693,2.5693,2.5693,2.5693,2.5693,2.5693,2.5693,2.5693,2.5693,2.5693,2.5693,2.5693,2.5693,2.5977,2.6191,2.6191,2.6533,2.6826,2.6826,2.6934,2.7012,2.7012,2.7012,2.6973,2.6846,2.6572,2.6338,2.6211,2.5879,2.5693,2.5693,2.6514,2.7314,2.8057,2.8223,2.8291,2.8291,2.8291,2.8291,2.8291,2.8291,2.8291,2.8291,2.8291,2.8291,2.8291,2.8291,2.8291,2.8291,2.8291,2.8291,2.8291,2.8291,2.8291,2.8291,2.8291,2.8291,2.8184,2.7168,2.6771,2.6608,2.5553,2.482,2.4488,0.0,0.0,0.0,0.0,0.0,3.1427,2.9241,2.9865,2.9613,2.6828,2.6472,2.6472,2.6472,2.5462,2.5703,2.7884,2.6066,0.0,0.0,0.0,0.0,0.0,0.0,0.0,2.3091,2.3091,2.3091,2.3091,2.3091,2.3091,2.311,2.3584,2.4014,2.4443,0.0,0.0,0.0,0.0,2.6428,0.0,0.0,0.0,2.7447,0.0,0.0,0.0,0.0,0.0,0.0,0.0,0.0,0.0,0.0,2.5693,2.5693,2.5693,2.5693,2.5693,2.5693,2.5693,2.5693,2.5693,2.5693,2.5693,2.5693,2.5693,2.5693,2.5693,2.6094,2.6396,2.6396,2.6738,2.7012,2.7012,2.7012,2.6875,2.6455,2.6387,2.623,2.5742,2.5693,2.5693,2.5693,2.6514,2.7197,2.7689,2.8057,2.8291,2.8291,2.8291,2.8291,2.8291,2.8291,2.8291,2.8291,2.8291,2.8291,2.8291,2.8291,2.8291,2.8291,2.8291,2.8291,2.8291,2.8291,2.8291,2.8291,2.8291,2.8291,2.8291,2.8291,2.8291,2.8291,2.8237,2.733,2.61,0.0,0.0,0.0,0.0,0.0,0.0,3.1257,3.1157,3.0424,2.8404,2.8128,2.8,2.7649,2.7267,2.7643,2.9145,2.725,0.0,0.0,0.0,0.0,2.5922,2.4882,2.4628,2.54,2.5431,2.5431,2.5431,2.4628,2.467,2.54,2.3995,2.4113,2.5583,2.5807,2.6568,0.0,2.7173,2.722,2.7542,0.0,2.722,2.7458,0.0,0.0,0.0,0.0,0.0,0.0,0.0,0.0,0.0,0.0,0.0,0.0,2.5693,2.5693,2.5693,2.5693,2.5693,2.5693,2.5693,2.5693,2.5693,2.5693,2.5693,2.5693,2.5693,2.5801,2.5947,2.5947,2.6055,2.6093,2.6093,2.6093,2.6094,2.5967,2.5947,2.5889,2.5703,2.5693,2.581,2.6152,2.6689,2.7197,2.7679,2.8057,2.8698,2.9608,2.8804,2.8291,2.8291,2.8291,2.8291,2.8291,2.8291,2.8291,2.8291,2.8291,2.8291,2.8291,2.8291,2.8291,2.8291,2.8291,2.8291,2.8291,2.8291,2.8291,2.8291,2.8291,2.8291,2.8291,2.8291,2.8004,2.7618,0.0,0.0,0.0,0.0,0.0,0.0,3.224,3.1926,3.124,3.0004,2.9467,2.9193,2.9052,2.8647,2.8775,2.9727,2.8542,0.0,0.0,0.0,0.0,2.7046,2.6047,2.5755,2.6472,2.6524,2.6524,2.6524,2.5797,2.5797,2.6483,2.5062,2.5258,2.6763,2.6885,2.7673,0.0,2.8958,2.8958,2.8866,2.7955,2.8143,2.8773,0.0,0.0,0.0,0.0,0.0,0.0,0.0,0.0,0.0,0.0,0.0,0.0,0.0,2.6062,2.5693,2.5693,2.5693,2.5693,2.5693,2.5693,2.5693,2.5693,2.5693,2.5693,2.5693,2.5693,2.5693,2.5693,2.5693,2.5878,2.6342,2.6014,2.5878,2.6342,2.6014,2.5878,2.6342,2.6438,2.6538,2.682,2.7332,2.761,2.7454,2.7959,2.89,3.0214,2.9503,2.9049,2.9049,2.8548,2.8291,2.8291,2.8291,2.8291,2.8291,2.8291,2.8291,2.8291,2.8291,2.8291,2.8291,2.8291,2.8291,0.0,2.8291,2.8291,2.8291,2.8291,2.8291,2.8291,2.8291,2.8291,2.8291,0.0,0.0,0.0,0.0,0.0,0.0,3.2353,3.2277,3.2077,3.1524,3.0587,3.0143,3.0601,2.9711,2.929,2.9864,2.988,0.0,0.0,2.7822,2.7087,2.8176,2.7209,2.6637,2.673,2.673,2.673,2.673,2.6637,2.6648,2.673,2.6565,2.704,2.8015,2.8015,2.9226,3.1223,3.1311,3.1267,3.0989,2.8773,2.9177,0.0,0.0,0.0,0.0,0.0,0.0,0.0,0.0,0.0,0.0,0.0,0.0,0.0,0.0,0.0,0.0,0.0,2.5781,2.5693,2.5693,2.5693,2.5693,2.5693,2.5693,0.0,2.5693,2.5693,2.5693,2.5693,2.5693,2.611,2.74,2.662,2.6245,2.7447,2.6476,2.6159,2.7315,2.7447,2.7494,2.7589,2.823,2.8225,2.7348,2.7983,2.9019,3.0514,3.0514,3.0421,3.0421,2.9207,2.8548,2.8441,2.8344,2.8344,2.8441,2.8344,2.8291,2.8291,2.8291,2.8291,2.8291,2.8291,2.8291,2.8291,2.8291,2.8291,2.8291,2.8291,2.8291,2.8291,2.8291,2.8291,2.8291,0.0,0.0,0.0,0.0,0.0,0.0,0.0,0.0,0.0,0.0,3.1805,3.151,3.122,3.0982,3.0879,0.0,0.0,0.0,0.0,2.8707,2.8239,2.9365,2.8319,2.8108,2.9,2.9,2.9,2.9,2.8148,2.8148,2.9,2.7302,2.7459,2.9187,2.9327,3.0032,3.1267,3.2239,3.2096,3.1134,3.0586,3.0676,0.0,0.0,0.0,0.0,2.9407,2.9772,0.0,0.0,0.0,0.0,0.0,0.0,0.0,0.0,2.8132,2.7125,2.7125,0.0,2.5693,2.5693,2.5693,2.5693,0.0,2.5693,2.5693,2.5693,2.5693,2.5693,2.5693,2.5693,2.611,2.74,2.7363,2.7268,2.7542,2.6476,2.583,2.611,2.6149,2.6524,2.7494,2.7213,2.7819,2.9846,2.9579,3.0563,3.3292,3.2392,3.1825,3.1825,3.152,3.0876,2.9859,2.8794,2.8794,2.9817,2.8804,2.8291,2.8291,2.8291,2.8291,2.8291,2.8291,2.8291,2.8291,2.8291,2.8291,2.8291,2.8291,2.8291,2.8291,2.8291,2.8291,2.8291,0.0,0.0,0.0,0.0,0.0,0.0,0.0,0.0,0.0,0.0,3.2604,3.239,3.1825,3.1763,3.1662,0.0,0.0,0.0,3.0972,3.0124,2.9662,2.9804,2.9197,2.9157,2.9792,2.9792,2.9792,2.9792,2.9197,2.9197,2.9792,2.8835,2.9121,3.0455,3.1064,3.1424,3.173,3.2685,3.2698,3.2008,3.1456,0.0,0.0,0.0,0.0,0.0,3.0676,3.1,0.0,2.9235,2.9223,3.0135,0.0,0.0,0.0,0.0,2.9361,2.8319,2.7767,2.7078,2.6428,2.583,2.5693,2.5693,2.5693,2.6149,2.639,2.583,2.6149,2.639,2.583,2.6197,2.6982,2.8226,2.7955,2.7589,2.7589,2.6993,2.6982,2.8075,2.8204,2.8484,2.9177,2.9059,2.9356,3.0421,3.0526,3.1528,3.3848,3.3534,3.3254,3.3254,3.3254,3.2292,3.0317,2.9555,2.9555,3.0266,2.8953,2.8291,2.8291,2.8291,2.8291,2.8291,2.8291,2.8291,2.8291,2.8291,2.8291,2.8291,2.8291,2.8291,2.8291,2.8291,2.8291,2.8291,0.0,0.0,0.0,0.0,0.0,0.0,0.0,0.0,0.0,0.0,0.0,0.0,0.0,0.0,0.0,0.0,0.0,0.0,3.1512,3.1436,3.0984,3.008,2.9967,2.9917,2.9917,2.9829,2.9792,2.9792,2.9792,2.9829,2.993,3.0394,3.0934,3.1562,3.2616,3.2805,3.2378,3.2867,3.3124,3.3025,3.1909,0.0,0.0,0.0,0.0,0.0,0.0,0.0,0.0,3.0463,3.0496,3.1456,3.1267,0.0,0.0,0.0,0.0,0.0,2.8402,2.8002,2.7542,2.6062,2.583,2.5965,2.5965,2.6849,2.7363,2.6428,2.6802,2.7078,2.638,2.6982,2.8049,2.9453,2.8819,2.8132,2.8132,2.8002,2.8634,3.0676,3.0944,3.1,3.1166,3.1402,3.1274,3.0627,3.1196,3.219,3.3601,3.427,3.4461,3.4255,3.4545,3.3514,3.0927,3.0721,3.0628,3.0566,2.926,2.8495,2.8291,2.8291,2.8291,2.8291,2.8291,0.0,2.8291,2.8291,2.8291,2.8291,2.8291,2.8291,2.8291,2.8291,2.8291,2.8291,0.0,0.0,0.0,0.0,0.0,0.0,0.0,0.0,0.0,0.0,0.0,0.0,0.0,0.0,0.0,0.0,0.0,0.0,3.2089,3.165,3.1311,3.1148,3.0721,3.0495,3.0495,3.003,2.9792,2.9792,2.9792,3.003,3.0495,3.057,3.1135,3.2114,3.278,3.3074,3.2955,3.3043,3.3124,3.3068,3.2896,0.0,0.0,0.0,0.0,0.0,0.0,0.0,0.0,3.1412,3.1777,3.2612,3.1545,0.0,0.0,0.0,0.0,0.0,3.0721,2.9909,2.8588,2.6294,2.6524,2.7315,2.7315,2.7458,2.7814,2.8669,2.7305,2.6562,2.8495,2.8179,2.8319,3.0541,3.0765,3.0631,3.0631,2.9772,2.9269,2.9636,2.9681,3.009,3.1078,3.034,3.0753,3.3101,3.2505,3.2747,3.4438,3.503,3.4836,3.3648,3.5218,3.5367,3.3773,3.2593,3.1977,3.1988,3.0618,2.9408,2.8291,2.8291,2.8291,2.8291,2.8291,2.8291,2.8291,2.8291,2.8291,2.8291,2.8291,2.8291,2.8291,2.8291,2.8291,2.8291,0.0,0.0,0.0,0.0,0.0,0.0,0.0,0.0,0.0,0.0,0.0,0.0,0.0,0.0,0.0,0.0,3.283,3.2679,3.2679,3.2441,3.2303,3.2303,3.1775,3.1336,3.1035,3.0783,3.0658,3.0658,3.0658,3.0783,3.1035,3.1336,3.1738,3.224,3.2817,3.2905,3.2629,3.2943,3.3124,3.3124,0.0,0.0,0.0,0.0,0.0,0.0,0.0,0.0,0.0,0.0,3.2612,3.2982,3.2426,0.0,0.0,0.0,0.0,0.0,3.14,3.081,2.9943,2.8168,2.7626,2.7589,2.7589,2.8085,2.8727,2.9269,2.8495,2.8028,2.9177,2.9498,2.9909,3.1033,3.1223,3.1223,3.1223,3.0721,3.0631,3.1323,3.138,3.1601,3.2152,3.1733,3.1974,3.3345,3.3224,3.3407,3.4216,3.4756,3.4815,3.4179,3.5006,3.5189,3.4558,3.4198,3.3822,3.3415,3.1276,2.9964,2.9355,2.8644,2.8291,2.8291,0.0,2.8291,2.8291,2.8291,2.8291,2.8291,2.8291,2.8291,2.8291,2.8291,2.8291,2.8291,0.0,0.0,0.0,0.0,0.0,0.0,0.0,0.0,0.0,0.0,0.0,0.0,0.0,0.0,0.0,0.0,3.3124,3.3124,3.3124,3.3124,3.3124,3.3124,3.2654,3.2152,3.1599,3.1449,3.1386,3.1386,3.1386,3.1449,3.1599,3.2152,3.2416,3.2441,3.288,3.283,3.2441,3.288,3.3124,3.3124,0.0,0.0,0.0,0.0,0.0,0.0,0.0,0.0,0.0,0.0,0.0,0.0,0.0,0.0,0.0,3.3124,3.3124,3.2896,3.1909,3.1444,3.0989,3.0045,2.9131,2.8448,2.8448,2.9177,2.9909,3.0226,2.9818,2.959,3.0135,3.1,3.1633,3.1633,3.1633,3.1633,3.1633,3.1633,3.2008,3.2982,3.3124,3.3124,3.3124,3.3124,3.3124,3.3124,3.347,3.3709,3.3709,3.4223,3.4525,3.4525,3.4605,3.468,3.468,3.5094,3.494,3.4147,3.2185,3.1081,3.0721,2.9355,2.8751,2.8751,2.8441,2.8291,2.8344,2.8644,2.8601,2.8344,2.8654,2.8601,2.8291,2.8291,2.8291,2.8291,0.0,0.0,0.0,0.0,0.0,0.0,0.0,0.0,0.0,0.0,0.0,0.0,0.0,0.0,0.0,0.0,3.3124,3.3124,3.3124,3.3124,3.3124,3.3124,3.3074,3.2742,3.2164,3.165,3.1386,3.1386,3.1386,3.165,3.2164,3.2742,3.3061,3.3061,3.3056,3.3099,3.3061,3.3056,3.3124,3.3124,3.3124,0.0,0.0,0.0,0.0,0.0,0.0,0.0,0.0,0.0,0.0,0.0,0.0,0.0,3.3124,3.3124,3.3124,3.3068,3.2982,3.2096,3.1178,3.1089,3.0989,3.0944,3.0944,3.0989,3.1412,3.2612,3.1,3.009,3.2394,3.2896,3.2982,3.2982,3.2982,3.2982,3.2982,3.2982,3.2982,3.3081,3.3124,3.3124,3.3124,3.3124,3.3124,3.3124,3.3162,3.3174,3.3174,3.3658,3.396,3.396,3.4462,3.468,3.468,3.4718,3.4373,3.3589,3.3941,3.3415,3.2129,3.0773,3.0162,3.0068,2.8847,2.8291,2.8398,2.966,2.9408,2.8441,2.966,2.9408,2.8291,2.8291,2.8291,2.8291,0.0,0.0,0.0,0.0,0.0,0.0,0.0,0.0,0.0,0.0,0.0,0.0,0.0,0.0,0.0,0.0,3.3124,3.3124,3.3124,3.3124,3.3124,3.3124,3.3124,3.2968,3.2754,3.2541,3.2483,3.2483,3.2483,3.2541,3.2754,3.2968,3.3124,3.3124,3.3124,3.3124,3.3124,3.3124,3.3124,3.3124,3.3124,3.3124,0.0,0.0,0.0,0.0,0.0,0.0,0.0,0.0,3.3124,3.3124,3.3124,3.3124,3.3124,3.3124,3.3124,3.3124,3.3124,3.2754,3.2382,3.2382,3.2382,3.2183,3.1356,3.1223,3.1545,3.284,3.1733,3.1045,3.2797,3.3124,3.3124,3.3124,3.3124,3.3124,3.3124,3.3124,3.3124,3.3124,3.3124,3.3124,3.3124,3.3124,3.3124,3.3124,3.3124,3.3124,3.3124,3.3269,3.3382,3.3382,3.3583,3.3709,3.3709,3.4035,3.403,3.3764,3.3478,3.3266,3.3015,3.1684,3.1247,3.148,3.012,3.0016,3.0773,3.0421,3.0473,3.0773,3.0421,2.9964,2.946,2.8591,2.8291,2.8291,0.0,0.0,0.0,0.0,0.0,0.0,0.0,0.0,0.0,0.0,0.0,0.0,0.0,0.0,0.0,0.0,3.3124,3.3124,3.3124,3.3124,3.3124,3.3124,3.3124,3.3124,3.3124,3.3124,3.3124,3.3124,3.3124,3.3124,3.3124,3.3124,3.3124,3.3124,3.3124,3.3124,3.3124,3.3124,3.3124,3.3124,3.3124,3.3124,0.0,0.0,0.0,0.0,0.0,0.0,0.0,0.0,3.3124,3.3124,3.3124,3.3124,3.3124,3.3124,3.3124,3.3124,3.3124,3.3124,3.3124,3.3124,3.3124,3.2884,3.2008,3.1821,3.2052,3.2927,3.2426,3.2052,3.2939,3.3124,3.3124,3.3124,3.3124,3.3124,3.3124,3.3124,3.3124,3.3124,3.3124,3.3124,3.3124,3.3124,3.3124,3.3124,3.3124,3.3124,3.3124,3.3124,3.3124,3.3124,3.3124,3.3124,3.3124,3.3458,3.3633,3.3646,3.3081,3.3194,3.3811,3.2493,3.2176,3.2594,3.1251,3.1287,3.228,3.1785,3.214,3.2844,3.148,3.0927,3.0824,2.9911,2.9303,2.9006,0.0,0.0,0.0,0.0,0.0,0.0,0.0,0.0,3.3124,3.3124,3.3124,0.0,0.0,0.0,0.0,0.0,3.3124,3.3124,3.3124,3.3124,3.3124,3.3124,3.3124,3.3124,3.3124,3.3124,3.3124,3.3124,3.3124,3.3124,3.3124,3.3124,3.3124,3.3124,3.3124,3.3124,3.3124,3.3124,3.3124,3.3124,3.3124,3.3124,3.3124,0.0,0.0,0.0,0.0,0.0,0.0,0.0,3.3124,3.3124,3.3124,3.3124,3.3124,3.3124,3.3124,3.3124,3.3124,3.3124,3.3124,3.3124,3.3124,3.3124,3.3124,3.3124,3.3124,3.3124,3.3124,3.3124,3.3124,3.3124,3.3124,3.3124,3.3124,3.3124,3.3124,3.3124,3.3124,3.3124,3.3124,3.3124,3.3124,3.3124,3.3124,3.3124,3.3124,3.3124,3.3124,3.3124,3.3124,3.3124,3.3124,3.3124,3.3124,3.3124,3.3124,3.3124,3.3124,3.3658,3.4668,3.3315,3.3019,3.3422,3.2082,3.1822,3.2431,3.3822,3.4434,3.4276,3.2844,3.2331,3.2331,3.228,3.148,3.0514,0.0,0.0,0.0,0.0,0.0,0.0,0.0,0.0,3.3124,3.3124,3.3124,0.0,0.0,0.0,0.0,0.0,0.0,0.0,3.3124,3.3124,3.3124,3.3124,3.3124,3.3124,3.3124,3.3124,3.3124,3.3124,3.3124,3.3124,3.3124,3.3124,3.3124,3.3124,3.3124,3.3124,3.3124,3.3124,3.3124,3.3124,3.3124,3.3124,3.3124,0.0,0.0,0.0,0.0,0.0,0.0,0.0,0.0,0.0,3.3124,3.3124,3.3124,3.3124,3.3124,3.3124,3.3124,3.3124,3.3124,3.3124,3.3124,3.3124,3.3124,3.3124,3.3124,3.3124,3.3124,3.3124,3.3124,3.3124,3.3124,3.3124,3.3124,3.3124,3.3124,3.3124,3.3124,3.3124,3.3124,3.3124,3.3124,3.3124,3.3124,3.3124,3.3124,3.3124,3.3124,3.3124,3.3124,3.3124,3.3124,3.3124,3.3124,3.3124,3.3124,3.3124,3.3124,3.3458,3.4104,3.371,3.3827,3.4287,3.2924,3.3173,3.4627,3.5459,3.581,3.5667,3.4313,3.3773,3.3674,3.2694,3.2028,3.1785,0.0,0.0,0.0,0.0,0.0,0.0,0.0,0.0,3.3124,3.3124,3.3124,3.3124,0.0,0.0,0.0,0.0,0.0,0.0,3.3124,3.3124,3.3124,3.3124,3.3124,3.3124,3.3124,3.3124,3.3124,3.3124,3.3124,3.3124,3.3124,3.3124,3.3124,3.3124,3.3124,3.3124,3.3124,3.3124,3.3124,3.3124,3.3124,3.3124,3.3124,0.0,0.0,0.0,0.0,0.0,0.0,0.0,0.0,0.0,3.3124,3.3124,3.3124,3.3124,3.3124,3.3124,3.3124,3.3124,3.3124,3.3124,3.3124,3.3124,3.3124,3.3124,3.3124,3.3124,3.3124,3.3124,3.3124,3.3124,3.3124,3.3124,3.3124,3.3124,3.3124,3.3124,3.3124,3.3124,3.3124,3.3124,3.3124,3.3124,3.3124,3.3124,3.3124,3.3124,3.3124,3.3124,3.3124,3.3124,3.3124,3.3124,3.3124,3.3124,3.3124,3.3124,3.3124,3.3257,3.3571,3.3571,3.3872,3.4367,3.3759,3.4133,3.5219,3.5805,3.6031,3.6009,3.5437,3.5174,3.5066,3.4252,3.3589,3.3204,0.0,0.0,3.3124,3.3124,0.0,0.0,0.0,0.0,3.3124,3.3124,3.3124,3.3124,0.0,0.0,0.0,0.0,0.0,0.0,3.3124,3.3124,3.3124,3.3124,3.3124,3.3124,3.3124,3.3124,3.3124,3.3124,3.3124,3.3124,3.3124,3.3124,3.3124,3.3124,3.3124,3.3124,3.3124,3.3124,3.3124,3.3124,3.3124,3.3124,3.3124,3.3124,0.0,0.0,0.0,0.0,0.0,0.0,0.0,0.0,3.3124,3.3124,3.3124,3.3124,3.3124,3.3124,3.3124,3.3124,3.3124,3.3124,3.3124,3.3124,3.3124,3.3124,3.3124,3.3124,3.3124,3.3124,3.3124,3.3124,3.3124,3.3124,3.3124,3.3124,3.3124,3.3124,3.3124,3.3124,3.3124,3.3124,3.3124,3.3124,3.3124,3.3124,3.3124,3.3124,3.3124,3.3124,3.3124,3.3124,3.3124,3.3124,3.3124,3.3124,3.3124,3.3124,3.3124,3.3124,3.3124,3.3124,3.3357,3.3859,3.4412,3.465,3.4688,3.5194,3.5458,3.5545,3.6094,3.6367,3.6405,3.6405,3.5619,3.4775,0.0,0.0,3.3124,3.3124,0.0,0.0,0.0,0.0,0.0,3.3124,3.3124,0.0,0.0,0.0,0.0,0.0,0.0,0.0,0.0,3.3124,3.3124,3.3124,3.3124,3.3124,3.3124,3.3124,3.3124,3.3124,3.3124,3.3124,3.3124,3.3124,3.3124,3.3124,3.3124,3.3124,3.3124,3.3124,3.3124,3.3124,3.3124,3.3124,3.3124,3.3124,3.3124,0.0,0.0,0.0,0.0,0.0,0.0,0.0,3.3124,3.3124,3.3124,3.3124,3.3124,3.3124,3.3124,3.3124,3.3124,3.3124,3.3124,3.3124,3.3124,3.3124,3.3124,3.3124,3.3124,3.3124,3.3124,3.3124,3.3124,3.3124,3.3124,3.3124,3.3124,3.3124,3.3124,3.3124,3.3124,3.3124,3.3124,3.3124,3.3124,3.3124,3.3124,3.3124,3.3124,3.3124,3.3124,3.3124,3.3124,3.3124,3.3124,3.3124,3.3124,3.3124,3.3124,3.3124,3.3124,3.3124,3.3144,3.3282,3.3834,3.4073,3.4123,3.4675,3.5107,3.5508,3.5621,3.5981,3.6405,3.6405,3.6216,3.6013,0.0,0.0,0.0,0.0,0.0,0.0,0.0,0.0,0.0,0.0,0.0,0.0,0.0,0.0,0.0,0.0,0.0,0.0,0.0,3.3124,3.3124,3.3124,3.3124,3.3124,3.3124,3.3124,3.3124,3.3124,3.3124,3.3124,3.3124,3.3124,3.3124,3.3124,3.3124,3.3124,3.3124,3.3124,3.3124,3.3124,3.3124,3.3124,3.3124,3.3124,3.3124,3.3124,3.3124,0.0,0.0,0.0,0.0,0.0,0.0,0.0,3.3124,3.3124,3.3124,3.3124,3.3124,3.3124,3.3124,3.3124,3.3124,3.3124,3.3124,3.3124,3.3124,3.3124,3.3124,3.3124,3.3124,3.3124,3.3124,3.3124,3.3124,3.3124,3.3124,3.3124,3.3124,3.3124,3.3124,3.3124,3.3124,3.3124,3.3124,3.3124,3.3124,3.3124,3.3124,3.3124,3.3124,3.3124,3.3124,3.3124,3.3124,3.3124,3.3124,3.3124,3.3124,3.3124,3.3124,3.3124,3.3124,3.3136,3.3382,3.3508,3.3545,3.4098,3.45,3.4776,3.5006,3.5491,3.5968,3.5968,3.6132,3.6405,0.0,0.0,0.0,0.0,0.0,0.0,0.0,0.0,0.0,0.0,0.0,0.0,0.0,0.0,0.0,0.0,0.0,0.0,0.0,0.0,0.0,3.3124,3.3124,3.3124,3.3124,3.3124,3.3124,3.3124,3.3124,3.3124,3.3124,3.3124,3.3124,3.3124,3.3124,3.3124,3.3124,3.3124,3.3124,3.3124,3.3124,3.3124,3.3124,3.3124,3.3124,3.3124,3.3124,3.3124,3.3124,3.3124,0.0,0.0,0.0,0.0,3.3124,3.3124,3.3124,3.3124,3.3124,3.3124,3.3124,3.3124,3.3124,3.3124,3.3124,3.3124,3.3124,3.3124,3.3124,3.3124,3.3124,3.3124,3.3124,3.3124,3.3124,3.3124,3.3124,3.3124,3.3124,3.3124,3.3124,3.3124,3.3124,3.3124,3.3124,3.3124,3.3124,3.3124,3.3124,3.3124,3.3124,3.3124,3.3124,3.3124,3.3124,3.3124,3.3124,3.3124,3.3124,3.3124,3.3124,3.3124,3.3124,3.3124,3.3124,3.3124,3.3106,3.3571,3.3822,3.3947,3.4399,3.4868,3.537,3.547,3.583,3.6279,0.0,0.0,0.0,0.0,0.0,0.0,0.0,0.0,0.0,0.0,3.3124,3.3124,0.0,0.0,3.3124,3.3124,3.3124,3.3124,3.3124,0.0,0.0,3.3124,3.3124,3.3124,3.3124,3.3124,3.3124,3.3124,3.3124,3.3124,3.3124,3.3124,3.3124,3.3124,3.3124,3.3124,3.3124,3.3124,3.3124,3.3124,3.3124,3.3124,3.3124,3.3124,3.3124,3.3124,3.3124,3.3124,3.3124,3.3124,3.3124,0.0,0.0,0.0,3.3124,3.3124,3.3124,3.3124,3.3124,3.3124,3.3124,3.3124,3.3124,3.3124,3.3124,3.3124,3.3124,3.3124,3.3124,3.3124,3.3124,3.3124,3.3124,3.3124,3.3124,3.3124,3.3124,3.3124,3.3124,3.3124,3.3124,3.3124,3.3124,3.3124,3.3124,3.3124,3.3124,3.3124,3.3124,3.3124,3.3124,3.3124,3.3124,3.3124,3.3124,3.3124,3.3124,3.3124,3.3124,3.3124,3.3124,3.3124,3.3124,3.3124,3.3124,3.3124,3.3124,3.3156,3.347,3.3909,3.3985,3.4349,3.4843,3.532,3.5545,3.5671,0.0,0.0,0.0,0.0,0.0,0.0,0.0,0.0,0.0,0.0,0.0,3.3124,3.3124,3.3124,3.3124,3.3124,3.3124,3.3124,3.3124,3.3124,3.3124,3.3124,3.3124,3.3124,3.3124,3.3124,3.3124,3.3124,3.3124,3.3124,3.3124,3.3124,3.3124,3.3124,3.3124,3.3124,3.3124,3.3124,3.3124,3.3124,3.3124,3.3124,3.3124,3.3124,3.3124,3.3124,3.3124,3.3124,3.3124,3.3124,3.3124,3.3124,3.3124,0.0,0.0,0.0,3.3124,3.3124,3.3124,3.3124,3.3124,3.3124,3.3124,3.3124,3.3124,3.3124,3.3124,3.3124,3.3124,3.3124,3.3124,3.3124,3.3124,3.3124,3.3124,3.3124,3.3124,3.3124,3.3124,3.3124,3.3124,3.3124,3.3124,3.3124,3.3124,3.3124,3.3124,3.3124,3.3124,3.3124,3.3124,3.3124,3.3124,3.3124,3.3124,3.3124,3.3124,3.3124,3.3124,3.3124,3.3124,3.3124,3.3124,3.3124,3.3124,3.3124,3.3124,3.3124,3.3262,3.3432,3.3432,3.3771,3.4299,3.4537,3.4768,3.5119,0.0,0.0,0.0,0.0,0.0,0.0,0.0,0.0,0.0,0.0,0.0,3.3124,3.3124,0.0,0.0,0.0,3.3124,3.3124,3.3124,3.3124,3.3124,3.3124,3.3124,3.3124,3.3124,3.3124,3.3124,3.3124,3.3124,3.3124,3.3124,3.3124,3.3124,3.3124,3.3124,3.3124,3.3124,3.3124,3.3124,3.3124,3.3124,3.3124,3.3124,3.3124,3.3124,3.3124,3.3124,3.3124,3.3124,3.3124,3.3124,3.3124,3.3124,3.3124,0.0,0.0,0.0,3.3124,3.3124,3.3124,3.3124,3.3124,3.3124,3.3124,3.3124,3.3124,3.3124,3.3124,3.3124,3.3124,3.3124,3.3124,3.3124,3.3124,3.3124,3.3124,3.3124,3.3124,3.3124,3.3124,3.3124,3.3124,3.3124,3.3124,3.3124,3.3124,3.3124,3.3124,3.3124,3.3124,3.3124,3.3124,3.3124,3.3124,3.3124,3.3124,3.3124,3.3124,3.3124,3.3124,3.3124,3.3124,3.3124,3.3124,3.3124,3.3124,3.3124,3.3124,3.3124,3.3124,3.3124,3.3332,3.3709,3.3847,3.4161,3.4587,0.0,0.0,0.0,0.0,0.0,0.0,0.0,0.0,0.0,0.0,0.0,3.3124,3.3124,3.3124,3.3124,3.3124,3.3124,3.3124,3.3124,3.3124,3.3124,3.3124,3.3124,0.0,3.3124,3.3124,3.3124,3.3124,3.3124,3.3124,3.3124,3.3124,3.3124,3.3124,3.3124,3.3124,3.3124,3.3124,3.3124,3.3124,3.3124,3.3124,3.3124,3.3124,3.3124,3.3124,3.3124,3.3124,3.3124,3.3124,3.3124,3.3124,3.3124,3.3124,3.3124,0.0,0.0,0.0,3.3124,3.3124,3.3124,3.3124,3.3124,3.3124,3.3124,3.3124,3.3124,3.3124,3.3124,3.3124,3.3124,3.3124,3.3124,3.3124,3.3124,3.3124,3.3124,3.3124,3.3124,3.3124,3.3124,3.3124,3.3124,3.3124,3.3124,3.3124,3.3124,3.3124,3.3124,3.3124,3.3124,3.3124,3.3124,3.3124,3.3124,3.3124,3.3124,3.3124,3.3124,3.3124,3.3124,3.3124,3.3124,3.3124,3.3124,3.3124,3.3124,3.3124,3.3124,3.3124,3.3124,3.3136,3.3181,3.3709,3.3922,3.4022,0.0,0.0,0.0,0.0,0.0,0.0,0.0,0.0,0.0,0.0,0.0,0.0,0.0,3.3124,3.3124,3.3124,3.3124,3.3124,3.3124,3.3124,3.3124,3.3124,3.3124,3.3124,3.3124,3.3124,3.3124,3.3124,3.3124,3.3124,3.3124,3.3124,3.3124,3.3124,3.3124,3.3124,3.3124,3.3124,3.3124,3.3124,3.3124,3.3124,3.3124,3.3124,3.3124,3.3124,3.3124,3.3124,3.3124,3.3124,3.3124,3.3124,3.3124,3.3124,3.3124,3.3124,3.3124,3.3124,3.3124,3.3124,3.3124,3.3124,3.3124,3.3124,3.3124,3.3124,3.3124,3.3124,3.3124,3.3124,3.3124,3.3124,3.3124,3.3124,3.3124,3.3124,3.3124,3.3124,3.3124,3.3124,3.3124,3.3124,3.3124,3.3124,3.3124,3.3124,3.3124,3.3124,3.3124,3.3124,3.3124,3.3124,3.3124,3.3124,3.3124,3.3124,3.3124,3.3124,3.3124,3.3124,3.3124,3.3124,3.3124,3.3124,3.3124,3.3124,3.3124,3.3124,3.3124,3.3124,3.3124,3.3124,3.3106,3.3307,3.337,3.3445,0.0,0.0,0.0,3.3124,0.0,3.3124,3.3124,3.3124,3.3124,3.3124,0.0,0.0,0.0,0.0,3.3124,3.3124,3.3124,3.3124,3.3124,3.3124,3.3124,3.3124,3.3124,3.3124,3.3124,3.288,3.288,3.3124,3.288,3.288,3.3124,3.3124,3.3124,3.3124,3.3124,3.3124,3.3124,3.3124,3.3124,3.3124,3.3124,3.3124,3.3124,3.3124,3.3124,3.3124,3.3124,3.3124,3.3124,3.3124,3.3124,3.3124,3.3124,3.3124,3.3124,3.3124,3.3124,3.3124,3.3124,3.3124,3.3124,3.3124,3.3124,3.3124,3.3124,3.3124,3.3124,3.3124,3.3124,3.3124,3.3124,3.3124,3.3124,3.3124,3.3124,3.3124,3.3124,3.3124,3.3124,3.3124,3.3124,3.3124,3.3124,3.3124,3.3124,3.3124,3.3124,3.3124,3.3124,3.3124,3.3124,3.3124,3.3124,3.3124,3.3124,3.3124,3.3124,3.3124,3.3124,3.3124,3.3124,3.3124,3.3124,3.3124,3.3124,3.3124,3.3124,3.3124,3.3124,3.3124,3.3124,3.3124,3.3124,3.3124,3.3124,3.3174,3.3149,3.3106,3.3136,3.3124,3.3124,3.3124,3.3124,3.3124,3.3124,3.3106,0.0,0.0,0.0,0.0,0.0,3.3174,3.3174,3.3174,3.3174,3.3106,3.3106,3.3106,3.3124,3.3124,3.3124,3.2528,3.2516,3.3124,3.2516,3.2528,3.3124,3.3124,3.3124,3.3124,3.3124,3.3124,3.3124,3.3124,3.3124,3.3124,3.3124,3.3124,3.3124,3.3124,3.3124,3.3124,3.3124,3.3124,3.3124,3.3124,3.3124,3.3124,3.3124,3.3124,3.3124,3.3124,3.3124,3.3124,0.0,0.0,0.0,3.3124,3.3124,3.3124,3.3124,3.3124,3.3124,3.3124,3.3124,3.3124,3.3124,3.3124,3.3124,3.3124,3.3124,3.3124,3.3124,3.3124,3.3124,3.3124,3.3124,3.3124,3.3124,3.3124,3.3124,3.3124,3.3124,3.3124,3.3124,3.3124,3.3124,3.3124,3.3124,3.3124,3.3124,3.3124,3.3124,3.3124,3.3124,3.3124,3.3124,3.3124,3.3124,3.3124,3.3124,3.3124,3.3124,3.3124,3.3124,3.3124,3.3124,3.3124,3.3124,3.3124,3.3124,3.3124,3.3746,3.3671,3.3545,3.3187,3.3124,3.3124,3.3124,3.3124,3.3262,0.0,0.0,0.0,3.4223,3.4274,3.4274,3.4274,3.4274,3.4274,3.4274,3.3884,3.3671,3.3671,3.3294,3.3124,3.3124,3.2918,3.2918,3.3124,3.2918,3.2918,3.3124,3.3124,3.3124,3.3124,3.3124,3.3124,3.3124,3.3124,3.3124,3.3124,3.3124,3.3124,3.3124,3.3124,3.3124,3.3124,3.3124,3.3124,3.3124,3.3124,3.3124,3.3124,3.3124,3.3124,3.3124,3.3124,3.3124,3.3124,3.3124,0.0,0.0,0.0,0.0,0.0,3.3124,3.3124,3.3124,3.3124,3.3124,3.3124,3.3124,3.3124,3.3124,3.3124,3.3124,3.3124,3.3124,3.3124,3.3124,3.3124,3.3124,3.3124,3.3124,3.3124,3.3124,3.3124,3.3124,3.3124,3.3124,3.3124,3.3124,3.3124,3.3124,3.3124,3.3124,3.3124,3.3124,3.3124,3.3124,3.3124,3.3124,3.3124,3.3124,3.3124,3.3124,3.3124,3.3124,3.3124,3.3124,3.3124,3.3124,3.3124,3.3124,3.3124,3.3124,3.3124,3.4311,3.4248,3.4135,3.3822,3.3759,3.3759,3.3759,3.3759,3.3872,0.0,0.0,0.0,3.4688,3.468,3.468,3.468,3.468,3.468,3.468,3.4424,3.4248,3.4248,3.3935,3.3759,3.3759,3.3319,3.3194,3.342,3.2955,3.2842,3.3124,3.3124,3.3124,3.3124,3.3124,3.3124,3.3124,3.3124,3.3124,3.3124,3.3124,3.3124,3.3124,3.3124,3.3124,3.3124,3.3124,3.3124,3.3124,3.3124,3.3124,3.3124,3.3124,3.3124,3.3124,3.3124,3.3124,3.3124,3.3124,3.3124,3.3124,3.3124,0.0,0.0,3.3124,3.3124,3.3124,3.3124,3.3124,3.3124,3.3124,3.3124,3.3124,3.3124,3.3124,3.3124,3.3124,3.3124,3.3124,3.3124,3.3124,3.3124,3.3124,3.3124,3.3124,3.3124,3.3124,3.3124,3.3124,3.3124,3.3124,3.3124,3.3124,3.3124,3.3124,3.3124,3.3124,3.3124,3.3124,3.3124,3.3124,3.3124,3.3124,3.3124,3.3124,3.3124,3.3124,3.3124,3.3124,3.3124,3.3124,3.3124,3.3124,3.3124,3.3124,3.3124,0.0,3.4768,3.4756,3.4726,3.468,3.468,3.468,3.468,3.4705,0.0,3.4864,3.4901,3.4901,3.4901,3.4901,3.4901,3.4901,3.4901,3.4901,3.4851,3.4768,3.4768,3.4705,3.468,3.468,3.3759,3.3495,3.3985,3.298,3.2754,3.3257,3.3257,3.3257,3.3257,3.3257,3.3257,3.3257,3.3257,3.3219,3.3156,3.3106,3.3124,3.3124,3.3124,3.3124,3.3124,3.3124,3.3124,3.3124,3.3124,3.3124,3.3124,3.3124,3.3124,3.3124,3.3124,3.3124,3.3124,3.3124,3.3124,3.3124,3.3124,3.3124,0.0,3.3124,3.3124,3.3124,3.3124,3.3124,3.3124,3.3124,3.3124,3.3124,3.3124,3.3124,3.3124,3.3124,3.3124,3.3124,3.3124,3.3124,3.3124,3.3124,3.3124,3.3124,3.3124,3.3124,3.3124,3.3124,3.3124,3.3124,3.3124,3.3124,3.3124,3.3124,3.3124,3.3124,3.3124,3.3124,3.3124,3.3124,3.3124,3.3124,3.3124,3.3124,3.3124,3.3124,3.3124,3.3124,3.3124,3.3124,3.3124,3.3124,3.3124,3.3124,3.3124,3.542,3.5332,3.5194,3.4801,3.468,3.468,3.468,3.468,3.4831,3.5282,3.5768,3.6091,3.6091,3.6091,3.6091,3.6091,3.6091,3.6091,3.6091,3.5629,3.5332,3.5332,3.4919,3.468,3.468,3.4512,3.4449,3.4562,3.4336,3.4286,3.4399,3.4399,3.4399,3.4399,3.4399,3.4399,3.4399,3.4399,3.4148,3.3709,3.3257,3.3124,3.3124,3.3124,3.3124,3.3124,3.3124,3.3124,3.3124,3.3124,3.3124,3.3124,3.3124,3.3124,3.3124,3.3124,3.3124,3.3124,3.3124,3.3124,3.3124,3.3124,3.3124,0.0,3.3124,3.3124,3.3124,3.3124,3.3124,3.3124,3.3124,3.3124,3.3124,3.3124,3.3124,3.3124,3.3124,3.3124,3.3124,3.3124,3.3124,3.3124,3.3124,3.3124,3.3124,3.3124,3.3124,3.3124,3.3124,3.3124,3.3124,3.3124,3.3124,3.3124,3.3124,3.3124,3.3124,3.3124,3.3124,3.3124,3.3124,3.3124,3.3124,3.3124,3.3124,3.3124,3.3124,3.3124,3.3124,3.3124,3.3124,3.3124,3.3124,3.3124,3.3124,3.3124,3.6006,3.5956,3.5868,3.5592,3.5542,3.5542,3.5542,3.5542,3.5642,3.5918,3.6194,3.6405,3.6405,3.6405,3.6405,3.6405,3.6405,3.6405,3.6405,3.6107,3.5956,3.5956,3.5692,3.5542,3.5542,3.5265,3.5094,3.5094,3.4806,3.468,3.468,3.468,3.468,3.468,3.468,3.468,3.468,3.468,3.4517,3.4261,3.3709,3.3319,3.3124,3.3124,3.3124,3.3124,3.3124,3.3124,3.3124,3.3124,3.3124,3.3124,3.3124,3.3124,3.3124,3.3124,3.3124,3.3124,3.3124,3.3124,3.3124,3.3124,3.3124,0.0,0.0,3.3124,3.3124,3.3124,3.3124,3.3124,3.3124,3.3124,3.3124,3.3124,3.3124,3.3124,3.3124,3.3124,3.3124,3.3124,3.3124,3.3124,3.3124,3.3124,3.3124,3.3124,3.3124,3.3124,3.3124,3.3124,3.3124,3.3124,3.3124,3.3124,3.3124,3.3124,3.3124,3.3124,3.3124,3.3124,3.3124,3.3124,3.3124,3.3124,3.3124,3.3124,3.3124,3.3124,3.3124,3.3124,3.3124,3.3124,3.3124,3.3124,3.3124,3.3124,3.6405,3.6405,3.6405,3.6405,3.6405,3.6405,3.6405,3.6405,3.6405,3.6405,3.6405,3.6405,3.6405,3.6405,3.6405,3.6405,3.6405,3.6405,3.6405,3.6405,3.6405,3.6405,3.6405,3.6405,3.6405,3.5931,3.5658,3.5658,3.5253,3.5039,3.5039,3.5039,3.5039,3.5039,3.5039,3.5039,3.5039,3.5039,3.4977,3.4806,3.4399,3.3884,3.3382,3.3269,3.3232,3.3219,3.3162,3.3124,3.3124,3.3124,3.3124,3.3124,3.3124,3.3124,3.3124,3.3124,3.3124,3.3124,3.3124,3.3124,3.3124,3.3124,3.3124,3.3124,0.0,0.0,0.0,3.3398,3.3556,3.3628,3.3428,3.3398,3.3275,3.296,3.3006,3.3116,3.3204,3.3164,3.3124,3.3124,3.3124,3.3124,3.3124,3.3124,3.3124,3.3124,3.3124,3.3124,3.3124,3.3124,3.3124,3.3124,3.3124,3.3124,3.3124,3.3124,3.3124,3.3124,3.3124,3.3124,3.3124,3.3124,3.3124,3.3124,3.3124,3.3124,3.3124,3.3124,3.3124,3.3124,3.3124,3.3124,3.3124,3.3124,3.3124,3.3124,3.6405,3.6405,3.6405,3.6405,3.6405,3.6405,3.6405,3.6405,3.6405,3.6405,3.6405,3.6405,3.6405,3.6405,3.6405,3.6405,3.6405,3.6405,3.6405,3.6405,3.6405,3.6405,3.6405,3.6405,3.6405,3.6342,3.6317,3.6317,3.6254,3.6216,3.6216,3.6216,3.6216,3.6216,3.6216,3.6216,3.6216,3.6216,3.5893,3.5395,3.5332,3.4981,3.4487,3.3985,3.3809,3.3746,3.3257,3.3124,3.3124,3.3124,3.3124,3.3124,3.3124,3.3124,3.3124,3.3124,3.3124,3.3124,3.3124,3.3124,3.3124,3.3124,3.3124,3.3124,3.3124,0.0,3.4511,3.4511,0.0,3.5588,3.4664,0.0,0.0,3.2546,3.2742,3.3263,3.3667,3.335,3.3124,3.3124,3.3124,3.3124,3.3124,3.3124,3.3124,3.3124,3.3124,3.3124,3.3124,3.3124,3.3124,3.3124,3.3124,3.3124,3.3124,3.3124,3.3124,3.3124,3.3124,3.3124,3.3124,3.3124,3.3124,3.3124,3.3124,3.3124,3.3124,3.3124,3.3124,3.3124,3.3124,3.3124,3.3124,3.3124,3.3124,3.3124,3.6405,3.6405,3.6405,3.6405,3.6405,3.6405,3.6405,3.6405,3.6405,3.6405,3.6405,3.6405,3.6405,3.6405,3.6405,3.6405,3.6405,3.6405,3.6405,3.6405,3.6405,3.6405,3.6405,3.6405,3.6405,3.6405,3.6405,3.6405,3.6405,3.6405,3.6405,3.6405,3.6405,3.6405,3.6405,3.6405,3.6405,3.6405,3.6267,3.6019,3.6019,3.5881,3.5579,3.4713,3.4173,3.3872,3.3633,3.3345,3.3124,3.3124,3.3124,3.3124,3.3124,3.3124,3.3124,3.3124,3.3124,3.3124,3.3124,3.3556,3.3869,3.3283,3.4024,3.4774,3.415,3.4387,3.4856,3.544,0.0,0.0,0.0,0.0,0.0,0.0,3.4245,3.4295,3.5075,3.5023,3.4678,3.4108,3.3471,3.3124,3.3124,3.3124,3.3124,3.3124,3.3124,3.3124,3.3124,3.3124,3.3124,3.3124,3.3124,3.3124,3.3124,3.3124,3.3124,3.3124,3.3124,3.3124,3.3124,3.3124,3.3124,3.3124,3.3124,3.3124,3.3124,3.3124,3.3124,3.3124,3.3124,3.3124,3.3124,3.3124,3.3124,3.3124,3.6405,3.6405,3.6405,3.6405,3.6405,3.6405,3.6405,3.6405,3.6405,3.6405,3.6405,3.6405,3.6405,3.6405,3.6405,3.6405,3.6405,3.6405,3.6405,3.6405,3.6405,3.6405,3.6405,3.6405,3.6405,3.6405,3.6405,3.6405,3.6405,3.6405,3.6405,3.6405,3.6405,3.6405,3.6405,3.6405,3.6405,3.6405,3.6405,3.6405,3.6405,3.6405,3.6304,3.5316,3.4613,3.4123,3.4123,3.3771,3.3307,3.3307,3.3206,3.3124,3.3124,3.3124,3.3124,3.3124,3.3313,3.3471,3.3197,3.3869,3.4511,3.3713,3.4444,3.5305,3.517,3.5129,3.54,3.6422,3.6304,0.0,0.0,0.0,3.5627,3.5912,0.0,3.5426,3.6303,3.6297,3.5814,3.4815,3.3755,3.324,3.3513,3.3283,3.324,3.3513,3.3283,3.3124,3.3124,3.3124,3.3124,3.3124,3.3124,3.3124,3.3124,3.3124,3.3124,3.3124,3.3124,3.3124,3.3124,3.3124,3.3124,3.3124,3.3124,3.3124,3.3124,3.3124,3.3124,3.3124,3.3124,3.3124,3.3124,3.3124,3.3124,3.3124,3.6405,3.6405,3.6405,3.6405,3.6405,3.6405,3.6405,3.6405,3.6405,3.6405,3.6405,3.6405,3.6405,3.6405,3.6405,3.6405,3.6405,3.6405,3.6405,3.6405,3.6405,3.6405,3.6405,3.6405,3.6405,3.6405,3.6405,3.6405,3.6405,3.6405,3.6405,3.6405,3.6405,3.6405,3.6405,3.6405,3.6405,3.6405,3.6405,3.6405,3.6405,3.6405,3.6342,3.5683,3.5132,3.4655,3.4655,3.4349,3.3872,3.3872,3.352,3.3124,3.3124,3.3124,3.3124,3.3124,3.3839,3.4428,3.3398,3.3869,3.4705,3.4664,3.3911,3.37,3.5694,3.6158,3.6448,3.751,3.8546,3.8943,3.7942,3.7715,3.7196,3.5659,3.5839,0.0,0.0,3.6525,3.5814,3.4815,3.3755,3.3513,3.4553,3.3713,3.3513,3.4594,3.367,3.3124,3.3124,3.3124,3.3124,3.3124,3.3124,3.3124,3.3124,3.3124,3.3124,3.3124,3.3124,3.3124,3.3124,3.3124,3.3124,3.3124,3.3124,3.3124,3.3124,3.3124,3.3124,3.3124,3.3124,3.3124,3.3124,3.3124,3.3124,3.3124,3.6405,3.6405,3.6405,3.6405,3.6405,3.6405,3.6405,3.6405,3.6405,3.6405,3.6405,3.6405,3.6405,3.6405,3.6405,3.6405,3.6405,3.6405,3.6405,3.6405,3.6405,3.6405,3.6405,3.6405,3.6405,3.6405,3.6405,3.6405,3.6405,3.6405,3.6405,3.6405,3.6405,3.6405,3.6405,3.6405,3.6405,3.6405,3.6405,3.6405,3.6405,3.6405,3.6392,3.6157,3.5742,3.5219,3.5219,3.4868,3.4387,3.4022,3.3771,3.3558,3.3194,3.3124,3.3124,3.3124,3.3356,3.3713,3.4079,3.4884,3.5547,3.4856,3.6015,3.7074,3.6369,3.6735,3.7572,3.862,3.8583,3.8472,3.8782,3.8271,3.7846,3.8017,3.7609,3.7591,0.0,3.7812,3.7137,3.6802,3.5224,3.4317,3.4664,3.3713,3.3556,3.4622,3.3713,3.3124,3.3124,3.3124,3.3124,3.3124,3.3124,3.3124,3.3124,3.3124,3.3124,3.3124,3.3124,3.3124,3.3124,3.3124,3.3124,3.3124,3.3124,3.3124,3.3124,3.3124,3.3124,3.3124,3.3124,3.3124,3.3124,3.3124,3.3124,3.3124,3.6405,3.6405,3.6405,3.6405,3.6405,3.6405,3.6405,3.6405,3.6405,3.6405,3.6405,3.6405,3.6405,3.6405,3.6405,3.6405,3.6405,3.6405,3.6405,3.6405,3.6405,3.6405,3.6405,3.6405,3.6405,3.6405,3.6405,3.6405,3.6405,3.6405,3.6405,3.6405,3.6405,3.6405,3.6405,3.6405,3.6405,3.6405,3.6405,3.6405,3.6405,3.6405,3.6405,3.6405,3.6144,3.583,3.583,3.5479,3.4919,3.4613,3.4349,3.4098,3.3545,3.3647,3.3939,3.3734,3.3898,3.4332,3.5047,3.5708,3.6132,3.5882,3.7035,3.8092,3.7482,3.7587,3.8107,3.9177,3.887,3.8583,3.9265,3.8819,3.8583,3.9301,3.8819,3.862,0.0,3.8782,3.8234,3.7829,3.6279,3.5238,3.5238,3.4609,3.4332,3.4664,3.4079,3.3513,3.3124,3.3124,3.3124,3.3124,3.3124,3.3283,3.367,3.3283,3.3283,3.367,3.3283,3.3313,3.367,3.367,3.3869,3.4207,3.4207,3.3982,3.3713,3.4053,3.3784,3.3154,3.3513,3.3441,3.3124,3.3124,3.3124,3.3124,3.6405,3.6405,3.6405,3.6405,3.6405,3.6405,3.6405,3.6405,3.6405,3.6405,3.6405,3.6405,3.6405,3.6405,3.6405,3.6405,3.6405,3.6405,3.6405,3.6405,3.6405,3.6405,3.6405,3.6405,3.6405,3.6405,3.6405,3.6405,3.6405,3.6405,3.6405,3.6405,3.6405,3.6405,3.6405,3.6405,3.6405,3.6405,3.6405,3.6405,3.6405,3.6405,3.6405,3.6405,3.6405,3.6405,3.6405,3.6031,3.5533,3.5508,3.5157,3.4663,3.411,3.4615,3.5331,3.4861,3.5427,3.6172,3.6237,3.629,3.6526,3.7548,3.706,3.6877,3.8855,3.8583,3.8182,3.9177,3.9388,3.9388,3.9388,3.9388,3.9388,3.9388,3.9388,3.9388,3.9388,3.9388,3.9017,3.7994,3.6968,3.633,3.6277,3.6212,3.5734,3.4815,3.4746,3.4233,3.3154,3.3154,3.3154,3.3124,3.3124,3.3641,3.4705,3.3641,3.3641,3.4705,3.367,3.3713,3.4705,3.4746,3.5278,3.6198,3.6198,3.5668,3.4856,3.5814,3.5034,3.3356,3.4387,3.4108,3.3154,3.3124,3.3124,3.3124,3.6405,3.6405,3.6405,3.6405,3.6405,3.6405,3.6405,3.6405,3.6405,3.6405,3.6405,3.6405,3.6405,3.6405,3.6405,3.6405,3.6405,3.6405,3.6405,3.6405,3.6405,3.6405,3.6405,3.6405,3.6405,3.6405,3.6405,3.6405,3.6405,3.6405,3.6405,3.6405,3.6405,3.6405,3.6405,3.6405,3.6405,3.6405,3.6405,3.6405,3.6405,3.6405,3.6405,3.6405,3.6405,3.6405,3.6405,3.6317,3.6094,3.5633,3.5408,3.5194,3.4675,3.4388,3.4446,3.511,3.5201,3.54,3.6982,3.7381,3.7472,3.7753,3.8182,3.8494,3.8271,3.862,3.9068,3.9337,3.9388,3.9388,3.9388,3.9388,3.9388,3.9388,3.9388,3.9388,3.9388,3.9388,3.9301,3.9017,3.8745,3.8256,3.7472,3.6001,3.5278,3.5774,3.5129,3.4233,3.3154,3.3869,3.3911,3.3111,3.3124,3.3641,3.4705,3.3641,3.3641,3.4705,3.4428,3.4428,3.4746,3.5467,3.5974,3.6198,3.6198,3.6053,3.5814,3.6079,3.5894,3.5413,3.5708,3.5197,3.4191,3.3398,3.3124,3.3124,3.6405,3.6405,3.6405,3.6405,3.6405,3.6405,3.6405,3.6405,3.6405,3.6405,3.6405,3.6405,3.6405,3.6405,3.6405,3.6405,3.6405,3.6405,3.6405,3.6405,3.6405,3.6405,3.6405,3.6405,3.6405,3.6405,3.6405,3.6405,3.6405,3.6405,3.6405,3.6405,3.6405,3.6405,3.6405,3.6405,3.6405,3.6405,3.6405,3.6405,3.6405,3.6405,0.0,3.6405,3.6405,3.6405,3.6405,3.6405,3.6367,3.6006,3.5893,3.5805,3.5207,3.5155,3.5489,3.6383,3.6235,3.6211,3.8361,3.8362,3.7919,3.8383,3.8943,3.9228,3.862,3.898,3.9388,3.9388,3.9388,3.9388,0.0,0.0,0.0,3.9388,3.9388,3.9388,3.9388,3.9388,3.9388,3.9388,3.9388,3.9141,3.8546,3.6996,3.6081,3.6198,3.5668,3.5075,3.4485,3.4622,3.4428,3.3839,3.3797,3.4304,3.5359,3.4761,3.5007,3.6055,3.5561,3.5601,3.6081,3.6632,3.7175,3.761,3.761,3.7329,3.693,3.7405,3.7046,3.6198,3.6198,3.5854,3.5278,3.4692,3.3898,3.3124,3.6405,3.6405,3.6405,3.6405,3.6405,3.6405,3.6405,3.6405,3.6405,3.6405,3.6405,3.6405,3.6405,3.6405,3.6405,3.6405,3.6405,3.6405,3.6405,3.6405,3.6405,3.6405,3.6405,3.6405,3.6405,3.6405,3.6405,3.6405,3.6405,3.6405,3.6405,3.6405,3.6405,3.6405,3.6405,3.6405,3.6405,3.6405,3.6405,3.6405,3.6405,3.6405,3.6405,3.6405,3.6405,3.6405,3.6405,3.6405,3.6405,3.6405,3.6499,3.6539,3.6012,3.6535,3.7483,3.8199,3.795,3.7906,3.9845,3.929,3.8335,3.9207,3.9388,3.9388,3.9388,3.9388,3.9388,3.9388,3.9388,3.9388,3.9388,0.0,0.0,3.9388,3.9388,3.9388,3.9388,3.9388,3.9388,3.9388,3.9388,0.0,3.9388,3.8435,3.742,3.6487,3.6408,3.6369,3.6198,3.5359,3.4897,3.4897,3.4787,3.5251,3.6408,3.6277,3.6735,3.7791,3.6852,3.6891,3.7791,3.7956,3.8509,3.9388,3.9388,3.887,3.8069,3.9017,3.8294,3.6643,3.6643,3.6526,3.6408,3.6408,3.5075,3.3313,3.6405,3.6405,3.6405,3.6405,3.6405,3.6405,3.6405,3.6405,3.6405,3.6405,3.6405,3.6405,3.6405,3.6405,3.6405,3.6405,3.6405,3.6405,3.6405,3.6405,3.6405,3.6405,3.6405,3.6405,3.6405,3.6405,3.6405,3.6405,3.6405,3.6405,3.6405,3.6405,3.6405,3.6405,3.6405,3.6405,3.6405,3.6405,3.6405,3.6405,3.6405,3.6405,3.6405,3.6405,3.6405,3.6405,3.6405,3.6405,3.6405,3.6405,3.7023,3.7789,3.7684,3.8109,3.8833,3.988,3.9791,3.9466,4.0218,4.0196,3.9862,3.9471,3.9388,3.9388,3.9388,3.9388,3.9388,3.9388,3.9388,3.9388,3.9388,0.0,0.0,3.9388,3.9388,3.9388,3.9388,3.9388,3.9388,3.9388,3.9388,3.9388,3.9388,3.8435,3.7715,3.7548,3.751,3.7137,3.6251,3.6053,3.5934,0.0,3.5129,3.5615,0.0,3.6643,3.6735,3.7791,3.7625,3.7625,3.7829,3.8708,3.9228,3.9388,3.9388,3.9301,3.9141,3.9301,3.9177,3.8855,3.8855,3.8294,3.751,3.751,3.62,3.4428,3.6405,3.6405,3.6405,3.6405,3.6405,3.6405,3.6405,3.6405,3.6405,3.6405,3.6405,3.6405,3.6405,3.6405,3.6405,3.6405,3.6405,3.6405,3.6405,3.6405,3.6405,3.6405,3.6405,3.6405,3.6405,3.6405,3.6405,3.6405,3.6405,3.6405,3.6405,3.6405,3.6405,3.6405,3.6405,3.6405,3.6405,3.6405,3.6405,3.6405,3.6405,3.6405,3.6405,3.6405,3.6405,3.6405,3.6405,3.6803,3.7196,3.6581,3.715,3.8107,3.8107,3.8714,3.9687,4.0796,4.0694,4.0387,4.1207,4.092,4.0322,4.0008,3.9679,3.9388,3.9388,3.9388,3.9388,3.9388,3.9388,3.9388,3.9388,3.9388,0.0,3.9388,3.9388,3.9388,3.9388,3.9388,3.9388,3.9388,3.9388,3.9388,3.9388,3.8943,3.862,3.862,3.8107,3.7829,3.7852,3.7329,3.7021,0.0,0.0,0.0,3.7791,0.0,3.813,3.862,3.862,3.862,3.8671,3.9141,3.9388,3.9388,3.9388,3.9388,3.9388,3.9388,3.9388,3.9388,3.9388,3.9068,3.862,3.862,3.7639,3.6134,3.6405,3.6405,3.6405,3.6405,3.6405,3.6405,3.6405,3.6405,3.6405,3.6405,3.6405,3.6405,3.6405,3.6405,3.6405,3.6405,3.6405,3.6405,3.6405,3.6405,3.6405,3.6405,3.6405,3.6405,3.6405,3.6405,3.6405,3.6405,3.6405,3.6405,3.6405,3.6405,3.6405,3.6405,3.6405,3.6405,3.6405,3.6405,3.6405,3.6405,3.6405,3.6405,3.6405,3.6405,3.6534,3.6756,3.6756,3.7507,3.8347,3.7461,3.7893,3.8845,3.8845,3.9653,4.0802,4.1684,4.1584,4.1339,4.2177,4.1647,4.0756,4.0472,4.0008,3.9589,3.9418,3.9388,3.9388,3.9388,3.9388,3.9388,3.9388,3.9388,0.0,3.9388,3.9388,3.9388,3.9388,3.9388,3.9388,3.9388,3.9388,3.9388,3.9388,3.9388,3.9388,3.9388,3.862,3.8509,3.9337,3.8383,3.7904,3.8144,3.7919,3.7919,3.8144,0.0,3.9388,3.9388,3.9388,3.9388,3.9388,3.9388,3.9388,3.9388,3.9388,3.9388,3.9388,3.9388,3.9388,3.9388,3.9388,3.9388,3.9388,3.9388,3.8708,3.7563,3.6405,3.6405,3.6405,3.6405,3.6405,3.6405,3.6405,3.6405,3.6405,3.6405,3.6405,3.6405,3.6405,3.6405,3.6405,3.6405,3.6405,3.6405,3.6405,3.6405,3.6405,3.6405,3.6405,3.6405,3.6405,3.6405,3.6405,3.6405,3.6405,3.6405,3.6405,3.6405,3.6405,3.6405,3.6405,3.6405,3.6405,3.6405,3.6405,3.6405,3.6405,3.6405,3.6405,3.6405,3.7023,3.7939,3.7939,3.8693,3.9724,3.9593,4.0304,4.128,4.128,4.207,4.2996,4.3115,4.3111,4.2947,4.2521,4.2306,4.1931,4.0696,4.0352,4.0157,3.9559,3.9388,3.9388,3.9388,3.9388,3.9388,3.9388,3.9388,3.9388,0.0,3.9388,3.9388,3.9388,3.9388,3.9388,3.9388,3.9388,3.9388,3.9388,3.9388,3.9388,3.9388,3.9301,3.9301,3.9388,3.8383,3.8271,3.9228,3.8308,3.8271,3.9228,3.9337,3.9388,3.9388,3.9388,3.9388,3.9388,3.9388,3.9388,3.9388,3.9388,3.9388,3.9388,3.9388,3.9388,3.9388,3.9388,3.9388,3.9388,3.9388,3.8708,3.7753,3.6405,3.6405,3.6405,3.6405,3.6405,3.6405,3.6405,3.6405,3.6405,3.6405,3.6405,3.6405,3.6405,3.6405,3.6405,3.6405,3.6405,3.6405,3.6405,3.6405,3.6405,3.6405,3.6405,3.6405,3.6405,3.6405,3.6405,3.6405,3.6405,3.6405,3.6405,3.6405,3.6405,3.6405,3.6405,3.6405,3.6405,3.6405,3.6405,3.6405,3.6405,3.6405,3.6452,3.715,3.7723,3.8198,3.8917,3.9915,4.0916,4.0916,4.1211,4.1587,4.1587,4.2371,4.329,4.329,4.329,4.3245,4.3015,4.2671,4.2276,4.1752,4.0995,4.0337,4.0068,3.9709,3.9388,3.9388,3.9388,3.9388,3.9388,3.9388,3.9388,3.9388,0.0,3.9388,3.9388,3.9388,3.9388,3.9388,3.9388,3.9388,3.9388,3.9388,3.9388,3.9388,3.9388,3.9388,3.9388,3.898,3.8943,3.9388,0.0,3.898,3.9388,3.9388,3.9388,3.9388,3.9388,3.9388,3.9388,3.9388,3.9388,3.9388,3.9388,3.9388,3.9388,3.9388,3.9388,3.9388,3.9388,3.9388,3.9388,3.9388,3.9141,3.8745,3.6405,3.6405,3.6405,3.6405,3.6405,3.6405,3.6405,3.6405,3.6405,3.6405,3.6405,3.6405,3.6405,3.6405,3.6405,3.6405,3.6405,3.6405,3.6405,3.6405,3.6405,3.6405,3.6405,3.6405,3.6405,3.6405,3.6405,3.6405,3.6405,3.6405,3.6405,3.6405,3.6405,3.6405,3.6405,3.6405,3.6405,3.6405,3.6405,3.6405,3.6405,3.6581,3.6977,3.7802,3.8545,3.9244,4.0088,4.1127,4.2111,4.2111,4.2111,4.2111,4.2111,4.2644,4.329,4.329,4.329,4.329,4.329,4.3,4.2635,4.244,4.1707,4.0876,4.0487,4.0038,3.9649,3.9454,3.9388,3.9388,3.9388,3.9388,3.9388,3.9388,0.0,0.0,3.9388,3.9388,3.9388,3.9388,3.9388,3.9388,3.9388,3.9388,3.9388,3.9388,3.9388,3.9388,3.9388,3.9388,3.9388,0.0,0.0,0.0,3.9388,3.9388,3.9388,3.9388,3.9388,3.9388,3.9388,3.9388,3.9388,3.9388,3.9388,3.9388,3.9388,3.9388,3.9388,3.9388,3.9388,3.9388,3.9388,3.9388,3.9388,3.9388,3.6405,3.6405,3.6405,3.6405,3.6405,3.6405,3.6405,3.6405,3.6405,3.6405,3.6405,3.6405,3.6405,3.6405,3.6405,3.6405,3.6405,3.6405,3.6405,3.6405,3.6405,3.6405,3.6405,3.6405,3.6405,3.6405,3.6405,3.6405,3.6405,3.6405,3.6405,3.6405,3.6405,3.6405,3.6405,3.6405,3.6405,3.6405,3.6405,3.6405,3.6405,3.7057,3.8062,3.8107,3.9552,4.1545,4.1587,4.233,4.329,4.329,4.329,4.329,4.329,4.329,4.329,4.329,4.329,4.329,4.329,4.329,4.3125,4.256,4.2396,4.2036,4.0696,4.0382,4.0202,3.9559,3.9388,3.9388,3.9388,3.9388,3.9388,3.9388,0.0,0.0,0.0,3.9388,3.9388,3.9388,3.9388,3.9388,3.9388,3.9388,3.9388,3.9388,3.9388,3.9388,3.9388,0.0,0.0,3.9388,3.9388,0.0,3.9388,3.9388,3.9388,3.9388,3.9388,3.9388,3.9388,3.9388,3.9388,3.9388,3.9388,3.9388,3.9388,3.9388,3.9388,3.9388,3.9388,3.9388,3.9388,3.9388,3.9388,3.9388,3.6405,3.6405,3.6405,3.6405,3.6405,3.6405,3.6405,3.6405,3.6405,3.6405,3.6405,3.6405,3.6405,3.6405,3.6405,3.6405,3.6405,3.6405,3.6405,3.6405,3.6405,3.6405,3.6405,3.6405,3.6405,3.6405,3.6405,3.6405,3.6405,3.6405,3.6405,3.6405,3.6405,3.6405,3.6405,3.6405,3.6405,3.6405,3.6405,3.6452,3.7243,3.7756,3.8289,3.9887,4.0944,4.1726,4.2467,4.2981,4.329,4.329,4.329,4.329,4.329,4.329,4.329,4.329,4.329,4.329,4.329,4.329,4.3245,4.3075,4.2686,4.2291,4.1871,4.1055,4.0337,4.0127,3.9723,3.9388,3.9388,3.9388,3.9388,3.9388,3.9388,0.0,3.9388,3.9388,3.9388,3.9388,3.9388,3.9388,3.9388,3.9388,3.9388,3.9388,3.9388,3.9388,3.9388,0.0,0.0,0.0,3.9388,0.0,3.9388,3.9388,3.9388,3.9388,3.9388,3.9388,3.9388,3.9388,3.9388,3.9388,3.9388,3.9388,3.9388,3.9388,3.9388,3.9388,3.9388,3.9388,3.9388,3.9388,3.9388,3.9388,3.6405,3.6405,3.6405,3.6405,3.6405,3.6405,3.6405,3.6405,3.6405,3.6405,3.6405,3.6405,3.6405,3.6405,3.6405,3.6405,3.6405,3.6405,3.6405,3.6405,3.6405,3.6405,3.6405,3.6405,3.6405,3.6405,3.6405,3.6405,3.6405,3.6405,3.6405,3.6405,3.6405,3.6405,3.6405,3.6628,3.7023,3.6581,3.6896,3.7736,3.7984,3.8635,3.9596,4.1028,4.185,4.233,4.3036,4.329,4.329,4.329,4.329,4.329,4.329,4.329,4.329,4.329,4.329,4.329,4.329,4.329,4.329,4.329,4.303,4.2671,4.2455,4.1572,4.0696,4.0442,4.0068,3.9709,3.9433,3.9388,3.9388,3.9388,3.9388,3.9388,3.9388,3.9388,3.9388,3.9388,3.9388,3.9388,3.9388,3.9388,3.9388,3.9388,3.9388,3.9388,0.0,0.0,3.9388,3.9388,3.9388,3.9388,3.9388,3.9388,3.9388,3.9388,3.9388,3.9388,3.9388,3.9388,3.9388,3.9388,3.9388,3.9388,3.9388,3.9388,3.9388,3.9388,3.9388,3.9388,3.9388,3.9388,3.9388,3.9388,3.6405,3.6405,3.6405,3.6405,3.6405,3.6405,3.6405,3.6405,3.6405,3.6405,3.6405,3.6405,3.6405,3.6405,3.6405,3.6405,3.6405,3.6405,3.6405,3.6405,3.6405,3.6405,3.6405,3.6405,3.6405,3.6405,3.6405,3.6405,3.6405,3.6405,3.6405,3.6405,3.6405,3.6405,3.6499,3.7103,3.8017,3.707,3.7906,3.9812,3.8769,3.9626,4.1587,4.1684,4.2371,4.329,4.329,4.329,4.329,4.329,4.329,4.329,4.329,4.329,4.329,4.329,4.329,4.329,4.329,4.329,4.329,4.329,4.329,4.3125,4.2605,4.1961,4.1265,4.0666,4.0502,4.0262,3.9604,3.9448,3.9433,3.9388,3.9388,3.9388,3.9388,3.9388,3.9388,3.9388,3.9388,3.9388,3.9388,3.9388,3.9388,3.9388,3.9388,0.0,0.0,0.0,3.9388,3.9388,3.9388,3.9388,3.9388,3.9388,3.9388,3.9388,3.9388,3.9388,3.9388,3.9388,3.9388,3.9388,3.9388,3.9388,3.9388,3.9388,3.9388,3.9388,3.9388,3.9388,3.9388,3.9388,3.9388,3.9388,3.6405,3.6405,3.6405,3.6405,3.6405,3.6405,3.6405,3.6405,3.6405,3.6405,3.6405,3.6405,3.6405,3.6405,3.6405,3.6405,3.6405,3.6405,3.6405,3.6405,3.6405,3.6405,3.6405,3.6405,3.6405,3.6405,3.6405,3.6405,3.6405,3.6405,3.6405,3.6405,3.6405,3.6452,3.7322,3.7848,3.8153,3.8796,3.9417,3.9942,4.0561,4.1112,4.1684,4.2548,4.3076,4.329,4.329,4.329,4.329,4.329,4.329,4.329,4.329,4.329,4.329,4.329,4.329,4.329,4.329,4.329,4.329,4.329,4.329,4.3245,4.3135,4.2596,4.2126,4.1976,4.1542,4.095,4.0292,4.0172,4.0008,3.9463,3.9388,3.9388,3.9388,3.9388,3.9388,3.9388,3.9388,3.9388,3.9388,3.9388,3.9388,0.0,0.0,3.9388,3.9388,3.9388,3.9388,3.9388,3.9388,3.9388,3.9388,3.9388,3.9388,3.9388,3.9388,3.9388,3.9388,3.9388,3.9388,3.9388,3.9388,3.9388,3.9388,3.9388,3.9388,3.9388,3.9388,3.9388,3.9388,3.9388,3.9388,3.9448,3.6782,3.6935,3.7111,3.7111,3.7111,3.7111,3.7111,3.7111,3.7111,3.7111,3.6945,3.6782,3.6782,3.6556,3.6405,3.6405,3.6405,3.6405,3.6405,3.6405,3.6405,3.6405,3.6405,3.6405,3.6405,3.6405,3.6405,3.6405,3.6405,3.6405,3.6405,3.6405,3.6675,3.7196,3.7802,3.8725,3.9727,3.9842,4.0504,4.1449,4.1545,4.1891,4.2426,4.3076,4.329,4.329,4.329,4.329,4.329,4.329,4.329,4.329,4.329,4.329,4.329,4.329,4.329,4.329,4.329,4.329,4.329,4.329,4.329,4.329,4.329,4.306,4.2716,4.247,4.2111,4.1662,4.0965,4.0846,4.0636,3.9978,3.9873,3.9768,3.9454,3.9388,3.9388,3.9388,3.9388,3.9388,3.9388,3.9388,3.9388,3.9388,3.9388,0.0,3.9388,3.9388,3.9388,3.9388,3.9388,3.9388,3.9388,3.9388,3.9388,3.9388,3.9388,3.9388,3.9388,3.9388,3.9388,3.9388,3.9388,3.9388,3.9388,3.9388,3.9388,3.9388,3.9388,3.9388,3.9388,3.9388,3.9388,3.9514,3.7312,3.7688,3.8002,3.8002,3.8002,3.8002,3.8002,3.8002,3.8002,3.8002,3.76,3.7274,3.7199,3.6807,3.6505,3.6417,3.6405,3.6405,3.6405,3.6405,3.6405,3.6405,3.6405,3.6499,3.6675,3.6849,3.6943,3.6943,3.6769,3.6769,3.6943,3.6593,3.7116,3.8379,3.8379,3.9552,4.1545,4.0746,4.1532,4.321,4.2249,4.2426,4.329,4.329,4.329,4.329,4.329,4.329,4.329,4.329,4.329,4.329,4.329,4.329,4.329,4.329,4.329,4.329,4.329,4.329,4.329,4.329,4.329,4.329,4.329,4.329,4.3125,4.2626,4.2545,4.2351,4.1692,4.1572,4.1309,4.0651,4.0546,4.0352,3.9798,0.0,3.9679,3.9574,3.9574,3.9493,3.9388,3.9388,3.9388,3.9388,3.9388,3.9388,3.9388,3.9388,3.9388,3.9388,3.9388,3.9388,3.9388,3.9388,3.9388,3.9388,3.9388,3.9388,3.9388,3.9388,3.9388,3.9388,3.9388,3.9388,3.9388,3.9388,3.9388,3.9388,3.9388,3.9388,3.9388,3.9388,3.9388,3.9493,3.7877,3.7952,3.8002,3.8002,3.8002,3.8002,3.8002,3.8002,3.8002,3.8002,3.7939,3.7701,3.7236,3.7111,3.6872,3.6455,3.6405,3.6405,3.6405,3.6405,3.6405,3.6405,3.6405,3.6849,3.7802,3.8841,3.9373,3.9373,3.8347,3.8347,3.9329,3.7335,3.7553,3.9623,3.9623,4.0361,4.1629,4.2426,4.2996,4.329,4.3115,4.3155,4.329,4.329,4.329,4.329,4.329,4.329,4.329,4.329,4.329,4.329,4.329,4.329,4.329,4.329,4.329,4.329,4.329,4.329,4.329,4.329,4.329,4.329,4.329,4.329,4.326,4.317,4.314,4.2985,4.2366,4.2246,4.2036,4.1324,4.1235,4.119,4.1085,0.0,4.0876,4.0307,4.0247,4.0023,3.9433,3.9388,3.9388,3.9388,3.9388,3.9388,3.9388,3.9388,3.9388,3.9388,3.9388,3.9388,3.9388,3.9388,3.9388,3.9388,3.9388,3.9388,3.9388,3.9388,3.9388,3.9388,3.9388,3.9388,3.9388,3.9388,3.9388,3.9388,3.9388,3.9388,3.9388,3.9388,3.9388,3.9589,3.8467,3.8718,3.8919,3.8919,3.8919,3.8919,3.8919,3.8919,3.8919,3.8919,3.8655,3.8652,3.9081,3.8549,3.828,3.8733,3.8487,3.7997,3.7368,3.6756,3.6405,3.6405,3.6405,3.693,3.8062,3.8649,3.9271,3.9899,3.9316,3.936,3.9899,3.8796,3.9183,4.0831,4.0831,4.1435,4.2548,4.3076,4.329,4.329,4.329,4.329,4.329,4.329,4.329,4.329,4.329,4.329,4.329,4.329,4.329,4.329,4.329,4.329,4.329,4.329,4.329,4.329,4.329,4.329,4.329,4.329,4.329,4.329,4.329,4.329,4.329,4.329,4.329,4.32,4.294,4.288,4.2671,4.2051,4.1946,4.1826,4.1467,4.1422,4.1265,4.0965,4.0935,4.0816,4.0502,4.0472,4.0472,4.0472,4.0472,4.0472,4.0472,4.0472,4.0472,4.0472,3.9783,3.9388,3.9388,3.9388,3.9388,3.9388,3.9388,3.9388,3.9388,3.9388,3.9388,3.9388,3.9388,3.9388,3.9388,3.9388,3.9388,3.9388,3.9388,3.9388,3.9388,3.9388,3.9388,3.9604,3.9108,3.9408,3.9697,3.9697,3.9697,3.9697,3.9697,3.9697,3.9788,4.007,3.9804,3.996,4.1133,4.0388,4.0075,4.0725,4.0399,3.9554,3.8211,3.7276,3.6675,3.6405,3.6943,3.7645,3.8514,3.9023,3.977,4.0675,4.0418,4.0418,4.0675,4.0159,4.0661,4.1988,4.1726,4.2249,4.329,4.329,4.329,4.329,4.329,4.329,4.329,4.329,4.329,4.329,4.329,4.329,4.329,4.329,4.329,4.329,4.329,4.329,4.329,4.329,4.329,4.329,4.329,4.329,4.329,4.329,4.329,4.329,4.329,4.329,4.329,4.329,4.329,4.329,4.329,4.329,4.3125,4.2671,0.0,4.2417,4.1908,4.1833,4.1773,4.1662,4.1647,4.1587,4.1437,4.1422,4.1422,4.1422,4.1422,4.1422,4.1422,4.1422,4.1422,4.1422,4.0397,3.9873,3.9873,3.9873,3.9873,3.9873,3.9873,3.9873,3.9873,3.9873,3.9873,3.9873,3.9709,3.9649,3.9634,3.9448,3.9388,3.9388,3.9388,3.9388,3.9388,3.9388,3.9514,3.9813,3.9634,3.9672,3.9697,3.9697,3.9697,3.9697,3.9697,3.9697,4.0121,4.1319,4.1429,4.1706,4.2475,4.2477,4.1998,4.0896,4.0758,3.9963,3.8238,3.8017,3.7494,3.6452,3.8482,3.9681,3.9768,4.1823,4.2941,4.3036,4.1988,4.2029,4.2996,4.0887,4.1057,4.3115,4.207,4.2249,4.329,4.329,4.329,4.329,4.329,4.329,4.329,4.329,4.329,4.329,4.329,4.329,4.329,4.329,4.329,4.329,4.329,4.329,4.329,4.329,4.329,4.329,4.329,4.329,4.329,4.329,4.329,4.329,4.329,4.329,4.329,4.329,4.329,4.329,4.329,4.329,4.329,4.323,0.0,0.0,4.3155,4.314,4.297,4.2396,4.2336,4.2096,4.1482,4.1422,4.1422,4.1422,4.1422,4.1422,4.1422,4.1422,4.1422,4.1422,4.128,4.1235,4.1235,4.1235,4.1235,4.1235,4.1235,4.1235,4.1235,4.1235,4.1235,4.1205,4.0591,4.0337,4.0277,3.9664,3.9388,3.9388,3.9388,3.9388,3.9388,3.9388,3.9798,4.0427,3.9697,3.9697,3.9697,3.9697,3.9697,3.9697,3.9697,4.0364,4.1032,4.1555,4.2315,4.3183,4.427,4.3993,4.3895,4.4182,4.344,4.238,4.0993,4.0485,3.942,3.754,3.8302,3.9478,4.0916,4.1809,4.2589,4.329,4.286,4.29,4.329,4.2426,4.2467,4.329,4.286,4.29,4.329,4.329,4.329,4.329,4.329,4.329,4.329,4.329,4.329,4.329,4.329,4.329,4.329,4.329,4.329,4.329,4.329,4.329,4.329,4.329,4.329,4.329,4.329,4.329,4.329,4.329,4.329,4.329,4.329,4.329,4.329,4.329,4.329,4.329,4.329,4.329,4.329,4.329,0.0,4.329,4.329,4.329,4.32,4.3,4.297,4.2865,4.2611,4.2596,4.2596,4.2596,4.2596,4.2596,4.2596,4.2596,4.2596,4.2596,4.2596,4.2207,4.1384,4.1422,4.1422,4.1422,4.1422,4.1422,4.1422,4.1422,4.1422,4.1407,4.1115,4.101,4.0995,4.0741,4.0636,4.0591,4.0187,4.0023,3.9978,3.9574,3.9828,4.0502,3.9697,3.9697,3.9697,3.9697,3.9697,3.9839,4.0224,4.1032,4.1887,4.2689,4.3551,4.4595,4.5869,4.5579,4.5566,4.6252,4.5274,4.4045,4.2679,4.1638,4.0347,3.8738,3.9023,3.9931,4.1545,4.1932,4.2508,4.329,4.329,4.329,4.329,4.329,4.329,4.329,4.329,4.329,4.329,4.329,4.329,4.329,4.329,4.329,4.329,4.329,4.329,4.329,4.329,4.329,4.329,4.329,4.329,4.329,4.329,4.329,4.329,4.329,4.329,4.329,4.329,4.329,4.329,4.329,4.329,4.329,4.329,4.329,4.329,4.329,4.329,4.329,4.329,4.329,4.329,4.329,4.329,4.329,4.329,4.329,4.329,4.329,4.329,4.329,4.329,4.329,4.329,4.329,4.329,4.329,4.329,4.329,4.329,4.329,4.329,4.2895,4.1998,4.1998,4.1998,4.1998,4.1998,4.1998,4.1998,4.1998,4.1998,4.1983,4.1811,4.1722,4.1707,4.1512,4.1422,4.1324,4.0876,4.0711,4.0651,4.0202,4.0442,4.1085,3.9697,3.9697,3.9697,3.9697,3.9697,4.0121,4.1406,4.1604,4.2558,4.507,4.5403,4.5928,4.7164,4.7309,4.704,4.6396,4.5693,4.4519,4.275,4.0926,3.9942,3.9942,4.1,4.1587,4.1587,4.2725,4.329,4.329,4.329,4.329,4.329,4.329,4.329,4.329,4.329,4.329,4.329,4.329,4.329,4.329,4.329,4.329,4.329,4.329,4.329,4.329,4.329,4.329,4.329,4.329,4.329,4.329,4.329,4.329,4.329,4.329,4.329,4.329,4.329,4.329,4.329,4.329,4.329,4.329,4.329,4.329,4.329,4.329,4.329,4.329,4.329,4.329,4.329,4.329,4.329,4.329,4.329,4.329,4.329,4.329,4.329,4.329,4.329,4.329,4.329,4.329,4.329,4.329,4.329,4.329,4.329,4.329,4.329,4.329,4.329,4.329,4.329,4.329,4.329,4.329,4.329,4.329,4.329,4.326,4.2656,4.241,4.2366,4.1707,4.1384,4.1384,4.1384,4.1384,4.1384,4.1422,4.1826,4.2396,3.9697,3.9697,3.9697,3.9697,4.0465,4.1169,4.1555,4.3122,4.4549,4.5298,4.6166,4.6873,4.7251,4.7309,4.7234,4.704,4.6396,4.5347,4.3897,4.2834,4.2304,4.2304,4.1864,4.1988,4.2765,4.3115,4.329,4.329,4.329,4.329,4.329,4.329,4.329,4.329,4.329,4.329,4.329,4.329,4.329,4.329,4.329,4.329,4.329,4.329,4.329,4.329,4.329,4.329,4.329,4.329,4.329,4.329,4.329,4.329,4.329,4.329,4.329,4.329,4.329,4.329,4.329,4.329,4.329,4.329,4.329,4.329,4.329,4.329,4.329,4.329,4.329,4.329,4.329,4.329,4.329,4.329,4.329,4.329,4.329,4.329,4.329,4.329,4.329,4.329,4.329,4.329,4.329,4.329,4.329,4.329,4.329,4.329,4.329,4.329,4.329,4.329,4.329,4.329,4.329,4.329,4.329,4.329,4.329,4.329,4.3135,4.3045,4.303,4.2836,4.2746,4.2701,4.2252,4.2111,4.2051,4.1587,4.1826,4.2396,3.9697,4.0121,4.0453,4.0453,4.1505,4.2509,4.3026,4.4396,4.5584,4.6107,4.6829,4.7309,4.7309,4.7309,4.7309,4.7309,4.6456,4.5454,4.4392,4.3663,4.329,4.329,4.2644,4.2589,4.329,4.329,4.329,4.329,4.329,4.329,4.329,4.329,4.329,4.329,4.329,4.329,4.329,4.329,4.329,4.329,4.329,4.329,4.329,4.329,4.329,4.329,4.329,4.329,4.329,4.329,4.329,4.329,4.329,4.329,4.329,4.329,4.329,4.329,4.329,4.329,4.329,4.329,4.329,4.329,4.329,4.329,4.329,4.329,4.329,4.329,4.329,4.329,4.329,4.329,4.329,4.329,4.329,4.329,4.329,4.329,4.329,4.329,4.329,4.329,4.329,4.329,4.329,4.329,4.329,4.329,4.329,4.329,4.329,4.329,4.329,4.329,4.329,4.329,4.329,4.329,4.329,4.329,4.329,4.329,4.329,4.329,4.329,4.329,4.329,4.3245,4.2895,4.2746,4.2701,4.2297,4.2402,4.2746,3.989,4.0882,4.1789,4.1789,4.2834,4.4069,4.5207,4.5494,4.5973,4.7164,4.7309,4.7309,4.7309,4.7309,4.7309,4.7309,4.6127,4.511,4.4451,4.3738,4.3349,4.329,4.329,4.329,4.329,4.329,4.329,4.329,4.329,4.329,4.329,4.329,4.329,4.329,4.329,4.329,4.329,4.329,4.329,4.329,4.329,4.329,4.329,4.329,4.329,4.329,4.329,4.329,4.329,4.329,4.329,4.329,4.329,4.329,4.329,4.329,4.329,4.329,4.329,4.329,4.329,4.329,4.329,4.329,4.329,4.329,4.329,4.329,4.329,4.329,4.329,4.329,4.329,4.329,4.329,4.329,4.329,4.329,4.329,4.329,4.329,4.329,4.329,4.329,4.329,4.329,4.329,4.329,4.329,4.329,4.329,4.329,4.329,4.329,4.329,4.329,4.329,4.329,4.329,4.329,4.329,4.329,4.329,4.329,4.329,4.329,4.329,4.329,4.329,4.329,4.329,4.329,4.329,4.329,4.329,4.329,4.1169,4.2217,4.3074,4.3074,4.4116,4.507,4.5358,4.6255,4.6975,4.7251,4.7309,4.7309,4.7309,4.7309,4.7309,4.7309,4.6561,4.5813,4.5125,4.4466,4.3828,4.3319,4.329,4.329,4.329,4.329,4.329,4.329,4.329,4.329,4.329,4.329,4.329,4.329,4.329,4.329,4.329,4.329,4.329,4.329,4.329,4.329,4.329,4.329,4.329,4.329,4.329,4.329,4.329,4.329,4.329,4.329,4.329,4.329,4.329,4.329,4.329,4.329,4.329,4.329,4.329,4.329,4.329,4.329,4.329,4.329,4.329,4.329,4.329,4.329,4.329,4.329,4.329,4.329,4.329,4.329,4.329,4.329,4.329,4.329,4.329,4.329,4.329,4.329,4.329,4.329,4.329,4.329,4.329,4.329,4.329,4.329,4.329,4.329,4.329,4.329,4.329,4.329,4.329,4.329,4.329,4.329,4.329,4.329,4.329,4.329,4.329,4.329,4.329,4.329,4.329,4.329,4.329,4.329,4.329,4.329,4.2509,4.3551,4.4396,4.4396,4.5448,4.6299,4.6299,4.6873,4.7309,4.7309,4.7309,4.7309,4.7309,4.7309,4.7309,4.7309,4.6711,4.613,4.5813,4.487,4.4152,4.3768,4.3469,4.329,4.329,4.329,4.329,4.329,4.329,4.329,4.329,4.329,4.329,4.329,4.329,4.329,4.329,4.329,4.329,4.329,4.329,4.329,4.329,4.329,4.329,4.329,4.329,4.329,4.329,4.329,4.329,4.329,4.329,4.329,4.329,4.329,4.329,4.329,4.329,4.329,4.329,4.329,4.329,4.329,4.329,4.329,4.329,4.329,4.329,4.329,4.329,4.329,4.329,4.329,4.329,4.329,4.329,4.329,4.329,4.329,4.329,4.329,4.329,4.329,4.329,4.329,4.329,4.329,4.329,4.329,4.329,4.329,4.329,4.329,4.329,4.329,4.329,4.329,4.329,4.329,4.329,4.329,4.329,4.329,4.329,4.329,4.329,4.329,4.329,4.329,4.329,4.329,4.329,4.329,4.329,4.329,4.3834,4.4826,4.5734,4.5734,4.6594,4.7309,4.7309,4.7309,4.7309,4.7309,4.7309,4.7309,4.7309,4.7309,4.7309,4.7309,4.68,4.6399,4.6294,4.5233,4.4556,4.4332,4.3753,4.3409,4.329,4.329,4.329,4.329,4.329,4.329,4.329,4.329,4.329,4.329,4.329,4.329,4.329,4.329,4.329,4.329,4.329,4.329,4.329,4.329,4.329,4.329,4.329,4.329,4.329,4.329,4.329,4.329,4.329,4.329,4.329,4.329,4.329,4.329,4.329,4.329,4.329,4.329,4.329,4.329,4.329,4.329,4.329,4.329,4.329,4.329,4.329,4.329,4.329,4.329,4.329,4.329,4.329,4.329,4.329,4.329,4.329,4.329,4.329,4.329,4.329,4.329,4.329,4.329,4.329,4.329,4.329,4.329,4.329,4.329,4.329,4.329,4.329,4.329,4.329,4.329,4.329,4.329,4.329,4.329,4.329,4.329,4.329,4.329,4.329,4.329,4.329,4.329,4.329,4.329,4.329,4.329,4.5161,4.6166,4.7019,4.7019,4.7207,4.7309,4.7309,4.7309,4.7309,4.7309,4.7309,4.7309,4.7309,4.7309,4.7309,4.7309,4.7219,4.6935,4.6324,4.6115,4.5487,4.4362,4.4227,4.3873,4.3305,4.329,4.329,4.329,4.329,4.329,4.329,4.329,4.329,4.329,4.329,4.329,4.329,4.329,4.329,4.329,4.329,4.329,4.329,4.329,4.329,4.329,4.329,4.329,4.329,4.329,4.329,4.329,4.329,4.329,4.329,4.329,4.329,4.329,4.329,4.329,4.329,4.329,4.329,4.329,4.329,4.329,4.329,4.329,4.329,4.329,4.329,4.329,4.329,4.329,4.329,4.329,4.329,4.329,4.329,4.329,4.329,4.329,4.329,4.329,4.329,4.329,4.329,4.329,4.329,4.329,4.329,4.329,4.329,4.329,4.329,4.329,4.329,4.329,4.329,4.329,4.329,4.329,4.329,4.329,4.329,4.329,4.329,4.329,4.329,4.329,4.329,4.329,4.329,4.329,4.329,4.329,4.6447,4.6916,4.7309,4.7309,4.7309,4.7309,4.7309,4.7309,4.7309,4.7309,4.7309,4.7309,4.7309,4.7309,4.7309,4.7309,4.7309,4.7174,4.689,4.6488,4.6025,4.5454,4.4721,4.4182,4.3883,4.3484,4.329,4.329,4.329,4.329,4.329,4.329,4.329,4.329,4.329,4.329,4.329,4.329,4.329,4.329,4.329,4.329,4.329,4.329,4.329,4.329,4.329,4.329,4.329,4.329,4.329,4.329,4.329,4.329,4.329,4.329,4.329,4.329,4.329,4.329,4.329,4.329,4.329,4.329,4.329,4.329,4.329,4.329,4.329,4.329,4.329,4.329,4.329,4.329,4.329,4.329,4.329,4.329,4.329,4.329,4.329,4.329,4.329,4.329,4.329,4.329,4.329,4.329,4.329,4.329,4.329,4.329,4.329,4.329,4.329,4.329,4.329,4.329,4.329,4.329,4.329,4.329,4.329,4.329,4.329,4.329,4.329,4.329,4.329,4.329,4.329,4.329,4.329,4.329,4.329,4.329]}]]